[[{"header":{"parameterUnit":"m.s-1","parameterCategory":1,"la1":30.6,"la2":29.2853,"lo1":-89.7004,"lo2":-87.6739,"dy":0.0162,"dx":0.0183,"nx":112,"ny":82,"refTime":"2023-03-06T18:00:00:Z","depth":0,"parameterNumber":2,"parameterNumberName":"U-component_of_WINDS"},"data":[0.0,0.0,0.0,0.0,0.0,0.0,0.0,0.0,0.0,0.0,0.0,0.0,0.0,0.0,0.0,0.0,0.0,0.0,0.0,0.0,0.0,0.0,0.0,0.0,0.0,0.0,0.0,0.0,0.0,0.0,0.0,0.0,0.0,0.0,0.0,0.0,0.0,0.0,0.0,0.0,0.0,0.0,0.0,0.0,0.0,0.0,0.0,0.0,0.0,0.0,0.0,0.0,0.0,0.0,0.0,0.0,0.0,0.0,0.0,0.0,0.0,0.0,0.0,0.0,0.0,0.0,0.0,0.0,0.0,0.0,0.0,0.0,0.0,0.0,0.0,0.0,0.0,0.0,0.0,0.0,0.0,0.0,0.0,0.0,0.0,0.0,0.0,0.0,0.0,0.0,-2.7114,-2.9431,-3.5568,-4.0048,-4.1367,-4.1083,-3.8491,-3.3098,0.0,0.0,0.0,0.0,0.0,0.0,0.0,0.0,0.0,0.0,0.0,0.0,0.0,0.0,0.0,0.0,0.0,0.0,0.0,0.0,0.0,0.0,0.0,0.0,0.0,0.0,0.0,0.0,0.0,0.0,0.0,0.0,0.0,0.0,0.0,0.0,0.0,0.0,0.0,0.0,0.0,0.0,0.0,0.0,0.0,0.0,0.0,0.0,0.0,0.0,0.0,0.0,0.0,0.0,0.0,0.0,0.0,0.0,0.0,0.0,0.0,0.0,0.0,0.0,0.0,0.0,0.0,0.0,0.0,0.0,0.0,0.0,0.0,0.0,0.0,0.0,0.0,0.0,0.0,0.0,0.0,0.0,0.0,0.0,0.0,0.0,0.0,0.0,0.0,0.0,0.0,0.0,0.0,0.0,0.0,0.0,0.0,0.0,0.0,0.0,0.0,0.0,0.0,0.0,-2.7786,-3.3218,-3.6397,-3.8663,-4.0016,-3.8801,-3.6324,-3.2389,0.0,0.0,0.0,0.0,0.0,0.0,0.0,0.0,0.0,0.0,0.0,0.0,0.0,0.0,0.0,0.0,0.0,0.0,0.0,0.0,0.0,0.0,0.0,0.0,0.0,0.0,0.0,0.0,0.0,0.0,0.0,0.0,0.0,0.0,0.0,0.0,0.0,0.0,0.0,0.0,0.0,0.0,0.0,0.0,0.0,0.0,0.0,0.0,0.0,0.0,0.0,0.0,0.0,0.0,0.0,0.0,0.0,0.0,0.0,0.0,0.0,0.0,0.0,0.0,0.0,0.0,0.0,0.0,0.0,0.0,0.0,0.0,0.0,0.0,0.0,0.0,0.0,0.0,0.0,0.0,0.0,0.0,0.0,0.0,0.0,0.0,0.0,0.0,0.0,0.0,0.0,0.0,0.0,0.0,0.0,0.0,0.0,0.0,0.0,0.0,0.0,0.0,0.0,-2.6156,-2.9026,-3.51,-3.6604,-3.7737,-3.9076,-3.7755,-3.5307,-3.162,-3.0326,0.0,0.0,0.0,0.0,0.0,0.0,0.0,0.0,0.0,0.0,0.0,0.0,0.0,0.0,0.0,0.0,0.0,0.0,0.0,0.0,0.0,0.0,0.0,0.0,0.0,0.0,0.0,0.0,0.0,0.0,0.0,0.0,0.0,0.0,0.0,0.0,0.0,0.0,0.0,0.0,0.0,0.0,0.0,0.0,0.0,0.0,0.0,0.0,0.0,0.0,0.0,0.0,0.0,0.0,0.0,0.0,0.0,0.0,0.0,0.0,0.0,0.0,0.0,0.0,0.0,0.0,0.0,0.0,0.0,0.0,0.0,0.0,0.0,0.0,0.0,0.0,0.0,0.0,0.0,0.0,0.0,0.0,0.0,0.0,0.0,0.0,0.0,0.0,0.0,0.0,0.0,0.0,0.0,0.0,0.0,0.0,0.0,0.0,0.0,0.0,0.0,0.0,-2.8262,-3.0068,-3.5278,-3.6168,-3.6722,-3.7682,-3.6235,-3.3859,-3.0533,-2.8216,0.0,0.0,0.0,0.0,0.0,0.0,0.0,0.0,0.0,0.0,0.0,0.0,0.0,0.0,0.0,0.0,0.0,0.0,0.0,0.0,0.0,0.0,0.0,0.0,0.0,0.0,0.0,0.0,0.0,0.0,0.0,0.0,0.0,0.0,0.0,0.0,0.0,0.0,0.0,0.0,0.0,0.0,0.0,0.0,0.0,0.0,0.0,0.0,0.0,0.0,0.0,0.0,0.0,0.0,0.0,0.0,0.0,0.0,0.0,0.0,0.0,0.0,0.0,0.0,0.0,0.0,0.0,0.0,0.0,0.0,0.0,0.0,0.0,0.0,0.0,0.0,0.0,0.0,0.0,0.0,0.0,0.0,0.0,0.0,0.0,0.0,0.0,0.0,0.0,0.0,0.0,0.0,0.0,0.0,0.0,0.0,0.0,0.0,0.0,0.0,0.0,0.0,-2.8068,-3.0544,-3.338,-3.4896,-3.5509,-3.5013,-3.316,-3.1027,-2.8731,-2.5719,0.0,0.0,0.0,0.0,0.0,0.0,0.0,0.0,0.0,0.0,0.0,0.0,0.0,0.0,0.0,0.0,0.0,0.0,0.0,0.0,0.0,0.0,0.0,0.0,0.0,0.0,0.0,0.0,0.0,0.0,0.0,0.0,0.0,0.0,0.0,0.0,0.0,0.0,0.0,0.0,0.0,0.0,0.0,0.0,0.0,0.0,0.0,0.0,0.0,0.0,0.0,0.0,0.0,0.0,0.0,0.0,0.0,0.0,0.0,0.0,0.0,0.0,0.0,0.0,0.0,0.0,0.0,0.0,0.0,0.0,0.0,0.0,0.0,0.0,0.0,0.0,0.0,0.0,0.0,0.0,0.0,0.0,0.0,0.0,0.0,0.0,0.0,0.0,0.0,0.0,0.0,0.0,0.0,0.0,0.0,0.0,0.0,0.0,0.0,0.0,0.0,0.0,-2.6157,-2.8264,0.0,-3.2442,-3.2691,-3.2607,-3.106,-2.9275,-2.7198,0.0,0.0,0.0,0.0,0.0,0.0,0.0,0.0,0.0,0.0,0.0,0.0,0.0,0.0,0.0,0.0,0.0,0.0,0.0,0.0,0.0,0.0,0.0,0.0,0.0,0.0,0.0,0.0,0.0,0.0,0.0,0.0,0.0,0.0,0.0,0.0,0.0,0.0,0.0,0.0,0.0,0.0,0.0,0.0,0.0,0.0,0.0,0.0,0.0,0.0,0.0,0.0,0.0,0.0,0.0,0.0,0.0,0.0,0.0,0.0,0.0,0.0,0.0,0.0,0.0,0.0,0.0,0.0,0.0,0.0,0.0,0.0,0.0,0.0,0.0,0.0,0.0,0.0,0.0,0.0,0.0,0.0,0.0,0.0,0.0,0.0,0.0,0.0,0.0,0.0,0.0,0.0,0.0,0.0,0.0,0.0,0.0,0.0,0.0,0.0,0.0,0.0,-2.3286,-2.4655,-2.6589,0.0,-3.0419,-3.058,-3.0323,-2.8528,-2.6831,-2.5478,0.0,0.0,0.0,0.0,0.0,0.0,0.0,0.0,0.0,0.0,0.0,0.0,0.0,0.0,0.0,0.0,0.0,0.0,0.0,0.0,0.0,0.0,0.0,0.0,0.0,0.0,0.0,0.0,0.0,0.0,0.0,0.0,0.0,0.0,0.0,0.0,0.0,0.0,0.0,0.0,0.0,0.0,0.0,0.0,0.0,0.0,0.0,0.0,0.0,0.0,0.0,0.0,0.0,0.0,0.0,0.0,0.0,0.0,0.0,0.0,0.0,0.0,0.0,0.0,0.0,0.0,0.0,0.0,0.0,0.0,0.0,0.0,0.0,0.0,0.0,0.0,0.0,0.0,0.0,0.0,0.0,0.0,0.0,0.0,0.0,0.0,0.0,0.0,0.0,0.0,0.0,0.0,0.0,0.0,0.0,0.0,0.0,0.0,0.0,0.0,0.0,0.0,-2.1632,-2.3939,-2.6075,-2.7967,-2.9218,-2.9453,-2.8249,-2.5329,-2.3579,0.0,0.0,0.0,0.0,0.0,0.0,0.0,0.0,0.0,0.0,0.0,0.0,0.0,0.0,0.0,0.0,0.0,0.0,0.0,0.0,0.0,0.0,0.0,0.0,0.0,0.0,0.0,0.0,0.0,0.0,0.0,0.0,0.0,0.0,0.0,0.0,0.0,0.0,0.0,0.0,0.0,0.0,0.0,0.0,0.0,0.0,0.0,0.0,0.0,0.0,0.0,0.0,0.0,0.0,0.0,0.0,0.0,0.0,0.0,0.0,0.0,0.0,0.0,0.0,0.0,0.0,0.0,0.0,0.0,0.0,0.0,0.0,0.0,0.0,0.0,0.0,0.0,0.0,0.0,0.0,0.0,0.0,0.0,0.0,0.0,0.0,0.0,0.0,0.0,0.0,0.0,0.0,0.0,0.0,0.0,0.0,0.0,0.0,0.0,0.0,0.0,0.0,0.0,-2.0848,-2.2334,-2.4022,-2.6142,-2.6375,-2.6386,-2.6556,-2.4233,-2.2609,-2.2233,0.0,0.0,0.0,0.0,0.0,0.0,0.0,0.0,0.0,0.0,0.0,0.0,0.0,0.0,0.0,0.0,0.0,0.0,0.0,0.0,0.0,0.0,0.0,0.0,0.0,0.0,0.0,0.0,0.0,0.0,0.0,0.0,0.0,0.0,0.0,0.0,0.0,0.0,0.0,0.0,0.0,0.0,0.0,0.0,0.0,0.0,0.0,0.0,0.0,0.0,0.0,0.0,0.0,0.0,0.0,0.0,0.0,0.0,0.0,0.0,0.0,0.0,0.0,0.0,0.0,0.0,0.0,0.0,0.0,0.0,0.0,0.0,0.0,0.0,0.0,0.0,0.0,0.0,0.0,0.0,0.0,0.0,0.0,0.0,0.0,0.0,0.0,0.0,0.0,0.0,0.0,0.0,0.0,0.0,0.0,0.0,0.0,0.0,0.0,0.0,0.0,0.0,-2.0112,-2.1292,-2.2749,-2.4745,-2.5059,-2.5127,-2.5148,-2.3444,-2.206,-2.1291,0.0,0.0,0.0,0.0,0.0,0.0,0.0,0.0,0.0,0.0,0.0,0.0,0.0,0.0,0.0,0.0,0.0,0.0,0.0,0.0,0.0,0.0,0.0,0.0,0.0,0.0,0.0,0.0,0.0,0.0,0.0,0.0,0.0,0.0,0.0,0.0,0.0,0.0,0.0,0.0,0.0,0.0,0.0,0.0,0.0,0.0,0.0,0.0,0.0,0.0,0.0,0.0,0.0,0.0,0.0,0.0,0.0,0.0,0.0,0.0,0.0,0.0,0.0,0.0,0.0,0.0,0.0,0.0,0.0,0.0,0.0,0.0,0.0,0.0,0.0,0.0,0.0,0.0,0.0,0.0,0.0,0.0,0.0,0.0,0.0,0.0,0.0,0.0,0.0,0.0,0.0,0.0,0.0,0.0,0.0,0.0,0.0,0.0,0.0,0.0,0.0,0.0,-1.9393,-2.0723,-2.2088,-2.3617,-2.4688,-2.4928,-2.3878,-2.2685,-2.1518,-2.0398,0.0,0.0,0.0,0.0,0.0,0.0,0.0,0.0,0.0,0.0,0.0,0.0,0.0,0.0,0.0,0.0,0.0,0.0,0.0,0.0,0.0,0.0,0.0,0.0,0.0,0.0,0.0,0.0,0.0,0.0,0.0,0.0,0.0,0.0,0.0,0.0,0.0,0.0,0.0,0.0,0.0,0.0,0.0,0.0,0.0,0.0,0.0,0.0,0.0,0.0,0.0,0.0,0.0,0.0,0.0,0.0,0.0,0.0,0.0,0.0,-2.3917,0.0,0.0,0.0,0.0,0.0,0.0,0.0,0.0,0.0,0.0,0.0,0.0,0.0,0.0,0.0,0.0,0.0,0.0,0.0,0.0,0.0,0.0,0.0,0.0,0.0,0.0,0.0,0.0,0.0,0.0,0.0,0.0,0.0,0.0,0.0,0.0,0.0,0.0,0.0,0.0,0.0,-1.7974,-2.0098,-2.1734,-2.2359,-2.2881,-2.2977,-2.2488,-2.0717,-1.9252,-1.829,-1.6535,0.0,0.0,0.0,0.0,0.0,0.0,0.0,0.0,0.0,0.0,0.0,0.0,0.0,0.0,0.0,0.0,0.0,0.0,0.0,0.0,0.0,0.0,0.0,0.0,0.0,0.0,0.0,0.0,0.0,0.0,0.0,0.0,0.0,0.0,0.0,0.0,0.0,0.0,0.0,0.0,0.0,0.0,0.0,0.0,0.0,0.0,0.0,0.0,0.0,0.0,0.0,0.0,0.0,0.0,0.0,0.0,0.0,0.0,0.0,0.0,-2.456,0.0,0.0,0.0,0.0,0.0,0.0,0.0,0.0,0.0,0.0,0.0,0.0,0.0,0.0,0.0,0.0,0.0,0.0,0.0,0.0,0.0,0.0,0.0,0.0,0.0,0.0,0.0,0.0,0.0,0.0,0.0,0.0,0.0,0.0,0.0,0.0,0.0,0.0,0.0,0.0,-1.7801,-1.9123,-2.0323,-2.1216,-2.1727,-2.1793,-2.1341,-2.0336,-1.9231,-1.8014,-1.6446,0.0,0.0,0.0,0.0,0.0,0.0,0.0,0.0,0.0,0.0,0.0,0.0,0.0,0.0,0.0,0.0,0.0,0.0,0.0,0.0,0.0,0.0,0.0,0.0,0.0,0.0,0.0,0.0,0.0,0.0,0.0,0.0,0.0,0.0,0.0,0.0,0.0,0.0,0.0,0.0,0.0,0.0,0.0,0.0,0.0,0.0,0.0,0.0,0.0,0.0,0.0,0.0,0.0,-3.3162,-3.3,-3.2882,-3.3508,-3.3119,-3.1833,-2.933,-2.7469,-2.605,-2.4345,0.0,0.0,0.0,0.0,0.0,0.0,0.0,0.0,0.0,0.0,0.0,0.0,0.0,0.0,0.0,0.0,0.0,0.0,0.0,0.0,0.0,0.0,0.0,0.0,-1.9158,-1.9421,0.0,0.0,0.0,0.0,0.0,0.0,0.0,0.0,0.0,0.0,0.0,0.0,-1.7573,-1.8165,-1.8899,-2.0106,-2.0754,-2.0886,-2.0292,-2.0194,-1.9558,-1.813,-1.6634,-1.5413,0.0,0.0,0.0,0.0,0.0,0.0,0.0,0.0,0.0,0.0,0.0,0.0,0.0,0.0,0.0,0.0,0.0,0.0,0.0,0.0,0.0,0.0,0.0,0.0,0.0,0.0,0.0,0.0,0.0,0.0,0.0,0.0,-2.7829,-2.7055,0.0,0.0,0.0,0.0,0.0,0.0,0.0,0.0,0.0,0.0,0.0,0.0,0.0,-3.3442,-3.4785,-3.5414,-3.5474,-3.5057,-3.583,-3.5825,-3.5182,-3.5284,-3.5216,-3.5013,-3.4607,0.0,-2.8366,-2.6202,0.0,0.0,0.0,0.0,0.0,0.0,0.0,0.0,0.0,0.0,0.0,0.0,0.0,0.0,0.0,0.0,0.0,0.0,0.0,0.0,0.0,0.0,-1.9597,-1.9597,-1.9698,-1.9597,0.0,-1.8526,-1.7944,-1.6662,-1.6152,0.0,0.0,0.0,0.0,0.0,0.0,0.0,-1.5816,-1.767,-1.8967,-1.8883,-1.9607,-1.9744,-1.8954,-1.8546,-1.7939,-1.6941,-1.598,-1.5278,-1.4794,-1.3994,0.0,0.0,0.0,0.0,0.0,0.0,0.0,0.0,0.0,0.0,0.0,0.0,0.0,0.0,0.0,0.0,0.0,0.0,0.0,0.0,0.0,0.0,0.0,0.0,0.0,0.0,0.0,0.0,0.0,-2.8219,-2.9273,-2.8262,-2.9341,-2.9605,0.0,0.0,0.0,0.0,0.0,0.0,0.0,0.0,0.0,-3.4306,-3.5362,-3.6396,-3.7344,-3.7955,-3.8531,-3.9036,-3.8659,-3.8534,-3.8557,-3.8282,-3.8125,-3.8108,-3.7702,-3.618,-3.3728,-2.9928,-2.7925,-2.7002,0.0,0.0,0.0,0.0,-2.2517,-2.2742,-2.2532,-2.2413,0.0,-2.1946,0.0,0.0,0.0,0.0,0.0,0.0,0.0,0.0,0.0,0.0,-2.0752,-2.0752,-2.123,-2.1531,-2.0991,-2.0439,-1.9393,0.0,-1.7098,-1.6764,-1.485,0.0,0.0,0.0,0.0,-1.5495,-1.6035,-1.7306,-1.8145,-1.8262,-1.8616,-1.8674,-1.8281,-1.8115,-1.7646,-1.6787,-1.6133,-1.5371,-1.4463,-1.3828,-1.3398,0.0,0.0,0.0,0.0,0.0,0.0,0.0,0.0,0.0,0.0,0.0,0.0,0.0,0.0,0.0,0.0,0.0,0.0,0.0,0.0,0.0,0.0,0.0,0.0,0.0,0.0,0.0,0.0,-2.938,-3.0553,-2.9337,-3.1322,-3.197,0.0,0.0,0.0,0.0,0.0,0.0,-3.432,-3.5396,-3.6347,-3.718,-3.8538,-3.9618,-4.047,-4.0891,-4.1631,-4.2692,-4.1297,-4.0844,-4.1215,-4.0583,-4.0254,-4.0054,-3.9512,-3.8853,-3.7855,-3.3359,-3.0986,-2.9842,-2.7098,-2.6134,-2.6158,-2.5044,-2.4626,-2.4642,-2.4822,-2.4537,-2.4014,-2.3334,0.0,-2.0983,-1.8674,0.0,0.0,0.0,0.0,-1.8781,-1.9472,-2.0677,-2.1732,-2.1882,-2.2535,-2.2927,-2.2435,-2.1995,-2.0884,0.0,-1.7961,-1.7687,-1.5447,0.0,0.0,0.0,0.0,-1.5635,-1.6611,-1.7109,-1.7539,-1.7969,-1.8008,-1.7969,-1.7861,-1.7852,-1.7529,-1.6777,-1.6309,-1.5586,-1.4502,-1.3945,-1.3467,-1.3047,0.0,0.0,0.0,0.0,0.0,0.0,0.0,0.0,0.0,0.0,0.0,0.0,0.0,0.0,0.0,0.0,0.0,0.0,0.0,0.0,0.0,0.0,0.0,0.0,0.0,0.0,0.0,0.0,0.0,-2.9406,-3.2871,0.0,0.0,0.0,0.0,-3.5122,-3.507,-3.5703,-3.7313,-3.7261,-3.8478,-4.1222,-4.2106,-4.3508,-4.5517,-4.5064,-4.4881,-4.4895,-4.3511,-4.2607,-4.2094,-4.1267,-4.0577,-4.007,-4.0037,-3.9614,-3.87,-3.5588,-3.388,-3.2975,-3.0892,-2.9707,-2.9013,-2.7825,-2.7423,-2.72,-2.5974,-2.554,-2.56,-2.6198,-2.4752,-2.2436,-2.0482,-1.9016,0.0,0.0,-1.9321,-1.9974,-2.1079,-2.182,-2.2397,-2.2924,-2.3027,-2.2927,-2.2435,-2.2284,-2.1506,0.0,-1.798,-1.7038,-1.5149,0.0,-1.5733,-1.4902,-1.584,-1.666,-1.6665,-1.7109,-1.7539,-1.7969,-1.8008,-1.7852,-1.7451,-1.7422,-1.7217,-1.6758,-1.6309,-1.585,-1.5371,-1.4551,-1.3906,-1.3486,-1.3086,0.0,0.0,0.0,0.0,0.0,0.0,0.0,0.0,0.0,0.0,0.0,0.0,0.0,0.0,0.0,0.0,0.0,0.0,0.0,0.0,0.0,0.0,0.0,0.0,0.0,0.0,0.0,0.0,-3.4827,-3.7166,0.0,-3.6733,-3.6622,-3.7219,-3.8604,-3.9173,-4.0321,-4.2334,-4.2843,-4.3591,-4.4699,-4.5538,-4.6186,-4.6673,-4.6466,-4.6371,-4.6353,-4.448,-4.3465,-4.3237,-4.1618,-4.078,-4.0625,-4.0237,-3.9935,-3.9597,-3.8531,-3.7094,-3.5374,-3.3262,-3.2033,-3.1294,-3.0017,-2.9276,-2.8801,-2.8323,-2.759,-2.6643,-2.525,-2.3684,-2.2286,-2.1558,-2.0704,-2.0051,-2.0638,-2.0873,-2.1066,-2.182,-2.2422,-2.2887,-2.3027,-2.3078,-2.3075,-2.2887,-2.2836,-2.2414,-2.0984,-1.9561,-1.8181,-1.7044,-1.6457,-1.6055,-1.6045,-1.6436,-1.6836,-1.7119,-1.7519,-1.7842,-1.7988,-1.7773,-1.7549,-1.7393,-1.6865,-1.6348,-1.5908,-1.5478,-1.4922,-1.4219,-1.3896,-1.3535,-1.3115,-1.2959,-1.3018,0.0,0.0,0.0,0.0,0.0,0.0,0.0,0.0,0.0,0.0,0.0,0.0,0.0,0.0,0.0,0.0,0.0,0.0,0.0,0.0,0.0,0.0,0.0,0.0,0.0,0.0,-3.7874,-3.8387,-4.0931,-4.2104,-4.0719,-4.0835,-4.147,-4.2585,-4.3451,-4.4573,-4.6028,-4.6621,-4.6963,-4.7079,-4.7592,-4.775,-4.7517,-4.7517,-4.7388,-4.7057,-4.5364,-4.4334,-4.3848,-4.225,-4.1402,-4.1178,-4.0814,-4.0546,-4.0368,-4.0368,-3.9234,-3.7415,-3.5994,-3.4382,-3.2862,-3.2234,-3.1266,-3.0178,-2.9729,-2.8846,-2.7569,-2.5442,-2.41,-2.3283,-2.3055,-2.2443,-2.1911,-2.2233,-2.2255,-2.2209,-2.2506,-2.2802,-2.3078,-2.3078,-2.3078,-2.3078,-2.3078,-2.3078,-2.2944,-2.2384,-2.1063,-1.9686,-1.8577,-1.7924,-1.7502,-1.7149,-1.7336,-1.7581,-1.7625,-1.7842,-1.8008,-1.8008,-1.7637,-1.7324,-1.7178,-1.6621,-1.5977,-1.5244,-1.5068,-1.4609,-1.375,-1.3721,-1.3584,-1.3311,-1.3164,-1.2962,-1.2757,0.0,0.0,0.0,0.0,0.0,0.0,0.0,0.0,0.0,0.0,0.0,0.0,0.0,0.0,0.0,0.0,0.0,0.0,0.0,0.0,0.0,0.0,0.0,-3.438,-3.8767,-4.1316,-3.9796,-4.4008,-4.6067,-4.3605,-4.5586,-4.7028,-4.7028,-4.774,-4.8182,-4.8182,-4.8182,-4.8209,-4.8268,-4.823,-4.8284,-4.8326,-4.8288,-4.7884,-4.7075,-4.6269,-4.5186,-4.3888,-4.3054,-4.2382,-4.181,-4.1768,-4.1446,-4.0856,-4.0839,-4.0113,-3.8954,-3.8954,-3.6804,-3.371,-3.4434,-3.3349,-3.1287,-3.0058,-2.919,-2.8442,-2.7096,-2.6253,-2.5669,-2.4988,-2.4326,-2.3727,-2.3525,-2.3464,-2.3385,-2.3166,-2.3078,-2.3078,-2.3078,-2.3078,-2.3078,-2.3078,-2.3078,-2.3078,-2.3078,-2.2445,-2.136,-1.9505,-1.9941,-1.9927,-1.8154,-1.8647,0.0,-1.8134,-1.8008,-1.8008,-1.8008,-1.7637,-1.7207,-1.6768,-1.6626,-1.6123,-1.4844,-1.5117,-1.4961,-1.4077,-1.4038,-1.4038,-1.4038,-1.3649,-1.2757,-1.1313,0.0,0.0,0.0,0.0,0.0,0.0,0.0,0.0,0.0,0.0,0.0,0.0,0.0,0.0,0.0,0.0,0.0,0.0,0.0,0.0,0.0,0.0,-3.8733,-3.8794,-4.1578,-4.4355,-4.6374,-4.8413,-4.9606,-4.949,-4.9586,-4.9663,-4.9663,-4.9856,-4.999,-4.999,-4.999,-4.9848,-4.9588,-4.9305,-4.902,-4.8744,-4.7887,-4.7333,-4.7095,-4.57,-4.4839,-4.4437,-4.3226,-4.2382,-4.1768,-4.1358,-4.0827,-4.0285,-3.9756,-3.8982,-3.821,-3.821,-3.6622,-3.437,-3.3998,-3.2874,-3.1347,-3.0552,-3.0133,-2.9759,-2.8472,-2.795,-2.7698,-2.7015,-2.6287,-2.5625,-2.5039,-2.4482,-2.3909,-2.3267,-2.3078,-2.3078,-2.3078,-2.3078,-2.3078,-2.3078,-2.3078,-2.3078,-2.3078,-2.2944,-2.2408,-2.1301,-2.0483,-1.9939,-1.9849,-1.9169,0.0,-1.8936,-1.8395,-1.8008,-1.8008,-1.7637,-1.7207,-1.6768,-1.5859,-1.5029,-1.4355,-1.3848,-1.3477,-1.3232,-1.3223,-1.3223,-1.3223,-1.294,-1.228,0.0,0.0,0.0,0.0,0.0,0.0,0.0,0.0,0.0,0.0,0.0,0.0,0.0,0.0,0.0,0.0,0.0,0.0,0.0,0.0,0.0,0.0,-4.0435,-4.3052,-4.4636,-4.6121,-4.7921,-5.0183,-5.1221,-5.1933,-5.2414,-5.2029,-5.1606,-5.1221,-5.1202,-5.1048,-5.0721,-5.0702,-5.0523,-5.0116,-4.9719,-4.9295,-4.8897,-4.7684,-4.6948,-4.6581,-4.5314,-4.4525,-4.4176,-4.3397,-4.2828,-4.2465,-4.2149,-4.1384,-4.0331,-4.021,-3.9105,0.0,0.0,0.0,0.0,0.0,-3.2017,-3.1046,-3.0642,-3.0328,-2.9998,-2.925,-2.9011,-2.8936,-2.8532,-2.7943,-2.7249,-2.6505,-2.5535,-2.4567,-2.3826,-2.3365,-2.3078,-2.3078,-2.3078,-2.3078,-2.3078,-2.3078,-2.3078,-2.3078,-2.3078,0.0,-2.2506,-2.1665,-2.1046,-2.083,-2.0272,-1.9757,-1.9333,-1.8854,-1.8395,-1.8008,-1.7637,-1.7207,-1.6768,-1.6035,0.0,0.0,0.0,-1.3516,-1.3164,-1.3145,0.0,0.0,0.0,-1.2304,-1.1083,0.0,0.0,0.0,-0.9573,-0.9726,0.0,0.0,0.0,0.0,0.0,0.0,0.0,0.0,0.0,0.0,0.0,0.0,0.0,0.0,0.0,0.0,-4.4163,-4.6742,-5.0811,-5.1358,-5.156,-5.2126,-5.2972,-5.3491,-5.3491,-5.3491,-5.3126,-5.226,-5.2106,-5.1702,-5.0875,0.0,0.0,0.0,0.0,-4.9295,-4.8897,-4.7628,-4.6562,-4.5755,-4.4947,-4.4195,-4.3497,-4.3497,-4.3463,-4.341,-4.341,-4.2411,-4.076,-4.1336,-3.9747,-3.6958,-3.7354,-3.5927,-3.3427,-3.2104,-3.1192,-3.0612,-3.0612,0.0,0.0,-2.9714,-2.9684,-2.9654,-2.952,-2.9071,-2.8419,-2.7592,-2.6493,-2.5342,-2.4509,-2.3767,-2.3185,-2.3138,-2.3027,-2.3002,-2.3065,-2.3027,-2.3002,-2.3065,-2.3078,-2.3078,-2.3078,-2.3027,-2.2575,-2.1404,-2.1582,-2.1232,-1.9814,-1.9497,-1.911,-1.8269,0.0,0.0,-1.6846,-1.6758,-1.6025,-1.433,-1.4551,-1.4375,-1.3613,-1.3525,-1.3525,-1.3574,-1.3423,-1.26,-1.1039,-1.0886,-1.0332,-0.9403,-0.9793,-0.9913,0.0,0.0,0.0,0.0,0.0,0.0,0.0,0.0,0.0,0.0,0.0,0.0,0.0,0.0,0.0,-4.4898,-4.7554,-5.0334,-5.38,-5.4198,-5.4089,-5.4014,-5.4722,-5.5222,-5.5222,-5.5222,-5.4876,-5.4068,-5.3356,-5.2568,-5.1722,-5.1048,-5.0811,-5.1065,-5.006,-4.9295,-4.8897,-4.7056,-4.5736,-4.4929,0.0,0.0,-4.3497,-4.3497,-4.325,-4.2864,-4.2864,-4.2114,-4.0826,-4.0374,-3.9204,-3.752,-3.5902,-3.4595,-3.3495,-3.268,-3.1931,-3.1345,-3.1345,-3.1255,-3.1061,-3.0507,-3.0328,-3.0133,-2.9101,-2.8697,0.0,-2.7055,-2.649,-2.596,-2.4624,-2.4176,-2.3884,-2.3245,-2.2799,-2.2585,-2.3037,-2.2786,-2.2598,-2.299,-2.3078,-2.3078,-2.3078,-2.2761,-2.2527,-2.2673,-2.1801,-2.1256,-2.1369,-2.0782,-2.0009,-1.911,-1.8971,-1.8481,-1.736,-1.6934,-1.6289,-1.5234,-1.459,-1.418,-1.397,-1.3691,-1.3662,-1.3951,-1.3143,-1.2668,-1.2636,-1.1477,-1.074,-1.0526,-0.9735,-0.9633,0.0,0.0,0.0,0.0,0.0,0.0,0.0,0.0,0.0,0.0,0.0,-3.7695,0.0,0.0,-4.544,-4.8945,-5.0957,-5.2809,-5.4816,-5.5418,-5.5549,-5.5244,-5.5498,-5.5703,-5.5703,-5.5703,-5.5376,-5.4549,-5.4107,-5.3472,-5.2606,-5.176,-5.1392,-5.1606,-5.0218,-4.9416,-4.9202,-4.7402,-4.6104,-4.5296,-4.4488,-4.3883,-4.3497,-4.3497,-4.3375,-4.3105,-4.3105,-4.221,-4.071,-3.9388,-3.8683,-3.828,-3.6829,-3.5844,-3.501,-3.3238,-3.2598,-3.2505,-3.176,-3.1482,-3.1422,-3.1135,-3.0791,-3.0387,-2.9744,-2.9116,-2.8465,-2.7741,-2.7035,-2.6229,-2.5119,-2.4567,-2.4118,-2.3305,-2.2924,-2.2799,-2.3015,-2.2865,-2.2811,-2.3075,-2.3078,-2.3078,-2.3078,-2.2912,-2.2811,-2.3027,-2.2515,-2.2007,-2.1904,-2.1491,-2.091,-2.0009,-1.9562,-1.8923,-1.81,-1.701,-1.6113,-1.5449,-1.4814,-1.4355,-1.4087,-1.3936,-1.3863,-1.4077,-1.3546,-1.3218,-1.3086,-1.2363,-1.1889,-1.1733,-1.0703,-1.0172,0.0,0.0,0.0,0.0,0.0,0.0,0.0,0.0,-3.4049,-3.6803,-3.9127,-4.1653,-4.4916,-4.6957,-4.9189,-5.2421,-5.3672,-5.4529,-5.5283,-5.5967,-5.6235,-5.5758,-5.5729,-5.5728,-5.5684,-5.5703,-5.5434,-5.478,-5.4587,-5.4184,-5.3491,-5.2472,-5.1931,-5.2043,-5.0463,-4.9532,-4.9386,-4.7797,-4.6526,-4.5663,-4.4856,-4.4121,-4.3497,-4.3497,-4.3497,-4.3497,-4.3286,-4.2316,-4.076,-3.8912,-3.8548,-3.9123,-3.8244,-3.7633,-3.6885,-3.4054,-3.3279,-3.3485,-3.2022,-3.1482,-3.1482,-3.1482,-3.115,-3.0657,-3.0402,-2.9609,-2.8742,-2.8472,-2.7565,-2.6496,-2.5618,-2.5063,-2.4452,-2.3365,-2.311,-2.3166,-2.3113,-2.299,-2.3012,-2.3053,-2.3078,-2.3078,-2.3078,-2.3226,-2.3263,-2.309,-2.3226,-2.3008,-2.2211,-2.2221,-2.1922,-2.0985,-2.0074,-1.9272,-1.8516,-1.7189,-1.6172,-1.582,-1.54,-1.5,-1.4603,-1.4418,-1.4424,-1.4512,-1.4346,-1.4026,-1.3543,-1.3377,-1.3146,-1.2873,-1.1846,-1.1023,-2.8068,-2.7892,-2.8587,-3.0764,-3.1349,-3.2832,0.0,0.0,-3.9384,-4.2672,-4.4274,-4.5704,-4.7717,-4.9562,-5.1457,-5.3515,-5.459,-5.5449,-5.6308,-5.6403,-5.6042,-5.5121,-5.553,-5.5824,-5.5705,-5.5703,-5.5665,-5.5568,-5.4895,-5.4453,-5.4357,-5.2799,-5.2097,-5.2526,-5.0907,-4.9673,-4.8978,-4.7369,-4.5986,-4.4837,-4.4011,-4.3589,-4.3497,-4.3497,-4.3497,-4.3444,-4.2426,-4.1884,-4.1531,-3.9637,-3.9292,-3.9817,-3.8447,-3.8246,-3.8404,-3.5545,-3.4162,-3.3485,-3.2022,-3.1482,-3.1482,-3.1482,-3.1422,-3.121,-3.0043,-2.9579,-2.922,-2.8023,-2.7584,-2.7137,-2.5783,-2.5837,-2.5728,-2.3577,-2.3251,-2.3293,-2.3132,-2.2749,-2.2548,-2.3037,-2.3078,-2.3078,-2.3078,-2.3552,-2.3728,-2.3153,-2.3577,-2.3654,-2.308,-2.3454,-2.3256,-2.1925,-2.0974,-1.9792,-1.82,-1.7566,-1.7217,-1.7168,-1.6758,-1.6494,-1.6383,-1.5684,-1.5449,-1.584,-1.5098,-1.4836,-1.5148,-1.444,-1.4046,-1.3963,-1.244,-1.1712,-3.0203,-3.0343,-3.0944,0.0,-3.3815,-3.574,-3.9373,-4.0327,-4.1338,-4.4434,-4.6172,-4.7863,-5.017,-5.1687,-5.3208,0.0,-5.5778,-5.6172,-5.6543,-5.6129,-5.5357,-5.4266,-5.4385,-5.4672,-5.4975,-5.4991,-5.5203,-5.5665,-5.5395,-5.5203,-5.5203,-5.3587,-5.2756,-5.2931,-5.1104,-4.9827,-4.9265,-4.7871,-4.6595,-4.5388,-4.5057,-4.4397,-4.3516,-4.3975,-4.3778,-4.2976,-4.2144,-4.1578,-4.1206,-4.0092,-3.98,-4.002,-3.9411,-3.9106,-3.8704,-3.6172,-3.4848,-3.4076,-3.2669,-3.1853,-3.1482,-3.1482,-3.127,-3.0836,-3.0283,-2.9609,-2.8891,-2.8323,-2.8173,-2.7951,-2.688,-2.6826,-2.6691,-2.5189,-2.4609,-2.4256,-2.3761,-2.3452,-2.3263,-2.309,-2.3414,-2.364,-2.364,-2.4104,-2.4393,-2.4155,-2.4318,-2.4393,-2.4142,-2.433,-2.3926,-2.2528,-2.1284,-2.0074,-1.8844,-1.8111,-1.7646,-1.7402,-1.7217,-1.7002,-1.6685,-1.6377,-1.6269,-1.6445,-1.6103,-1.5879,-1.5791,-1.5482,-1.5169,-1.4874,-1.3392,-1.2751,-3.1642,0.0,0.0,-3.4549,-3.6787,-3.9024,-4.0384,-4.1819,-4.3407,-4.54,-4.6857,-4.86,-5.1261,-5.2399,-5.3602,-5.5697,-5.6141,-5.6328,-5.6562,-5.5644,-5.454,-5.3399,-5.2835,-5.279,-5.3398,-5.3876,-5.4472,-5.5299,-5.5376,-5.5472,-5.5684,-5.4337,-5.3453,-5.3222,-5.1513,-5.0228,-4.9522,-4.8427,-4.7307,-4.6232,-4.5773,-4.4966,-4.3828,-4.4195,-4.3762,-4.2673,-4.208,-4.1446,-4.0856,-4.0336,-4.007,-4.007,-4.007,-3.9512,-3.85,-3.6918,-3.5609,-3.4505,-3.3091,-3.212,-3.1482,-3.1482,-3.1195,-3.0746,-3.0567,-2.9864,-2.9086,-2.8921,-2.8876,-2.8687,-2.7926,-2.7926,-2.7821,-2.6666,-2.6209,-2.574,-2.484,-2.451,-2.4211,-2.373,-2.3826,-2.4054,-2.4205,-2.4682,-2.5034,-2.5034,-2.5172,-2.5172,-2.4858,-2.4695,-2.4099,-2.2827,-2.1667,-2.059,-1.9748,-1.8844,-1.8198,-1.7955,-1.7681,-1.7412,-1.71,-1.6973,-1.6914,-1.6914,-1.6797,-1.6572,-1.625,-1.625,-1.6016,-1.5537,-1.4212,-1.3508,0.0,0.0,-3.4757,-3.7243,-4.0415,-4.2827,-4.2506,-4.4652,-4.6647,-4.6347,-4.6626,-4.7771,-5.0429,-5.1078,-5.2052,-5.4713,-5.5245,-5.5625,-5.6484,-5.5117,-5.3642,-5.255,-5.0938,-5.0149,0.0,-5.2299,-5.3606,-5.4472,-5.453,-5.4876,-5.5665,-5.4914,-5.4068,-5.3241,-5.2317,-5.1098,-4.9522,-4.8673,-4.7872,-4.702,-4.5498,-4.4727,-4.4654,-4.3883,-4.3232,-4.2673,-4.208,-4.1446,-4.0856,-4.0336,-4.007,-4.007,-4.007,-3.9208,-3.7939,-3.7841,-3.6489,-3.4505,-3.3091,-3.212,-3.1482,-3.1482,-3.1467,-3.1375,-3.0717,-3.0477,-3.0313,-2.9714,-2.9549,-2.9357,-2.855,-2.8928,-2.9138,-2.7636,-2.7781,-2.7911,-2.6592,-2.5702,-2.517,-2.5064,-2.4448,-2.4167,-2.4707,-2.5222,-2.5573,-2.5573,-2.605,-2.6025,-2.4958,-2.4356,-2.3678,-2.2791,-2.2198,-2.1491,-2.0655,-1.9748,-1.9233,-1.9222,-1.8442,-1.7988,-1.7969,-1.7578,-1.7363,-1.7363,-1.6943,-1.6665,-1.6709,-1.6709,-1.6484,-1.6055,-1.4676,-1.381,0.0,0.0,-3.8588,-4.05,-4.2788,-4.4644,-4.4954,-4.5616,-4.6287,-4.6626,-4.6358,-4.666,-4.8673,-4.922,-5.0235,-5.2887,-5.3943,-5.4941,-5.6406,-5.5605,-5.4032,-5.1799,-5.1483,0.0,0.0,0.0,0.0,-5.3491,-5.3645,-5.401,-5.4857,-5.4645,-5.4107,-5.3241,-5.2356,-5.1136,-4.9522,-4.8702,-4.7891,-4.7095,-4.548,-4.4709,-4.4672,-4.3864,-4.2995,-4.208,-4.1895,-4.1241,-4.0385,-4.0154,-4.007,-4.002,-3.9546,-3.8768,-3.7838,-3.7347,-3.5827,-3.3918,-3.3419,-3.2461,-3.1482,-3.1482,-3.1482,-3.1437,-3.1255,-3.0866,-3.0462,-3.0253,-3.0193,-3.0123,-2.987,-2.9997,-3.006,-2.9446,-2.9113,-2.8566,-2.7054,-2.6521,-2.6041,-2.5089,-2.5,-2.5121,-2.531,-2.5799,-2.6163,-2.6163,-2.6339,-2.6327,-2.5963,-2.541,-2.4916,-2.4641,-2.3627,-2.2432,-2.1237,-2.0355,-1.9557,-1.8893,-1.8291,-1.8135,-1.8418,-1.8018,-1.7803,-1.7803,-1.7656,-1.7441,-1.7168,-1.7168,-1.6934,-1.6451,-1.5667,-1.4906,0.0,-3.8761,-4.1705,-4.3943,-4.5422,-4.6303,-4.631,-4.6249,-4.6039,-4.5457,-4.5013,-4.4932,-4.572,-4.6048,-4.7162,-5.009,-5.1219,-5.2637,-5.5293,-5.4394,-5.3115,-5.2102,-5.1648,-5.0887,0.0,0.0,0.0,-5.2568,-5.3318,-5.3914,-5.4472,-5.4761,-5.4395,-5.3241,-5.2502,-5.1285,-4.9522,-4.8859,-4.7881,-4.6673,-4.5626,-4.4837,-4.425,-4.3736,-4.2903,-4.181,-4.181,-4.115,-4.007,-4.007,-4.007,-4.002,-3.9563,-3.8768,-3.7838,-3.7364,-3.5839,-3.3937,-3.3684,-3.2664,-3.1482,-3.1482,-3.1482,-3.1482,-3.1482,-3.1225,-3.0866,-3.0866,-3.0866,-3.0866,-3.0866,-3.0866,-3.0728,-3.0422,-2.9952,-2.922,-2.7664,-2.7296,-2.7,-2.5717,-2.5806,-2.6047,-2.5942,-2.6214,-2.6533,-2.6533,-2.6533,-2.6533,-2.6533,-2.595,-2.5598,-2.5598,-2.4637,-2.358,-2.2697,-2.152,-2.0498,-1.9885,-1.8795,-1.8359,-1.8623,-1.8232,-1.8008,-1.8008,-1.8008,-1.7881,-1.7607,-1.7607,-1.7383,-1.6908,-1.6418,-1.5556,-3.9723,-4.1973,-4.4145,-4.7317,-4.8106,-4.7818,-4.656,-4.6511,-4.5917,-4.3024,-4.2678,-4.264,0.0,0.0,-4.3241,-4.6722,-4.7588,-4.9277,-5.3535,-5.2051,-5.1296,0.0,0.0,0.0,0.0,0.0,0.0,-5.1856,0.0,-5.4414,-5.4491,-5.5222,-5.4895,-5.326,-5.2786,-5.1566,-4.9522,-4.9075,-4.7895,-4.5957,-4.592,-4.5076,-4.3552,-4.3516,-4.2885,-4.1835,-4.1793,-4.115,-4.0121,-4.0121,-4.007,-4.007,-4.0037,-3.9174,-3.7956,-3.7922,-3.653,-3.4593,-3.3935,-3.2734,-3.1524,-3.1524,-3.1482,-3.1482,-3.1482,-3.1482,-3.1482,-3.1482,-3.1482,-3.1482,-3.1482,-3.1482,-3.1278,-3.0524,-3.0329,-2.9975,-2.8455,-2.8207,-2.7961,-2.6969,-2.688,-2.6818,-2.6569,-2.6533,-2.6533,-2.6533,-2.6533,-2.6533,-2.6533,-2.5975,-2.5636,-2.5636,-2.5197,-2.4831,-2.4793,-2.3112,-2.2012,-2.1943,-1.9856,-1.8672,-1.8672,-1.8271,-1.8037,-1.8008,-1.8008,-1.8008,-1.8008,-1.8008,-1.7803,-1.7422,-1.6893,-1.5947,-4.1512,-4.4609,-4.7482,-4.7972,-4.8353,-4.8135,-4.6348,-4.5257,-4.4028,-4.1712,-4.0752,-4.0082,0.0,0.0,0.0,-4.673,-4.9025,0.0,-5.541,-5.5371,0.0,-5.385,0.0,-5.3188,-5.214,-5.2742,0.0,0.0,-5.2683,-5.3126,-5.4434,-5.4684,-5.4318,-5.3241,-5.2487,-5.1257,-4.9522,-4.8813,-4.7886,-4.6801,-4.6195,-4.5369,-4.4378,-4.3754,-4.3124,-4.244,-4.1997,-4.1358,-4.0655,-4.0237,-4.007,-4.002,-3.9478,-3.9039,-3.865,-3.8108,-3.6865,-3.5399,-3.5201,-3.3926,-3.2231,-3.1697,-3.1482,-3.1482,-3.1482,-3.1482,-3.1482,-3.1482,-3.1482,-3.1482,-3.1482,-3.1482,-3.1467,-3.1219,-3.1219,-3.0911,-2.9932,-2.9204,-2.8639,-2.816,-2.755,-2.7031,-2.6571,-2.6533,-2.6533,-2.6533,-2.6533,-2.6533,-2.6533,-2.6395,-2.6239,-2.6239,-2.6126,-2.5647,-2.4517,-2.3364,-2.2324,-2.161,-2.0052,-1.9121,-1.9121,-1.8711,-1.833,-1.8018,-1.8008,-1.8008,-1.8008,-1.8008,-1.7959,-1.7852,-1.7745,-1.7092,-4.4072,-4.6694,-4.8789,-4.8683,-4.8625,-4.7875,-4.5274,-4.3858,-4.2241,-3.9189,-3.8141,0.0,0.0,0.0,0.0,0.0,0.0,0.0,-5.3827,-5.4648,-5.4899,0.0,-5.4913,0.0,-5.3843,-5.4207,-5.4434,0.0,-5.3837,-5.3837,-5.4472,-5.4491,-5.4107,-5.3241,-5.2173,-5.0868,-4.9234,-4.8604,-4.7921,-4.7075,-4.6287,-4.548,-4.4672,-4.3864,-4.3214,-4.2673,0.0,-4.1446,-4.0856,-4.0336,-4.007,-4.0037,-3.9631,-3.9276,-3.8937,-3.8531,-3.7631,-3.6554,-3.5894,-3.495,-3.3752,-3.2419,-3.1739,-3.1482,-3.1482,-3.1482,-3.1482,-3.1482,-3.1482,-3.1482,-3.1482,-3.1482,-3.1409,-3.1087,-3.097,-3.0644,-2.9442,-2.9273,-2.9244,-2.8968,-2.8029,-2.718,-2.6866,-2.6684,-2.6533,-2.6533,-2.6533,-2.6533,-2.6533,-2.6533,-2.6533,-2.6533,-2.6533,-2.597,-2.4704,-2.3684,-2.275,-2.1723,-2.037,-1.9561,-1.9561,-1.8965,-1.8455,-1.8291,-1.8281,-1.8193,-1.8008,-1.8389,-1.8467,-1.8281,-1.8281,-1.7777,-4.6719,-4.83,-4.9086,-4.9221,-4.8684,-4.7254,-4.3847,-4.2315,-4.0462,-3.6404,0.0,-3.5164,-3.4465,-3.5806,-3.7955,-4.0879,0.0,-4.7377,-5.1054,-5.2324,-5.3708,-5.5981,-5.5556,-5.5299,-5.5874,-5.5075,-5.4818,-5.5645,-5.5491,-5.5107,-5.453,-5.4395,-5.3876,-5.2895,-5.1729,-5.0399,-4.8828,-4.8402,-4.7812,-4.6948,-4.614,-4.5388,-4.4672,-4.3864,-4.325,-4.277,-4.2103,0.0,-4.0949,-4.0319,-4.007,-4.007,-4.007,-3.9698,-3.914,-3.914,-3.8684,-3.7843,-3.6571,-3.6009,-3.5496,-3.3401,-3.2237,-3.1655,-3.1629,-3.1541,-3.1497,-3.1586,-3.1541,-3.1497,-3.1586,-3.1541,-3.1351,-3.0644,-3.045,-3.0072,-2.8556,-2.9086,-2.9751,-2.9197,-2.8203,-2.7344,-2.7205,-2.6779,-2.6533,-2.6533,-2.6533,-2.6533,-2.6533,-2.6533,-2.6533,-2.6533,-2.6383,-2.5943,-2.5087,-2.3963,-2.2925,-2.2027,-2.0717,-1.9971,-1.9912,-1.9199,-1.875,-1.8562,-1.8691,-1.8516,-1.8096,-1.8896,-1.9092,-1.8721,-1.8592,-1.8228,-4.7815,-4.923,-5.0073,-4.881,-4.785,-4.6397,-4.3194,-4.068,0.0,0.0,-3.4251,-3.3676,-3.352,-3.5418,-3.8344,-4.2479,0.0,0.0,0.0,0.0,-5.4199,0.0,0.0,0.0,0.0,0.0,0.0,0.0,0.0,-5.3895,-5.4472,-5.3818,-5.2722,-5.1183,-5.06,-4.9708,-4.8428,-4.8021,-4.7233,-4.6104,-4.5296,-4.4856,-4.4672,-4.3864,-4.3444,-4.3286,-4.2266,0.0,-4.1578,-4.0514,-4.007,-4.007,-4.007,-4.0003,-3.9884,-3.9884,-3.9428,-3.8785,-3.8535,-3.7619,-3.6268,-3.4077,-3.2909,-3.2379,-3.2329,-3.1958,-3.1644,-3.2198,-3.1958,-3.1601,-3.2198,-3.1943,-3.1467,-3.1351,-3.1278,-3.1219,-3.0896,-3.0644,-2.993,-2.8023,-2.7851,-2.767,-2.6753,-2.6596,-2.6533,-2.6533,-2.6533,-2.6533,-2.6533,-2.6533,-2.6533,-2.6533,-2.5734,-2.5229,-2.5004,-2.3294,-2.2178,-2.2027,-2.1008,-2.0293,-1.9932,-1.9766,-1.9365,-1.8582,-1.8994,-1.8965,-1.8525,-1.9043,-1.9248,-1.916,-1.8799,-1.8757,-4.9409,-5.0818,-5.1442,-5.0008,-4.8759,-4.6792,-4.2573,0.0,0.0,0.0,-3.3044,-3.2862,-3.3272,0.0,0.0,0.0,0.0,0.0,0.0,0.0,0.0,0.0,0.0,0.0,0.0,0.0,0.0,0.0,0.0,-5.3587,-5.4453,-5.3241,-5.1952,-5.0741,-5.0313,-4.9733,-4.8947,-4.8527,-4.7914,-4.7131,-4.592,-4.5333,-4.5278,-4.4048,-4.3497,-4.3444,-4.2619,0.0,-4.2203,-4.1331,-4.0814,-4.0546,-4.0546,-4.0336,-4.007,-4.007,-3.9868,-3.9512,-3.9123,-3.8521,-3.7703,-3.6201,-3.4573,-3.3237,-3.3548,-3.2896,-3.2183,-3.2841,-3.2557,-3.2123,-3.2437,-3.2018,-3.1482,-3.1482,-3.1161,-3.1027,-3.1687,-3.1247,-3.0337,-2.9177,-2.8879,-2.8453,-2.717,-2.6653,-2.6553,-2.6841,-2.671,-2.6634,-2.6854,-2.664,-2.6533,-2.6533,-2.6094,-2.5358,-2.4337,-2.3368,-2.2339,-2.1375,-2.0857,-2.0469,-2.0264,-2.0029,-1.9717,-1.9307,-1.9502,-1.9404,-1.8975,-1.9639,-1.9834,-1.96,-1.918,-1.9209,-5.052,-5.2031,-5.2704,-5.1276,-4.9663,-4.7123,-4.2174,-3.8957,0.0,0.0,-3.2051,-3.2226,-3.3223,0.0,-3.7031,0.0,0.0,0.0,0.0,0.0,0.0,0.0,0.0,0.0,0.0,0.0,0.0,0.0,0.0,0.0,-5.3914,-5.2491,-5.1356,-5.0721,-5.038,-4.9948,-4.9372,-4.8783,-4.8234,-4.7629,-4.6103,-4.5388,-4.5333,-4.4066,-4.3497,-4.3479,-4.2939,0.0,0.0,-4.2038,-4.1534,-4.1087,-4.0949,-4.0655,-4.0254,-4.0171,-4.007,-3.9969,-3.9242,-3.8988,-3.8856,-3.8068,-3.6152,-3.417,-3.4576,-3.3752,-3.2796,-3.3185,-3.2916,-3.2512,-3.2512,-3.2138,-3.1779,-3.1855,-3.1441,-3.1235,-3.2112,-3.1608,-3.087,-3.0472,-2.9731,-2.8802,-2.7511,-2.6829,-2.6653,-2.7205,-2.6917,-2.6841,-2.7394,-2.708,-2.6816,-2.6816,-2.6231,-2.5253,-2.3818,-2.3213,-2.2188,-2.0712,-2.0566,-2.0566,-2.0566,-2.0234,-2.001,-1.9912,-2.001,-1.9844,-1.9424,-2.0195,-2.0391,-2.0049,-1.9619,-1.9648,-5.0087,-5.2008,-5.3417,-5.1489,-4.9247,-4.6409,-4.2146,0.0,0.0,-3.2734,-3.1562,-3.1504,-3.3105,-3.3594,-3.4824,0.0,0.0,-4.1445,0.0,0.0,0.0,0.0,0.0,0.0,0.0,0.0,0.0,0.0,0.0,0.0,-5.2145,-5.1298,-5.0779,-5.0702,-5.0663,-5.0097,-4.8962,-4.7844,-4.6703,-4.5549,-4.4325,-4.3718,-4.3718,-4.3552,-4.3497,-4.3479,-4.2939,0.0,0.0,-4.2038,-4.1768,-4.1664,-4.1133,-4.0856,-4.078,-4.0286,-4.007,-3.9969,-3.9242,-3.8988,-3.8886,-3.8113,-3.6816,-3.5395,-3.4888,-3.4088,-3.329,-3.2766,-3.2557,-3.2512,-3.2512,-3.2467,-3.2572,-3.317,-3.3244,-3.3176,-3.3035,-3.2255,-3.1293,-3.0552,-2.9181,-2.7994,-2.7381,-2.6829,-2.6653,-2.7205,-2.7243,-2.7406,-2.7959,-2.7984,-2.7959,-2.7959,-2.5479,-2.3926,-2.4228,-2.2137,-2.0789,-2.0644,-2.0566,-2.0566,-2.0566,-2.0527,-2.0322,-1.9922,-2.0303,-2.0293,-1.9853,-2.0332,-2.0547,-2.0498,-2.0059,-2.0088,-5.051,-5.2882,-5.4252,-5.2998,-5.0074,-4.6674,-4.3437,0.0,-3.4922,-3.3906,-3.3008,-3.2773,-3.3965,-3.4609,-3.5586,0.0,0.0,0.0,0.0,0.0,0.0,0.0,0.0,0.0,0.0,0.0,0.0,0.0,0.0,0.0,-5.0414,-5.0587,-5.0702,-5.0702,-5.0183,-4.9583,-4.8853,-4.7636,-4.6694,-4.5953,-4.477,-4.4213,-4.4213,-4.3718,-4.3497,-4.3497,-4.325,0.0,0.0,-4.2903,-4.2619,-4.2302,-4.1664,-4.1223,-4.0827,-4.0286,-4.007,-3.9969,-3.9242,-3.8988,-3.887,-3.8142,-3.7186,-3.6178,-3.549,-3.4478,-3.345,-3.3171,-3.2826,-3.2512,-3.2512,-3.2512,-3.2587,-3.2841,-3.3215,-3.3602,-3.3864,-3.3186,-3.2422,-3.2136,-3.0707,-2.9261,-2.875,-2.7997,-2.7645,-2.8185,-2.7996,-2.7971,-2.8536,-2.831,-2.8235,-2.8561,-2.6919,-2.5382,-2.4382,-2.3134,-2.1821,-2.0634,-2.0566,-2.0566,-2.0566,-2.0566,-2.0478,-2.0312,-2.0478,-2.0478,-2.0303,-2.0478,-2.0566,-2.0557,-2.0117,-1.9832,-4.9633,-5.2375,-5.4009,-5.3228,-5.0103,-4.6465,0.0,0.0,-3.4629,-3.4375,-3.3633,-3.3379,-3.4492,-3.5195,-3.5898,0.0,0.0,-3.7422,0.0,0.0,0.0,0.0,0.0,0.0,0.0,0.0,0.0,0.0,0.0,0.0,-4.9452,-4.9971,-5.0202,-4.9933,-4.9586,-4.9123,-4.8586,-4.7409,-4.6609,-4.6221,-4.5064,-4.4462,-4.4323,-4.3754,-4.3497,-4.3497,-4.3497,0.0,0.0,-4.3497,-4.3286,-4.2902,-4.2284,-4.1725,-4.1087,-4.0546,-4.0254,-3.9935,-3.9005,-3.8667,-3.8514,-3.755,-3.6846,-3.6224,-3.5597,-3.4627,-3.3702,-3.3332,-3.275,-3.2317,-3.2706,-3.2811,-3.2901,-3.3305,-3.3754,-3.4218,-3.4681,-3.4017,-3.3327,-3.3082,-3.1568,-3.0158,-2.9438,-2.8622,-2.8298,-2.885,-2.8599,-2.8549,-2.9114,-2.885,-2.86,-2.8645,-2.7854,-2.6612,-2.4921,-2.3711,-2.2405,-2.085,-2.0762,-2.0703,-2.0566,-2.0566,-2.0566,-2.0566,-2.0566,-2.0566,-2.0566,-2.0566,-2.0566,-2.0557,-1.9937,-1.9242,-4.6804,-4.9831,-5.2322,-5.1444,-4.8753,-4.543,0.0,0.0,-3.4453,-3.3594,-3.2773,-3.2715,-3.4394,-3.4707,-3.5,-3.5879,0.0,0.0,0.0,0.0,0.0,0.0,0.0,0.0,0.0,0.0,0.0,0.0,0.0,0.0,-4.9452,-4.9413,-4.9029,-4.8144,-4.8952,-4.899,-4.8125,-4.6908,-4.614,-4.5787,-4.4568,-4.3836,-4.3497,-4.3497,-4.3497,0.0,0.0,0.0,0.0,-4.3497,-4.3497,-4.3444,-4.2902,-4.2302,-4.1707,-4.1133,-4.0577,-3.9868,-3.8413,-3.7922,-3.7669,-3.6146,-3.5594,-3.5487,-3.4816,-3.4542,-3.4218,-3.2974,-3.2079,-3.1839,-3.3155,-3.3484,-3.3814,-3.516,-3.5474,-3.5489,-3.5489,-3.4677,-3.3739,-3.2806,-3.1429,-3.0072,-2.9063,-2.8461,-2.8298,-2.885,-2.8925,-2.9126,-2.9704,-2.9779,-2.9353,-2.8255,-2.7608,-2.6898,-2.587,-2.3381,-2.1689,-2.125,-2.123,-2.1025,-2.0586,-2.0566,-2.0566,-2.0566,-2.0566,-2.0566,-2.0566,-2.0566,-2.0566,-2.0566,-1.952,-1.839,-4.3078,-4.5064,-4.6167,-4.5377,-4.3533,-4.1328,-3.9043,0.0,-3.373,-3.3457,-3.3203,-3.3359,-3.4492,-3.4707,-3.498,-3.5859,0.0,0.0,0.0,0.0,0.0,0.0,0.0,0.0,0.0,0.0,0.0,0.0,0.0,0.0,-4.7805,-4.8253,-4.8394,-4.8105,-4.7836,-4.7567,-4.7278,-4.6086,-4.5433,-4.5323,-4.443,-4.3955,-4.3818,-4.3579,-4.3497,0.0,0.0,0.0,0.0,-4.3497,-4.3497,-4.3444,-4.2902,-4.2342,-4.1725,-4.1133,-4.0577,-3.9868,-3.8413,-3.7905,-3.7652,-3.6113,-3.5622,-3.5577,-3.5362,-3.4954,-3.4282,-3.2966,-3.2399,-3.2302,-3.2721,-3.3499,-3.4277,-3.4696,-3.516,-3.5504,-3.5504,-3.4691,-3.3876,-3.3602,-3.2171,-3.0842,-3.0559,-2.9782,-2.9315,-2.949,-2.9515,-2.9578,-2.9767,-2.9792,-2.9365,-2.8255,-2.7301,-2.6183,-2.4783,-2.3533,-2.2504,-2.1762,-2.168,-2.1484,-2.1045,-2.1309,-2.1182,-2.0576,-2.0869,-2.0869,-2.0566,-2.0566,-2.041,-2.0051,-1.8585,-1.738,0.0,-4.1222,-4.2005,-4.1562,-4.0176,0.0,0.0,0.0,-3.3027,-3.334,-3.3164,-3.3203,-3.4043,-3.4219,-3.4492,-3.5371,0.0,0.0,0.0,0.0,0.0,0.0,0.0,0.0,0.0,0.0,0.0,0.0,0.0,0.0,-4.7041,-4.7445,-4.7521,-4.7163,-4.699,-4.674,-4.6413,-4.5669,-4.5222,-4.5096,-4.4638,-4.429,-4.3986,-4.3772,-4.3631,0.0,0.0,0.0,0.0,-4.3497,-4.3497,-4.3463,-4.3124,-4.2637,-4.2044,-4.1156,-4.0458,-3.9754,-3.8068,-3.7483,-3.728,-3.6028,-3.5622,-3.5622,-3.5622,-3.4958,-3.3987,-3.2895,-3.2536,-3.2572,-3.2826,-3.3679,-3.4547,-3.4801,-3.519,-3.5504,-3.5504,-3.4986,-3.4461,-3.4095,-3.2749,-3.1609,-3.1241,-3.0419,-2.9792,-2.9792,-2.9792,-2.9792,-2.9792,-2.9443,-2.87,-2.7614,-2.6543,-2.5271,-2.3906,-2.3461,-2.2905,-2.2212,-2.2129,-2.1855,-2.126,-2.165,-2.1553,-2.083,-2.1094,-2.1094,-2.082,-2.0644,-2.0265,-1.9534,-1.7873,-1.6722,0.0,0.0,0.0,0.0,0.0,0.0,0.0,0.0,0.0,0.0,0.0,-3.2441,-3.3242,-3.3359,0.0,0.0,0.0,0.0,0.0,0.0,0.0,0.0,0.0,0.0,0.0,0.0,0.0,0.0,0.0,0.0,-4.6985,-4.6919,-4.651,-4.5642,-4.6394,-4.6413,-4.5605,-4.5586,-4.5438,-4.5137,-4.5096,-4.4738,-4.4087,-4.4058,-4.3868,0.0,0.0,0.0,0.0,-4.3332,-4.3314,-4.3314,-4.3314,-4.2996,-4.2364,-4.1083,-4.0217,-3.9427,-3.7478,-3.6772,-3.6654,-3.5876,-3.5656,-3.5707,-3.5707,-3.4738,-3.3547,-3.2904,-3.271,-3.2796,-3.3395,-3.4053,-3.4711,-3.5355,-3.5504,-3.5504,-3.5504,-3.5504,-3.5213,-3.4177,-3.3241,-3.2321,-3.1389,-3.0419,-2.9792,-2.9792,-2.9792,-2.9792,-2.9792,-2.8858,-2.7775,-2.6637,-2.5546,-2.4447,-2.3173,-2.3096,-2.293,-2.2539,-2.251,-2.2129,-2.1269,-2.1709,-2.1738,-2.125,-2.123,-2.1221,-2.1182,-2.0762,-2.007,-1.907,-1.7673,-1.6458,0.0,0.0,0.0,0.0,0.0,0.0,0.0,0.0,0.0,0.0,0.0,0.0,0.0,0.0,0.0,0.0,0.0,0.0,0.0,0.0,0.0,0.0,0.0,0.0,0.0,0.0,0.0,0.0,0.0,-4.656,-4.6173,-4.6111,-4.5926,-4.5622,-4.5797,-4.5797,-4.5586,-4.5586,-4.5568,-4.5476,-4.5222,-4.5011,-4.483,-4.458,-4.4252,0.0,0.0,0.0,-4.2525,-4.1919,-4.1662,-4.1662,-4.1662,-4.1302,-4.0687,-4.0028,-3.9385,-3.8701,-3.7274,-3.6772,-3.6654,-3.5876,-3.6028,-3.6502,-3.6502,-3.5518,-3.4349,-3.4186,-3.4091,-3.4056,-3.4239,-3.4756,-3.5295,-3.5474,-3.5504,-3.5504,-3.5504,-3.5504,-3.5213,-3.4177,-3.3241,-3.2321,-3.1389,-3.0419,-2.9792,-2.9792,-2.9792,-2.9792,-2.9792,-2.9534,-2.8621,-2.673,-2.6224,-2.5166,-2.2847,-2.2656,-2.2617,-2.2519,-2.251,-2.2129,-2.1269,-2.2266,-2.2344,-2.126,-2.123,-2.1064,-2.0723,-2.0615,-2.0313,-1.9678,-1.887,-1.7458,-3.0451,-3.1169,-3.1802,0.0,0.0,0.0,0.0,0.0,0.0,0.0,0.0,0.0,0.0,0.0,0.0,0.0,0.0,0.0,0.0,0.0,0.0,0.0,0.0,0.0,0.0,0.0,0.0,0.0,0.0,-4.612,-4.5995,-4.5955,-4.5859,-4.5692,-4.5692,-4.5665,-4.5586,-4.5586,-4.5586,-4.5586,-4.5419,-4.5243,-4.5077,-4.4497,-4.3943,0.0,0.0,0.0,-4.1735,-4.1295,-4.1111,-4.1111,-4.1111,-4.0909,-4.0472,-3.9414,-3.88,-3.8283,-3.6768,-3.6248,-3.618,-3.5757,-3.591,-3.6248,-3.6248,-3.5698,-3.5063,-3.5094,-3.4841,-3.4506,-3.4527,-3.4996,-3.5504,-3.5504,-3.5504,-3.5504,-3.5504,-3.5504,-3.5359,-3.4758,-3.3533,-3.2464,-3.196,-3.0709,-2.9792,-2.9792,-2.9792,-2.9792,-2.9792,-2.9365,-2.853,-2.7371,-2.6177,-2.4887,-2.3418,-2.2472,-2.2012,-2.2207,-2.2227,-2.1934,-2.126,-2.209,-2.2148,-2.125,-2.123,-2.1016,-2.0566,-2.0566,-2.0439,-2.0215,-1.8737,-1.7381,-3.0552,-3.1367,-3.2094,-3.1841,0.0,0.0,0.0,0.0,0.0,0.0,0.0,0.0,0.0,0.0,0.0,0.0,0.0,0.0,0.0,0.0,0.0,0.0,0.0,0.0,0.0,0.0,0.0,0.0,0.0,-4.6246,-4.6113,-4.6108,-4.6008,-4.5828,-4.5809,-4.5747,-4.5635,-4.5603,-4.5586,-4.5586,-4.5586,-4.5381,-4.4951,-4.4225,-4.3436,-4.266,0.0,0.0,-4.0928,-4.0799,-4.0744,-4.0744,-4.0744,-4.0744,-4.0537,-3.8848,-3.822,-3.7958,-3.619,-3.5622,-3.5622,-3.5622,-3.569,-3.5791,-3.5791,-3.5791,-3.5803,-3.6003,-3.5387,-3.4682,-3.4651,-3.5045,-3.5504,-3.5504,-3.5504,-3.5504,-3.5504,-3.5504,-3.5504,-3.5504,-3.3905,-3.2593,-3.2593,-3.1057,-2.9792,-2.9792,-2.9792,-2.9792,-2.9792,-2.8949,-2.8267,-2.8096,-2.6161,-2.4591,-2.4198,-2.2565,-2.1617,-2.1768,-2.1846,-2.1748,-2.1445,-2.166,-2.1611,-2.124,-2.123,-2.1016,-2.0566,-2.0566,-2.0566,-2.0557,-1.8275,-1.7136,-3.1295,-3.2646,-3.3342,-3.1252,0.0,0.0,0.0,0.0,0.0,0.0,0.0,0.0,0.0,0.0,0.0,0.0,0.0,0.0,0.0,0.0,0.0,0.0,0.0,0.0,0.0,0.0,0.0,0.0,0.0,-4.6246,-4.6113,-4.6108,-4.6033,-4.59,-4.5832,-4.5783,-4.5775,-4.5668,-4.5586,-4.5586,-4.5586,-4.5184,-4.4418,-4.4283,-4.3479,-4.2165,0.0,-4.0662,-4.0029,-3.935,-3.9074,-3.9074,-3.9074,-3.9074,-3.8944,-3.7792,-3.7405,-3.7217,-3.6002,-3.5622,-3.5622,-3.5622,-3.6062,-3.6603,-3.6603,-3.6603,-3.675,-3.7294,-3.6486,-3.5442,-3.5393,-3.5394,-3.5504,-3.5504,-3.5504,-3.5504,-3.5504,-3.5504,-3.5504,-3.5504,-3.3905,-3.2593,-3.2593,-3.1057,-2.9792,-2.9792,-2.9792,-2.9792,-2.9792,-2.9624,-2.9197,-2.8176,-2.7773,-2.6575,-2.4395,-2.3541,-2.2644,-2.1348,-2.168,-2.2012,-2.2305,-2.168,-2.1309,-2.123,-2.123,-2.1016,-2.0566,-2.0566,-2.0566,-2.0566,-1.9289,-1.8031,-3.0707,-3.1476,-3.1847,-3.1287,0.0,0.0,0.0,0.0,0.0,0.0,0.0,0.0,0.0,0.0,0.0,0.0,0.0,0.0,0.0,0.0,0.0,0.0,0.0,0.0,0.0,0.0,0.0,0.0,0.0,0.0,-4.5538,-4.5518,-4.5246,-4.4676,-4.4628,-4.454,-4.4402,-4.4327,-4.4508,-4.4893,-4.4451,-4.4047,-4.3643,-4.3162,-4.2412,-4.1397,0.0,-3.9593,-3.856,-3.8193,-3.8046,-3.8046,-3.8046,-3.8322,-3.8596,-3.756,-3.6825,-3.6232,-3.5783,-3.5622,-3.5622,-3.5622,-3.5859,-3.6146,-3.6146,-3.6146,-3.632,-3.7049,-3.6476,-3.5705,-3.6007,-3.5778,-3.5504,-3.5504,-3.5504,-3.5504,-3.5504,-3.5504,-3.5504,-3.5504,-3.4341,-3.3171,-3.2678,-3.1476,-3.0419,-2.9869,-2.9792,-2.9792,-2.9792,-2.9792,-2.9624,-2.9106,-2.8264,-2.7258,-2.6064,-2.4252,-2.2553,-2.0977,-2.1064,-2.126,-2.1455,-2.1084,-2.0869,-2.0869,-2.0869,-2.0771,-2.0566,-2.0566,-2.0566,-2.0557,-1.921,-1.8092,-2.9983,-3.0275,-3.0505,0.0,0.0,-3.5039,-3.5139,0.0,0.0,0.0,0.0,0.0,0.0,0.0,0.0,0.0,0.0,0.0,0.0,0.0,0.0,0.0,0.0,0.0,0.0,0.0,0.0,0.0,0.0,0.0,-4.4726,-4.4707,-4.4372,-4.3645,-4.3582,-4.3447,-4.3249,-4.2808,-4.3067,-4.4008,-4.3393,-4.2989,-4.2777,-4.2104,-4.1399,-4.0662,-3.9721,-3.8665,-3.7569,-3.7334,-3.7202,-3.7202,-3.7202,-3.7619,-3.8109,-3.7238,-3.6429,-3.5749,-3.5464,-3.547,-3.5622,-3.5622,-3.5622,-3.5622,-3.5622,-3.5622,-3.5774,-3.6552,-3.634,-3.5998,-3.6476,-3.6167,-3.5733,-3.5569,-3.5504,-3.5504,-3.5504,-3.5504,-3.5504,-3.5504,-3.4476,-3.3449,-3.2749,-3.1609,-3.062,-2.9934,-2.9792,-2.9792,-2.9792,-2.9792,-2.9792,-2.9792,-2.875,-2.7741,-2.7014,-2.4559,-2.2356,-2.0673,-2.0566,-2.0605,-2.0713,-2.0625,-2.0566,-2.0566,-2.0566,-2.0566,-2.0566,-2.0566,-2.0479,-2.0157,-1.8719,-1.7627,-2.9799,-3.0383,-3.0951,-3.1044,0.0,0.0,-3.6301,-3.625,0.0,0.0,0.0,0.0,0.0,0.0,0.0,0.0,0.0,0.0,0.0,0.0,0.0,0.0,0.0,0.0,0.0,0.0,0.0,0.0,0.0,0.0,-4.3808,-4.3789,-4.3769,-4.3691,-4.3504,-4.3408,-4.3391,-4.1609,-4.1524,-4.3181,-4.3124,-4.2681,-4.1893,-4.1835,-4.1201,-4.0099,-3.8958,-3.8268,-3.778,-3.6795,-3.6376,-3.6376,-3.6376,-3.6577,-3.6777,-3.6275,-3.6194,-3.6163,-3.4967,-3.503,-3.5622,-3.5622,-3.5622,-3.5622,-3.5622,-3.5622,-3.5774,-3.6552,-3.6702,-3.662,-3.6678,-3.6613,-3.6337,-3.5668,-3.5504,-3.5504,-3.5504,-3.5504,-3.5504,-3.5504,-3.3973,-3.2664,-3.2593,-3.1132,-2.9869,-2.9792,-2.9792,-2.9792,-2.9792,-2.9792,-2.9792,-2.9792,-2.9677,-2.8497,-2.5618,-2.4198,-2.2608,-2.0693,-2.0566,-2.0752,-2.1172,-2.0791,-2.0566,-2.0566,-2.0566,-2.0566,-2.0566,-2.0566,-2.0089,-1.9116,-1.7963,-1.6822,-2.8774,-2.9492,-3.0171,-3.0827,0.0,0.0,0.0,0.0,0.0,0.0,0.0,0.0,0.0,0.0,0.0,0.0,0.0,0.0,0.0,0.0,0.0,0.0,0.0,0.0,0.0,0.0,0.0,0.0,0.0,0.0,-4.293,-4.2422,-4.1894,-4.1348,-4.0652,-4.0273,-4.0217,-3.9448,-3.9367,-3.9931,-3.9931,-3.9758,-3.945,-3.945,-3.9073,-3.8461,-3.7842,-3.7141,-3.6354,-3.5726,-3.5495,-3.5569,-3.6083,-3.6455,-3.662,-3.6132,-3.6141,-3.6298,-3.5443,-3.5385,-3.5622,-3.5622,-3.5622,-3.5622,-3.5622,-3.5622,-3.5667,-3.6016,-3.6092,-3.6186,-3.6612,-3.6625,-3.6384,-3.5668,-3.5504,-3.5504,-3.5504,-3.5504,-3.5504,-3.5504,-3.4394,-3.331,-3.2678,-3.1549,-3.0482,-2.9869,-2.9792,-2.9792,-2.9792,-2.9792,-2.9792,-2.9792,-2.9197,-2.7901,-2.5758,-2.4573,-2.3072,-2.1115,-2.0723,-2.0644,-2.081,-2.0654,-2.0566,-2.0566,-2.0566,-2.0566,-2.0566,-1.9923,-1.9303,-1.8665,-1.7463,-1.6317,-2.7811,-2.8389,-2.9126,0.0,0.0,0.0,0.0,0.0,0.0,0.0,0.0,0.0,0.0,0.0,0.0,0.0,0.0,0.0,0.0,0.0,0.0,0.0,0.0,0.0,0.0,0.0,0.0,0.0,0.0,0.0,0.0,-4.0684,-4.0117,-3.9512,-3.85,-3.7966,-3.789,-3.7269,-3.7042,-3.7219,-3.693,-3.7219,-3.8007,-3.8007,-3.7874,-3.7634,-3.6992,-3.6283,-3.5567,-3.4895,-3.4633,-3.4724,-3.5569,-3.6163,-3.6439,-3.5544,-3.5797,-3.651,-3.5309,-3.5233,-3.5622,-3.5622,-3.5622,-3.5622,-3.5622,-3.5622,-3.5571,-3.5396,-3.5498,-3.5693,-3.5712,-3.5962,-3.6184,-3.5623,-3.5504,-3.5504,-3.5504,-3.5504,-3.5504,-3.5504,-3.4691,-3.3671,-3.2749,-3.1815,-3.0908,-2.9934,-2.9792,-2.9792,-2.9792,-2.9792,-2.9792,-2.9792,-2.8699,-2.7317,-2.5701,-2.4486,-2.2959,-2.1144,-2.0732,-2.0625,-2.0771,-2.0781,-2.0781,-2.0781,-2.0635,-2.0566,-2.0566,-1.952,-1.8671,-1.7958,-1.6896,-1.5605,-2.7053,-2.72,0.0,0.0,0.0,0.0,0.0,0.0,0.0,0.0,0.0,0.0,0.0,0.0,0.0,0.0,0.0,0.0,0.0,0.0,0.0,0.0,0.0,0.0,0.0,0.0,0.0,0.0,0.0,0.0,0.0,-3.8574,-3.8555,-3.8555,-3.76,-3.7025,-3.6962,-3.5184,-3.4681,-3.5468,-3.4603,-3.5526,-3.7988,-3.7988,-3.7988,-3.7896,-3.6502,-3.5905,-3.5767,-3.4395,-3.3807,-3.388,-3.466,-3.5532,-3.6069,-3.4339,-3.5173,-3.6829,-3.4298,-3.4387,-3.5605,-3.5622,-3.5622,-3.5622,-3.5622,-3.5577,-3.547,-3.4783,-3.5103,-3.5346,-3.3865,-3.4554,-3.5582,-3.5503,-3.5489,-3.5489,-3.5489,-3.5504,-3.5504,-3.5504,-3.4691,-3.3671,-3.2749,-3.1815,-3.0908,-2.9934,-2.9792,-2.9792,-2.9792,-2.9792,-2.9792,-2.9779,-2.8382,-2.6889,-2.5294,-2.3796,-2.2252,-2.0673,-2.0576,-2.0771,-2.1211,-2.123,-2.123,-2.123,-2.0791,-2.0566,-2.0566,-1.952,-1.8259,-1.6859,-1.6021,-1.4792,-2.6888,0.0,0.0,0.0,0.0,0.0,0.0,0.0,0.0,0.0,0.0,0.0,0.0,0.0,0.0,0.0,0.0,0.0,0.0,0.0,0.0,0.0,0.0,0.0,0.0,0.0,0.0,0.0,0.0,0.0,0.0,-3.6523,-3.5859,-3.5859,-3.4925,-3.4425,-3.4393,-3.3724,-3.3518,-3.3746,-3.3422,-3.4314,-3.6238,-3.6238,-3.6238,-3.6205,-3.5596,-3.523,-3.4992,-3.4148,-3.3807,-3.3825,-3.4064,-3.4669,-3.5235,-3.4041,-3.4429,-3.5363,-3.4463,-3.4455,-3.4912,-3.5453,-3.5622,-3.5622,-3.5622,-3.5253,-3.4736,-3.4087,-3.369,-3.341,-3.2917,-3.3123,-3.3532,-3.3995,-3.4442,-3.4786,-3.4786,-3.516,-3.5504,-3.5504,-3.4691,-3.3671,-3.2749,-3.1815,-3.0908,-2.9934,-2.9792,-2.9792,-2.9792,-2.9792,-2.9641,-2.9227,-2.8062,-2.671,-2.5194,-2.3921,-2.2549,-2.1134,-2.1328,-2.1279,-2.0781,-2.0762,-2.0762,-2.0762,-2.0635,-2.0566,-2.0566,-1.8709,-1.7464,-1.6851,-1.5072,-1.3762,-2.7126,0.0,0.0,0.0,0.0,0.0,0.0,0.0,0.0,0.0,0.0,0.0,0.0,0.0,0.0,0.0,0.0,0.0,0.0,0.0,0.0,0.0,0.0,0.0,0.0,0.0,0.0,0.0,0.0,0.0,0.0,-3.4746,-3.418,-3.418,-3.3314,-3.2831,-3.2778,-3.2316,-3.2241,-3.2522,-3.248,-3.3164,-3.4487,-3.4834,-3.4988,-3.4993,-3.507,-3.487,-3.4467,-3.4117,-3.3902,-3.3807,-3.3807,-3.4302,-3.4879,-3.3822,-3.4017,-3.4711,-3.4105,-3.3964,-3.4134,-3.459,-3.4742,-3.4742,-3.4742,-3.4443,-3.3922,-3.3047,-3.2669,-3.2438,-3.1829,-3.1913,-3.2362,-3.3275,-3.3799,-3.4158,-3.4412,-3.4607,-3.4786,-3.504,-3.4381,-3.3411,-3.2097,-3.1398,-3.0639,-2.934,-2.9126,-2.9126,-2.9126,-2.9126,-2.8988,-2.8637,-2.714,-2.5712,-2.4801,-2.3207,-2.1839,-2.0986,-2.1221,-2.1123,-2.0586,-2.0732,-2.083,-2.083,-2.0654,-2.0324,-1.9754,-1.7995,-1.6689,-1.5891,-1.4186,-1.3146,0.0,0.0,0.0,0.0,0.0,0.0,0.0,0.0,0.0,0.0,0.0,0.0,0.0,0.0,0.0,0.0,0.0,0.0,0.0,0.0,0.0,0.0,0.0,0.0,0.0,0.0,0.0,0.0,0.0,0.0,0.0,-3.3027,-3.2949,-3.2949,-3.2226,-3.1795,-3.1658,-3.095,-3.094,-3.159,-3.165,-3.2018,-3.2704,-3.3654,-3.4083,-3.4122,-3.4649,-3.4548,-3.4045,-3.4018,-3.3846,-3.364,-3.3587,-3.4027,-3.4541,-3.3477,-3.3691,-3.4323,-3.3363,-3.3139,-3.3322,-3.3389,-3.3406,-3.3406,-3.3406,-3.3364,-3.3074,-3.1866,-3.1901,-3.2009,-3.0734,-3.0881,-3.1659,-3.2856,-3.3275,-3.3574,-3.4173,-3.3873,-3.3664,-3.4262,-3.3841,-3.2819,-3.1065,-3.073,-3.0063,-2.8375,-2.8109,-2.8109,-2.8109,-2.8109,-2.8084,-2.8034,-2.589,-2.4382,-2.4262,-2.206,-2.0712,-2.0644,-2.0566,-2.0566,-2.0566,-2.0957,-2.1172,-2.1172,-2.0693,-1.9792,-1.8515,-1.7328,-1.5963,-1.4441,-1.3585,-1.2872,0.0,0.0,0.0,0.0,0.0,0.0,0.0,0.0,0.0,0.0,0.0,0.0,0.0,0.0,0.0,0.0,0.0,0.0,0.0,0.0,0.0,0.0,0.0,0.0,0.0,0.0,0.0,0.0,0.0,0.0,-3.1445,-3.0137,-2.9394,-2.9394,-2.9238,-2.9121,-2.91,-2.9535,-2.9845,0.0,-3.054,-3.0857,-3.1072,-3.2528,-3.3179,-3.3167,-3.3085,-3.2999,-3.2842,-3.2472,-3.2269,-3.2219,-3.1998,-3.2008,-3.2177,-3.2244,-3.2174,-3.2135,-3.2769,-3.2796,-3.2611,-3.322,-3.3406,-3.3406,-3.3406,-3.3031,-3.2467,-3.1725,-3.1207,-3.0758,-2.9976,-2.9894,-3.0073,-3.0357,-3.1599,-3.2766,-3.2901,-3.323,-3.3529,-3.3679,-3.3048,-3.2141,-3.0999,-3.0269,-2.9381,-2.8243,-2.8109,-2.8109,-2.8109,-2.8109,-2.7946,-2.7507,-2.6275,-2.4989,-2.3779,-2.2467,-2.1375,-2.0644,-2.0566,-2.0566,-2.0566,-2.0654,-2.0713,-2.0713,-1.9813,-1.9081,-1.8515,-1.6545,-1.5316,-1.4689,-1.3453,-1.2856,0.0,0.0,0.0,0.0,0.0,0.0,0.0,0.0,0.0,0.0,0.0,0.0,0.0,0.0,0.0,0.0,0.0,0.0,0.0,0.0,0.0,0.0,0.0,0.0,0.0,0.0,0.0,0.0,0.0,-2.9668,-2.9668,-2.8789,-2.8301,-2.8301,-2.8301,-2.8301,-2.8301,-2.8727,-2.8912,-2.8876,-2.9199,-2.9323,-2.9313,-3.1388,-3.2545,-3.2891,-3.2746,-3.2626,-3.2463,-3.2128,-3.1923,-3.1771,-3.1489,-3.1641,-3.2001,-3.2219,-3.211,-3.1956,-3.2546,-3.2317,-3.1833,-3.2222,-3.2357,-3.2357,-3.2357,-3.2118,-3.1663,-3.0771,-3.045,-3.0245,-2.935,-2.934,-2.9654,-2.9953,-3.0806,-3.1644,-3.1973,-3.2317,-3.2647,-3.2961,-3.2115,-3.0982,-3.0072,-2.8892,-2.7914,-2.7389,-2.7318,-2.7318,-2.7318,-2.7318,-2.7051,-2.6257,-2.5697,-2.4676,-2.2947,-2.2328,-2.1593,-2.0644,-2.0566,-2.0469,-2.0264,-2.0254,-2.0352,-2.0634,-1.9801,-1.8779,-1.7515,-1.619,-1.4866,-1.3575,-1.29,-1.2532,0.0,0.0,0.0,0.0,0.0,0.0,0.0,0.0,0.0,0.0,0.0,0.0,0.0,0.0,0.0,0.0,0.0,0.0,0.0,0.0,0.0,0.0,0.0,0.0,0.0,0.0,0.0,0.0,0.0,-2.8086,-2.8086,-2.793,-2.7851,-2.7851,-2.7851,-2.7851,-2.7851,-2.8008,-2.8044,-2.7986,-2.808,-2.8048,-2.7979,-3.0098,-3.1415,-3.2045,-3.2333,-3.2262,-3.1917,-3.1803,-3.1636,-3.1408,-3.1107,-3.1384,-3.2008,-3.2137,-3.205,-3.1918,-3.2183,-3.1723,-3.1021,-3.1157,-3.119,-3.119,-3.119,-3.119,-3.0975,-2.9865,-2.9868,-2.9943,-2.8895,-2.8922,-2.937,-2.9879,-3.0088,-3.0432,-3.1345,-3.1482,-3.1631,-3.2243,-3.1203,-2.995,-2.8939,-2.7525,-2.6506,-2.6382,-2.6239,-2.6176,-2.6176,-2.6176,-2.589,-2.5035,-2.4743,-2.391,-2.2286,-2.191,-2.1451,-2.0634,-2.0566,-2.041,-2.0049,-1.9951,-2.0088,-2.0449,-1.9868,-1.8507,-1.6514,-1.584,-1.4487,-1.2519,-1.2378,-1.2305,0.0,0.0,0.0,0.0,0.0,0.0,0.0,0.0,0.0,0.0,0.0,0.0,0.0,0.0,0.0,0.0,0.0,0.0,0.0,0.0,0.0,0.0,0.0,0.0,0.0,0.0,0.0,0.0,-2.7676,-2.7168,-2.7168,-2.6465,-2.6055,-2.6055,-2.6055,-2.6055,-2.6055,-2.6797,-2.7168,-2.7167,-2.7852,-2.8126,-2.8006,-2.8335,-2.8512,-2.864,-3.0102,-3.0302,-2.9582,-2.9899,-2.9999,-2.9945,-2.9477,-2.9402,-2.9562,-3.0265,-3.0089,-2.9655,-3.0999,-3.0942,-3.0362,-3.0987,-3.119,-3.119,-3.119,-3.119,-3.1055,-3.0393,-2.9886,-2.9369,-2.8698,-2.8206,-2.791,-2.7949,-2.8412,-2.934,-3.115,-3.1482,-3.1497,-3.1644,-3.0895,-2.9766,-2.8182,-2.7314,-2.6609,-2.5845,-2.5322,-2.5046,-2.5046,-2.5046,-2.4968,-2.4838,-2.3767,-2.2887,-2.2661,-2.1518,-2.0712,-2.0644,-2.0566,-2.0537,-2.0478,-2.0117,-1.9941,-2.0,-1.8667,-1.7732,-1.7108,-1.529,-1.4067,-1.3455,-1.2666,-1.2305,0.0,0.0,0.0,0.0,0.0,0.0,0.0,0.0,0.0,0.0,0.0,0.0,0.0,0.0,0.0,0.0,0.0,0.0,0.0,0.0,0.0,0.0,0.0,0.0,0.0,0.0,0.0,0.0,-2.6484,-2.6269,-2.6269,-2.5918,-2.5703,-2.5703,-2.5703,-2.5703,-2.5703,-2.6074,-2.6249,-2.6223,-2.6564,-2.6665,-2.6568,-2.7044,-2.7507,-2.7967,-2.9159,-2.9448,-2.9118,-2.952,-2.9696,-2.9661,-2.9185,-2.9292,-2.9732,-3.0081,-3.0122,-3.0076,-3.0543,-3.026,-2.9862,-3.0404,-3.0294,-3.0108,-3.0937,-3.0903,-3.0494,-2.9966,-2.9585,-2.918,-2.8222,-2.781,-2.7664,-2.8053,-2.8382,-2.8936,-3.0178,-3.0447,-3.0425,-3.0294,-2.9676,-2.8739,-2.7506,-2.6401,-2.5601,-2.5224,-2.4971,-2.482,-2.482,-2.482,-2.4601,-2.4042,-2.3502,-2.273,-2.1609,-2.1021,-2.0505,-1.9919,-2.0068,-2.0098,-1.9853,-1.9668,-1.9443,-1.9209,-1.8499,-1.7642,-1.6439,-1.5284,-1.4099,-1.2879,-1.2519,-1.2305,0.0,0.0,0.0,0.0,0.0,0.0,0.0,0.0,0.0,0.0,0.0,0.0,0.0,0.0,0.0,0.0,0.0,0.0,0.0,0.0,0.0,0.0,0.0,0.0,0.0,0.0,0.0,0.0,-2.5703,-2.5703,-2.5703,-2.5703,-2.5703,-2.5703,-2.5703,-2.5703,-2.5703,-2.5703,-2.5662,-2.5631,-2.5631,-2.5561,-2.5479,-2.6107,-2.6718,-2.7325,-2.8354,-2.8659,-2.8503,-2.8894,-2.9187,-2.9303,-2.8648,-2.9017,-2.9879,-2.9677,-2.9842,-3.0178,-2.9965,-2.9586,-2.9282,-2.9697,-2.9448,-2.9228,-3.0531,-3.0548,-3.009,-2.9927,-2.9629,-2.918,-2.8304,-2.7845,-2.7745,-2.8218,-2.8338,-2.8562,-2.94,-2.9579,-2.9481,-2.9175,-2.8649,-2.7917,-2.6894,-2.5689,-2.4836,-2.4607,-2.4494,-2.4393,-2.4393,-2.4393,-2.3986,-2.3031,-2.2952,-2.2207,-2.0565,-2.0409,-2.0135,-1.936,-1.958,-1.9609,-1.9297,-1.918,-1.8965,-1.8643,-1.8535,-1.7666,-1.5986,-1.543,-1.4307,-1.2666,-1.2445,-1.2305,0.0,0.0,0.0,0.0,0.0,0.0,0.0,0.0,0.0,0.0,0.0,0.0,0.0,0.0,0.0,0.0,0.0,0.0,0.0,0.0,0.0,0.0,0.0,0.0,0.0,0.0,0.0,0.0,-2.5703,-2.5703,-2.5703,-2.5703,-2.5703,-2.5703,-2.5703,-2.5703,-2.5703,-2.5703,-2.5703,-2.5683,-2.5683,-2.566,-2.5595,-2.557,-2.5543,-2.5631,-2.7258,-2.7486,-2.6754,-2.7163,-2.7773,-2.8344,-2.7169,-2.7695,-2.898,-2.8209,-2.8166,-2.8576,-2.8952,-2.8798,-2.8506,-2.8915,-2.9008,-2.9127,-2.9922,-3.0142,-3.026,-3.0909,-3.0293,-2.9406,-2.9316,-2.8448,-2.7625,-2.767,-2.7619,-2.803,-2.9295,-2.9579,-2.9347,-2.8623,-2.8439,-2.7924,-2.6404,-2.5606,-2.4936,-2.4154,-2.3577,-2.3165,-2.3165,-2.3165,-2.291,-2.2085,-2.1594,-2.094,-2.0012,-1.9596,-1.936,-1.9287,-1.9307,-1.9307,-1.9287,-1.8887,-1.8592,-1.8562,-1.8242,-1.7539,-1.6594,-1.5658,-1.4665,-1.36,-1.2732,-1.2305,0.0,0.0,0.0,0.0,0.0,0.0,0.0,0.0,0.0,0.0,0.0,0.0,0.0,0.0,0.0,0.0,0.0,0.0,0.0,0.0,0.0,0.0,0.0,0.0,0.0,0.0,0.0,0.0,0.0,-2.5703,-2.5703,-2.5176,-2.5117,-2.5684,-2.5156,-2.5137,-2.5684,-2.5703,-2.5703,-2.5703,-2.5703,-2.5661,-2.5601,-2.5539,-2.5451,-2.5425,-2.5986,-2.637,-2.6638,-2.7159,-2.7502,-2.7587,-2.7009,-2.7385,-2.8191,-2.7897,-2.8215,-2.8761,-2.8666,-2.8372,-2.815,-2.8489,-2.8135,-2.774,-2.9008,-2.9042,-2.8817,-2.9688,-2.9009,-2.8168,-2.8683,-2.79,-2.7051,-2.752,-2.7625,-2.7745,-2.8188,-2.8637,-2.8708,-2.7943,-2.7413,-2.6773,-2.5728,-2.4593,-2.3764,-2.3439,-2.3263,-2.3078,-2.3078,-2.3078,-2.3005,-2.2702,-2.1579,-2.0718,-2.0391,-1.9165,-1.8467,-1.8467,-1.8721,-1.8867,-1.8867,-1.8721,-1.8562,-1.8562,-1.8223,-1.7579,-1.6636,-1.5649,-1.4665,-1.3673,-1.2732,-1.2305,0.0,0.0,0.0,0.0,0.0,0.0,0.0,0.0,0.0,0.0,0.0,0.0,0.0,0.0,0.0,0.0,0.0,0.0,0.0,0.0,0.0,0.0,0.0,0.0,0.0,0.0,0.0,0.0,0.0,0.0,-2.5273,-2.4707,-2.4531,-2.4824,-2.4824,-2.4961,-2.5254,-2.5547,-2.5683,-2.5661,-2.5661,-2.5633,-2.5561,-2.5508,-2.5447,-2.5406,-2.533,-2.563,-2.6187,-2.6529,-2.6707,-2.6758,-2.628,-2.68,-2.7769,-2.7493,-2.8081,-2.8929,-2.8412,-2.8075,-2.7882,-2.7829,-2.7316,-2.6928,-2.8213,-2.823,-2.8007,-2.8882,-2.8378,-2.7644,-2.8021,-2.7332,-2.6752,-2.746,-2.7625,-2.7625,-2.7625,-2.7934,-2.7973,-2.6966,-2.64,-2.5764,-2.4715,-2.3548,-2.2862,-2.2862,-2.2698,-2.2648,-2.2836,-2.2862,-2.2805,-2.2677,-2.1416,-2.0462,-2.0204,-1.8844,-1.8008,-1.8008,-1.8271,-1.8428,-1.8428,-1.8428,-1.8279,-1.791,-1.7643,-1.707,-1.6149,-1.5517,-1.4522,-1.3244,-1.2592,-1.2305,0.0,0.0,0.0,0.0,0.0,0.0,0.0,0.0,0.0,0.0,0.0,0.0,0.0,0.0,0.0,0.0,0.0,0.0,0.0,0.0,0.0,0.0,0.0,0.0,0.0,0.0,0.0,0.0,-2.5703,-2.5312,-2.4453,-2.4375,-2.3984,-2.3125,-2.4766,-2.5273,-2.4433,-2.5273,-2.5661,-2.5601,-2.5601,-2.5561,-2.5508,-2.5434,-2.5394,-2.5406,-2.533,-2.5303,-2.5274,-2.5088,-2.5392,-2.5875,-2.4893,-2.5838,-2.7622,-2.6851,-2.7585,-2.8868,-2.8139,-2.788,-2.7783,-2.6937,-2.6708,-2.6826,-2.7502,-2.7739,-2.7943,-2.8738,-2.8519,-2.7912,-2.7387,-2.6931,-2.6722,-2.7415,-2.758,-2.7595,-2.7565,-2.758,-2.7159,-2.5673,-2.5398,-2.4881,-2.3339,-2.2661,-2.2297,-2.2284,-2.1832,-2.1681,-2.2221,-2.2297,-2.2216,-2.193,-2.1101,-2.0268,-1.9365,-1.8529,-1.8008,-1.8008,-1.8008,-1.8008,-1.794,-1.793,-1.7491,-1.6567,-1.654,-1.6044,-1.5147,-1.5155,-1.4155,-1.2365,-1.2278,-1.2278,-2.419,0.0,0.0,0.0,0.0,0.0,0.0,0.0,0.0,0.0,0.0,0.0,0.0,0.0,0.0,0.0,0.0,0.0,0.0,0.0,0.0,0.0,0.0,0.0,0.0,0.0,0.0,0.0,-2.5703,-2.5312,-2.4453,-2.3848,-2.3398,-2.3105,-2.418,-2.492,-2.5262,-2.5515,-2.5598,-2.5535,-2.5535,-2.5526,-2.5508,-2.5428,-2.5406,-2.5406,-2.533,-2.5303,-2.5303,-2.5253,-2.5182,-2.511,-2.4825,-2.5259,-2.6046,-2.5805,-2.6741,-2.805,-2.7572,-2.762,-2.7723,-2.6662,-2.6495,-2.664,-2.6319,-2.659,-2.7165,-2.7926,-2.7367,-2.6498,-2.6046,-2.5893,-2.5929,-2.6108,-2.6512,-2.6737,-2.6258,-2.6527,-2.6577,-2.559,-2.5398,-2.4815,-2.2832,-2.241,-2.2184,-2.1782,-2.1594,-2.1543,-2.1694,-2.2071,-2.2055,-2.1331,-2.0882,-2.0268,-1.9365,-1.8529,-1.8008,-1.8008,-1.8008,-1.7716,-1.7001,-1.6782,-1.6278,-1.5579,-1.5189,-1.4579,-1.3808,-1.4055,-1.3761,-1.2969,-1.2115,-1.1784,0.0,0.0,0.0,0.0,0.0,0.0,-2.419,-2.419,-2.4318,0.0,0.0,0.0,0.0,0.0,0.0,0.0,0.0,0.0,0.0,0.0,0.0,0.0,0.0,0.0,0.0,-2.5703,-2.5547,-2.5195,-2.5156,-2.4629,-2.3418,-2.3574,-2.3359,-2.2617,-2.4099,-2.4952,-2.5054,-2.5392,-2.5511,-2.5465,-2.5465,-2.5447,-2.5427,-2.5387,-2.5354,-2.5354,-2.5322,-2.5303,-2.5284,-2.5214,-2.5024,-2.479,-2.4716,-2.4962,-2.5403,-2.5403,-2.6209,-2.7207,-2.6675,-2.6658,-2.6735,-2.5819,-2.5848,-2.6167,-2.5744,-2.6116,-2.6793,-2.7232,-2.6543,-2.5627,-2.5425,-2.5287,-2.527,-2.554,-2.5899,-2.6078,-2.5689,-2.5914,-2.5884,-2.485,-2.4652,-2.4096,-2.2293,-2.1782,-2.1518,-2.1192,-2.0941,-2.0878,-2.1117,-2.1324,-2.1314,-2.1045,-2.0414,-1.9803,-1.9091,-1.8248,-1.7676,-1.749,-1.712,-1.6702,-1.6138,-1.5646,-1.5026,-1.4234,-1.3902,-1.3328,-1.2505,-1.3112,-1.3105,-1.2498,-1.1778,-1.1516,0.0,0.0,0.0,0.0,0.0,0.0,-2.419,-2.419,-2.419,0.0,0.0,0.0,0.0,0.0,0.0,0.0,0.0,0.0,0.0,0.0,0.0,0.0,0.0,0.0,-2.5683,-2.5703,-2.5332,-2.4473,-2.4316,-2.3652,-2.2246,-2.3496,-2.3613,-2.2227,-2.4307,-2.513,-2.4442,-2.5137,-2.5465,-2.5391,-2.5391,-2.5363,-2.5303,-2.5303,-2.5303,-2.5303,-2.5303,-2.5303,-2.5274,-2.5065,-2.4917,-2.4775,-2.4575,-2.4801,-2.5274,-2.5274,-2.5768,-2.6362,-2.5611,-2.5437,-2.5359,-2.4611,-2.4881,-2.5456,-2.5389,-2.5879,-2.6454,-2.6472,-2.5812,-2.5114,-2.5233,-2.4876,-2.4657,-2.5255,-2.5435,-2.548,-2.5405,-2.545,-2.5073,-2.3649,-2.3506,-2.316,-2.167,-2.1046,-2.0693,-2.063,-2.0125,-1.9987,-2.0555,-2.0341,-2.0263,-2.0665,-1.9742,-1.8919,-1.8437,-1.774,-1.7148,-1.6758,-1.6055,-1.5514,-1.5321,-1.4629,-1.3719,-1.2774,-1.2676,-1.2236,-1.1329,-1.2236,-1.2251,-1.1376,-1.1349,-1.1349,0.0,0.0,0.0,0.0,0.0,0.0,-2.419,-2.419,-2.419,0.0,0.0,0.0,0.0,0.0,0.0,0.0,0.0,0.0,0.0,0.0,0.0,0.0,0.0,0.0,-2.5629,-2.5662,-2.5332,-2.4473,-2.375,-2.3516,-2.3887,-2.3555,-2.3535,-2.3906,-2.4326,-2.4784,-2.5254,-2.5362,-2.5391,-2.5322,-2.5322,-2.5313,-2.5303,-2.5303,-2.5303,-2.5303,-2.5303,-2.5303,-2.5293,-2.4962,-2.4814,-2.4775,-2.4575,-2.4467,-2.4428,-2.4428,-2.4942,-2.5521,-2.4801,-2.4969,-2.5297,-2.403,-2.4103,-2.4594,-2.4002,-2.4323,-2.4953,-2.5129,-2.4753,-2.436,-2.4542,-2.4204,-2.3834,-2.3969,-2.4418,-2.4672,-2.4118,-2.4418,-2.4263,-2.2407,-2.2898,-2.3024,-2.1161,-2.0794,-2.0567,-2.0037,-1.9874,-1.9849,-1.9962,-1.9848,-1.9488,-1.8884,-1.8451,-1.7916,-1.7163,-1.6919,-1.6826,-1.6738,-1.6529,-1.5863,-1.441,-1.393,-1.3071,-1.169,-1.1464,-1.1159,-1.0728,-1.1159,-1.1274,-1.1069,-1.0835,-1.0855,0.0,0.0,0.0,-2.419,0.0,0.0,0.0,-2.419,-2.419,0.0,0.0,0.0,0.0,0.0,0.0,0.0,0.0,0.0,0.0,0.0,0.0,0.0,0.0,0.0,-2.5391,-2.5559,-2.5309,-2.4453,-2.4004,-2.3749,-2.3744,-2.4135,-2.4325,-2.4293,-2.4659,-2.5046,-2.5459,-2.5383,-2.533,-2.5303,-2.5303,-2.5303,-2.5303,-2.5303,-2.5303,-2.5303,-2.5303,-2.5303,-2.5264,-2.4942,-2.4804,-2.4775,-2.4461,-2.4284,-2.419,-2.419,-2.4447,-2.4697,-2.4004,-2.4014,-2.4204,-2.3192,-2.3342,-2.3866,-2.3511,-2.3779,-2.4164,-2.3992,-2.3615,-2.323,-2.3099,-2.2828,-2.2742,-2.3056,-2.3146,-2.3161,-2.3146,-2.2918,-2.2367,-2.1049,-2.1076,-2.1135,-2.0384,-2.0238,-2.0137,-1.9849,-1.9798,-1.9798,-1.9798,-1.9299,-1.8771,-1.8326,-1.7711,-1.7121,-1.6478,-1.6396,-1.6299,-1.6094,-1.5321,-1.4435,-1.3617,-1.2617,-1.1789,-1.0989,-1.0855,-1.0701,-1.0624,-1.0701,-1.0775,-1.0775,-1.0628,-1.0641,0.0,0.0,0.0,0.0,0.0,-2.419,0.0,0.0,0.0,0.0,0.0,0.0,0.0,0.0,0.0,0.0,0.0,0.0,0.0,0.0,0.0,0.0,0.0,0.0,0.0,-2.524,-2.511,-2.4666,-2.4451,-2.4132,-2.3608,-2.4851,-2.5223,-2.4472,-2.5066,-2.5394,-2.5406,-2.533,-2.5303,-2.5303,-2.5303,-2.5303,-2.5303,-2.5303,-2.5303,-2.5303,-2.5303,-2.5303,-2.5264,-2.4942,-2.4804,-2.476,-2.4357,-2.419,-2.419,-2.419,-2.419,-2.4094,-2.3437,-2.3189,-2.3111,-2.248,-2.2699,-2.319,-2.319,-2.3385,-2.3473,-2.3018,-2.2611,-2.2242,-2.1792,-2.1695,-2.1829,-2.2368,-2.2084,-2.1844,-2.2368,-2.1754,-2.0808,-2.0031,-1.9551,-1.9285,-1.9472,-1.9497,-1.9497,-1.9497,-1.9497,-1.9535,-1.9635,-1.867,-1.8069,-1.8159,-1.7142,-1.6328,-1.5967,-1.5859,-1.5644,-1.5186,-1.3903,-1.2995,-1.2757,-1.1358,-1.0624,-1.0624,-1.0624,-1.0624,-1.0624,-1.0624,-1.0624,-1.0624,-1.0624,-1.0624,0.0,0.0,0.0,0.0,-2.419,0.0,0.0,0.0,-2.419,-2.419,0.0,0.0,0.0,0.0,0.0,0.0,0.0,0.0,0.0,0.0,0.0,0.0,0.0,0.0,0.0,-2.4433,-2.4544,-2.5408,-2.4697,-2.453,-2.5288,-2.5449,-2.5459,-2.5352,-2.5383,-2.5406,-2.5398,-2.533,-2.5303,-2.5303,-2.5303,-2.5303,-2.5303,-2.5303,-2.5303,-2.5303,-2.5303,-2.5303,-2.5264,-2.4942,-2.4804,-2.476,-2.4357,-2.419,-2.419,-2.419,-2.419,-2.4094,-2.3437,-2.3189,-2.3111,-2.248,-2.2361,-2.2429,-2.2429,-2.2468,-2.2434,-2.2198,-2.2091,-2.1992,-2.1749,-2.1695,-2.1724,-2.1799,-2.1754,-2.1724,-2.1799,-2.17,-2.1289,-2.0117,-1.9858,-1.9516,-1.8532,-1.8392,-1.8392,-1.8392,-1.8392,-1.8555,-1.9008,-1.7838,-1.7122,-1.7611,-1.6368,-1.5537,-1.5488,-1.5146,-1.4773,-1.4364,-1.383,-1.3075,-1.2004,-1.1108,-1.0624,-1.0624,-1.0624,-1.0624,-1.0624,-1.0624,-1.0624,-1.0624,-1.0624,-1.0624,0.0,0.0,0.0,0.0,0.0,0.0,-2.419,0.0,-2.419,0.0,0.0,0.0,0.0,0.0,0.0,0.0,0.0,0.0,0.0,0.0,0.0,0.0,0.0,0.0,0.0,0.0,0.0,0.0,-2.4842,-2.49,-2.4798,-2.5193,-2.5421,-2.5383,-2.5354,-2.5348,-2.5348,-2.5313,-2.5303,-2.5303,-2.5303,-2.5303,-2.5303,-2.5303,-2.5243,-2.5141,-2.5141,-2.5084,-2.4987,-2.4727,-2.4623,-2.4591,-2.4321,-2.419,-2.419,-2.419,-2.419,-2.4113,-2.3671,-2.3369,-2.3111,-2.248,-2.231,-2.231,-2.231,-2.1945,-2.1528,-2.1456,-2.1072,-2.0645,-2.0565,-2.0528,-2.0632,-2.1036,-2.0827,-2.0557,-2.0656,-2.0107,-1.9367,-1.8533,-1.8153,-1.7791,-1.7301,-1.7765,-1.8204,-1.8204,-1.8204,-1.8292,-1.8518,-1.7601,-1.6917,-1.6823,-1.5849,-1.5054,-1.4668,-1.4512,-1.4318,-1.4147,-1.3188,-1.2068,-1.088,-1.0316,-1.0053,-1.0053,-1.0053,-1.0134,-1.0301,-0.9786,-0.9681,-0.9849,-1.0364,-1.0624,-2.4375,0.0,0.0,0.0,0.0,0.0,0.0,0.0,0.0,0.0,0.0,0.0,0.0,0.0,0.0,0.0,0.0,0.0,0.0,0.0,0.0,0.0,0.0,0.0,0.0,0.0,0.0,-2.4308,-2.4761,-2.4891,-2.4548,-2.5066,-2.5357,-2.5313,-2.5303,-2.5303,-2.5303,-2.5303,-2.5303,-2.5303,-2.5303,-2.5303,-2.5303,-2.5303,-2.5203,-2.501,-2.501,-2.4911,-2.479,-2.4575,-2.4495,-2.4478,-2.4266,-2.419,-2.419,-2.419,-2.419,-2.4151,-2.3714,-2.3294,-2.2883,-2.2443,-2.231,-2.231,-2.231,-2.1781,-2.115,-2.1023,-2.0431,-1.9839,-1.9726,-1.969,-1.9809,-2.0318,-2.0049,-1.97,-1.9628,-1.8953,-1.8145,-1.7422,-1.6993,-1.668,-1.6522,-1.72,-1.7739,-1.7739,-1.7739,-1.7802,-1.7953,-1.7159,-1.6504,-1.6216,-1.5382,-1.4609,-1.4131,-1.397,-1.3744,-1.3352,-1.2066,-1.0897,-1.0047,-0.9793,-0.9621,-0.9382,-0.9382,-0.9368,-0.9386,-0.8757,-0.855,-0.8805,-0.9521,-0.9907,0.0,0.0,0.0,-2.4426,0.0,0.0,0.0,0.0,-2.419,0.0,0.0,0.0,0.0,0.0,0.0,0.0,0.0,0.0,0.0,0.0,0.0,0.0,0.0,0.0,0.0,0.0,-2.3475,-2.4956,-2.43,-2.4293,-2.5309,-2.5329,-2.5293,-2.5303,-2.5303,-2.5303,-2.5303,-2.5303,-2.5303,-2.5303,-2.5303,-2.5303,-2.5303,-2.5303,-2.5203,-2.501,-2.501,-2.4911,-2.479,-2.4575,-2.4495,-2.4478,-2.4266,-2.419,-2.419,-2.419,-2.419,-2.4094,-2.3437,-2.2824,-2.2338,-2.231,-2.231,-2.231,-2.231,-2.1957,-2.1491,-2.1118,-2.0649,-2.0177,-1.9818,-1.969,-1.9726,-1.972,-1.9741,-1.9566,-1.9035,-1.8907,-1.8574,-1.7504,-1.7312,-1.7118,-1.6595,-1.6547,-1.6572,-1.6572,-1.6572,-1.6773,-1.7338,-1.6233,-1.5579,-1.6132,-1.4956,-1.4131,-1.4077,-1.376,-1.2931,-1.1489,-1.0348,-0.9744,-0.9699,-0.9686,-0.9382,-0.8669,-0.861,-0.8316,-0.7612,-0.7553,-0.7553,-0.7573,-0.7891,-0.8091,0.0,0.0,-2.4409,-2.4478,0.0,0.0,0.0,0.0,0.0,0.0,0.0,0.0,0.0,0.0,0.0,0.0,0.0,0.0,0.0,0.0,0.0,0.0,0.0,0.0,0.0,0.0,0.0,-2.2398,-2.3263,-2.3753,-2.3681,-2.4716,-2.5303,-2.5303,-2.5303,-2.5303,-2.5303,-2.5303,-2.5303,-2.5303,-2.5303,-2.5303,-2.5303,-2.5303,-2.5149,-2.4883,-2.4883,-2.4697,-2.441,-2.4339,-2.4303,-2.4284,-2.4228,-2.419,-2.417,-2.3937,-2.3876,-2.3774,-2.3093,-2.2738,-2.2537,-2.2377,-2.231,-2.231,-2.231,-2.1781,-2.1181,-2.1023,-2.0465,-1.9874,-1.9762,-1.969,-1.969,-1.969,-1.9442,-1.9006,-1.8496,-1.8106,-1.7626,-1.6909,-1.6752,-1.671,-1.6522,-1.6522,-1.6522,-1.6522,-1.6522,-1.6442,-1.6219,-1.5804,-1.5279,-1.4703,-1.4192,-1.372,-1.3351,-1.2736,-1.2088,-1.135,-1.031,-0.9665,-0.9379,-0.9205,-0.877,-0.8037,-0.7982,-0.7728,-0.726,-0.6678,-0.6525,-0.6789,-0.6291,-0.6727,-2.4607,-2.4543,0.0,-2.4651,-2.4588,0.0,-2.4339,0.0,-2.419,0.0,0.0,0.0,0.0,0.0,0.0,0.0,0.0,0.0,0.0,-2.2686,0.0,0.0,0.0,0.0,0.0,0.0,-2.2319,-2.1821,-2.2969,-2.3698,0.0,0.0,-2.5303,-2.5303,-2.5303,-2.5303,-2.5303,-2.5303,-2.5303,-2.5303,-2.5303,-2.5303,-2.5303,-2.5224,-2.5049,-2.4804,-2.4731,-2.4512,-2.419,-2.419,-2.419,-2.419,-2.419,-2.419,-2.417,-2.3816,-2.3544,-2.3282,-2.2848,-2.2634,-2.2527,-2.2349,-2.218,-2.2032,-2.2032,-2.1446,-2.0764,-2.0764,-2.0227,-1.969,-1.969,-1.969,-1.9639,-1.9442,-1.9169,-1.8688,-1.7987,-1.7544,-1.7146,-1.6595,-1.6522,-1.6522,-1.6522,-1.6522,-1.6522,-1.6522,-1.6522,-1.6281,-1.5676,-1.541,-1.4915,-1.3909,-1.36,-1.3228,-1.255,-1.1832,-1.1268,-1.0793,-0.9933,-0.9348,-0.9078,-0.8631,-0.8092,-0.7411,-0.7112,-0.6689,-0.6235,-0.5653,-0.5451,-0.5735,-0.5193,-0.5578]},{"header":{"parameterUnit":"m.s-1","parameterCategory":1,"la1":30.6,"la2":29.2853,"lo1":-89.7004,"lo2":-87.6739,"dy":0.0162,"dx":0.0183,"nx":112,"ny":82,"refTime":"2023-03-06T18:00:00:Z","depth":0,"parameterNumber":3,"parameterNumberName":"V-component_of_WINDS"},"data":[0.0,0.0,0.0,0.0,0.0,0.0,0.0,0.0,0.0,0.0,0.0,0.0,0.0,0.0,0.0,0.0,0.0,0.0,0.0,0.0,0.0,0.0,0.0,0.0,0.0,0.0,0.0,0.0,0.0,0.0,0.0,0.0,0.0,0.0,0.0,0.0,0.0,0.0,0.0,0.0,0.0,0.0,0.0,0.0,0.0,0.0,0.0,0.0,0.0,0.0,0.0,0.0,0.0,0.0,0.0,0.0,0.0,0.0,0.0,0.0,0.0,0.0,0.0,0.0,0.0,0.0,0.0,0.0,0.0,0.0,0.0,0.0,0.0,0.0,0.0,0.0,0.0,0.0,0.0,0.0,0.0,0.0,0.0,0.0,0.0,0.0,0.0,0.0,0.0,0.0,-2.3883,-2.3833,-2.3654,-2.2543,-2.0288,-1.8506,-1.6737,-1.4736,0.0,0.0,0.0,0.0,0.0,0.0,0.0,0.0,0.0,0.0,0.0,0.0,0.0,0.0,0.0,0.0,0.0,0.0,0.0,0.0,0.0,0.0,0.0,0.0,0.0,0.0,0.0,0.0,0.0,0.0,0.0,0.0,0.0,0.0,0.0,0.0,0.0,0.0,0.0,0.0,0.0,0.0,0.0,0.0,0.0,0.0,0.0,0.0,0.0,0.0,0.0,0.0,0.0,0.0,0.0,0.0,0.0,0.0,0.0,0.0,0.0,0.0,0.0,0.0,0.0,0.0,0.0,0.0,0.0,0.0,0.0,0.0,0.0,0.0,0.0,0.0,0.0,0.0,0.0,0.0,0.0,0.0,0.0,0.0,0.0,0.0,0.0,0.0,0.0,0.0,0.0,0.0,0.0,0.0,0.0,0.0,0.0,0.0,0.0,0.0,0.0,0.0,0.0,0.0,-2.3007,-2.572,-2.5961,-2.4988,-2.264,-2.0631,-1.8408,-1.606,0.0,0.0,0.0,0.0,0.0,0.0,0.0,0.0,0.0,0.0,0.0,0.0,0.0,0.0,0.0,0.0,0.0,0.0,0.0,0.0,0.0,0.0,0.0,0.0,0.0,0.0,0.0,0.0,0.0,0.0,0.0,0.0,0.0,0.0,0.0,0.0,0.0,0.0,0.0,0.0,0.0,0.0,0.0,0.0,0.0,0.0,0.0,0.0,0.0,0.0,0.0,0.0,0.0,0.0,0.0,0.0,0.0,0.0,0.0,0.0,0.0,0.0,0.0,0.0,0.0,0.0,0.0,0.0,0.0,0.0,0.0,0.0,0.0,0.0,0.0,0.0,0.0,0.0,0.0,0.0,0.0,0.0,0.0,0.0,0.0,0.0,0.0,0.0,0.0,0.0,0.0,0.0,0.0,0.0,0.0,0.0,0.0,0.0,0.0,0.0,0.0,0.0,0.0,-2.3345,-2.4356,-2.7055,-2.7334,-2.6057,-2.2903,-2.1361,-1.917,-1.6025,-1.512,0.0,0.0,0.0,0.0,0.0,0.0,0.0,0.0,0.0,0.0,0.0,0.0,0.0,0.0,0.0,0.0,0.0,0.0,0.0,0.0,0.0,0.0,0.0,0.0,0.0,0.0,0.0,0.0,0.0,0.0,0.0,0.0,0.0,0.0,0.0,0.0,0.0,0.0,0.0,0.0,0.0,0.0,0.0,0.0,0.0,0.0,0.0,0.0,0.0,0.0,0.0,0.0,0.0,0.0,0.0,0.0,0.0,0.0,0.0,0.0,0.0,0.0,0.0,0.0,0.0,0.0,0.0,0.0,0.0,0.0,0.0,0.0,0.0,0.0,0.0,0.0,0.0,0.0,0.0,0.0,0.0,0.0,0.0,0.0,0.0,0.0,0.0,0.0,0.0,0.0,0.0,0.0,0.0,0.0,0.0,0.0,0.0,0.0,0.0,0.0,0.0,0.0,-2.5559,-2.6023,-2.7936,-2.8004,-2.668,-2.3546,-2.2097,-1.9945,-1.6665,-1.6127,0.0,0.0,0.0,0.0,0.0,0.0,0.0,0.0,0.0,0.0,0.0,0.0,0.0,0.0,0.0,0.0,0.0,0.0,0.0,0.0,0.0,0.0,0.0,0.0,0.0,0.0,0.0,0.0,0.0,0.0,0.0,0.0,0.0,0.0,0.0,0.0,0.0,0.0,0.0,0.0,0.0,0.0,0.0,0.0,0.0,0.0,0.0,0.0,0.0,0.0,0.0,0.0,0.0,0.0,0.0,0.0,0.0,0.0,0.0,0.0,0.0,0.0,0.0,0.0,0.0,0.0,0.0,0.0,0.0,0.0,0.0,0.0,0.0,0.0,0.0,0.0,0.0,0.0,0.0,0.0,0.0,0.0,0.0,0.0,0.0,0.0,0.0,0.0,0.0,0.0,0.0,0.0,0.0,0.0,0.0,0.0,0.0,0.0,0.0,0.0,0.0,0.0,-2.5162,-2.6904,-2.8009,-2.7633,-2.7002,-2.6265,-2.3435,-2.1027,-1.9471,-1.8092,0.0,0.0,0.0,0.0,0.0,0.0,0.0,0.0,0.0,0.0,0.0,0.0,0.0,0.0,0.0,0.0,0.0,0.0,0.0,0.0,0.0,0.0,0.0,0.0,0.0,0.0,0.0,0.0,0.0,0.0,0.0,0.0,0.0,0.0,0.0,0.0,0.0,0.0,0.0,0.0,0.0,0.0,0.0,0.0,0.0,0.0,0.0,0.0,0.0,0.0,0.0,0.0,0.0,0.0,0.0,0.0,0.0,0.0,0.0,0.0,0.0,0.0,0.0,0.0,0.0,0.0,0.0,0.0,0.0,0.0,0.0,0.0,0.0,0.0,0.0,0.0,0.0,0.0,0.0,0.0,0.0,0.0,0.0,0.0,0.0,0.0,0.0,0.0,0.0,0.0,0.0,0.0,0.0,0.0,0.0,0.0,0.0,0.0,0.0,0.0,0.0,0.0,-2.504,-2.6822,0.0,-2.9469,-2.8543,-2.6522,-2.4706,-2.2261,-1.9044,0.0,0.0,0.0,0.0,0.0,0.0,0.0,0.0,0.0,0.0,0.0,0.0,0.0,0.0,0.0,0.0,0.0,0.0,0.0,0.0,0.0,0.0,0.0,0.0,0.0,0.0,0.0,0.0,0.0,0.0,0.0,0.0,0.0,0.0,0.0,0.0,0.0,0.0,0.0,0.0,0.0,0.0,0.0,0.0,0.0,0.0,0.0,0.0,0.0,0.0,0.0,0.0,0.0,0.0,0.0,0.0,0.0,0.0,0.0,0.0,0.0,0.0,0.0,0.0,0.0,0.0,0.0,0.0,0.0,0.0,0.0,0.0,0.0,0.0,0.0,0.0,0.0,0.0,0.0,0.0,0.0,0.0,0.0,0.0,0.0,0.0,0.0,0.0,0.0,0.0,0.0,0.0,0.0,0.0,0.0,0.0,0.0,0.0,0.0,0.0,0.0,0.0,-2.3696,-2.5199,-2.694,0.0,-3.0154,-2.9402,-2.7064,-2.5351,-2.3018,-1.9638,0.0,0.0,0.0,0.0,0.0,0.0,0.0,0.0,0.0,0.0,0.0,0.0,0.0,0.0,0.0,0.0,0.0,0.0,0.0,0.0,0.0,0.0,0.0,0.0,0.0,0.0,0.0,0.0,0.0,0.0,0.0,0.0,0.0,0.0,0.0,0.0,0.0,0.0,0.0,0.0,0.0,0.0,0.0,0.0,0.0,0.0,0.0,0.0,0.0,0.0,0.0,0.0,0.0,0.0,0.0,0.0,0.0,0.0,0.0,0.0,0.0,0.0,0.0,0.0,0.0,0.0,0.0,0.0,0.0,0.0,0.0,0.0,0.0,0.0,0.0,0.0,0.0,0.0,0.0,0.0,0.0,0.0,0.0,0.0,0.0,0.0,0.0,0.0,0.0,0.0,0.0,0.0,0.0,0.0,0.0,0.0,0.0,0.0,0.0,0.0,0.0,0.0,-2.3198,-2.5559,-2.7357,-2.7967,-2.9091,-2.9325,-2.8126,-2.5329,-2.307,0.0,0.0,0.0,0.0,0.0,0.0,0.0,0.0,0.0,0.0,0.0,0.0,0.0,0.0,0.0,0.0,0.0,0.0,0.0,0.0,0.0,0.0,0.0,0.0,0.0,0.0,0.0,0.0,0.0,0.0,0.0,0.0,0.0,0.0,0.0,0.0,0.0,0.0,0.0,0.0,0.0,0.0,0.0,0.0,0.0,0.0,0.0,0.0,0.0,0.0,0.0,0.0,0.0,0.0,0.0,0.0,0.0,0.0,0.0,0.0,0.0,0.0,0.0,0.0,0.0,0.0,0.0,0.0,0.0,0.0,0.0,0.0,0.0,0.0,0.0,0.0,0.0,0.0,0.0,0.0,0.0,0.0,0.0,0.0,0.0,0.0,0.0,0.0,0.0,0.0,0.0,0.0,0.0,0.0,0.0,0.0,0.0,0.0,0.0,0.0,0.0,0.0,0.0,-2.3983,-2.5692,-2.7512,-2.9549,-2.9681,-2.9305,-2.8353,-2.5873,-2.3618,-2.1849,0.0,0.0,0.0,0.0,0.0,0.0,0.0,0.0,0.0,0.0,0.0,0.0,0.0,0.0,0.0,0.0,0.0,0.0,0.0,0.0,0.0,0.0,0.0,0.0,0.0,0.0,0.0,0.0,0.0,0.0,0.0,0.0,0.0,0.0,0.0,0.0,0.0,0.0,0.0,0.0,0.0,0.0,0.0,0.0,0.0,0.0,0.0,0.0,0.0,0.0,0.0,0.0,0.0,0.0,0.0,0.0,0.0,0.0,0.0,0.0,0.0,0.0,0.0,0.0,0.0,0.0,0.0,0.0,0.0,0.0,0.0,0.0,0.0,0.0,0.0,0.0,0.0,0.0,0.0,0.0,0.0,0.0,0.0,0.0,0.0,0.0,0.0,0.0,0.0,0.0,0.0,0.0,0.0,0.0,0.0,0.0,0.0,0.0,0.0,0.0,0.0,0.0,-2.3969,-2.5375,-2.7111,-2.949,-2.9864,-2.955,-2.855,-2.6616,-2.45,-2.2338,0.0,0.0,0.0,0.0,0.0,0.0,0.0,0.0,0.0,0.0,0.0,0.0,0.0,0.0,0.0,0.0,0.0,0.0,0.0,0.0,0.0,0.0,0.0,0.0,0.0,0.0,0.0,0.0,0.0,0.0,0.0,0.0,0.0,0.0,0.0,0.0,0.0,0.0,0.0,0.0,0.0,0.0,0.0,0.0,0.0,0.0,0.0,0.0,0.0,0.0,0.0,0.0,0.0,0.0,0.0,0.0,0.0,0.0,0.0,0.0,0.0,0.0,0.0,0.0,0.0,0.0,0.0,0.0,0.0,0.0,0.0,0.0,0.0,0.0,0.0,0.0,0.0,0.0,0.0,0.0,0.0,0.0,0.0,0.0,0.0,0.0,0.0,0.0,0.0,0.0,0.0,0.0,0.0,0.0,0.0,0.0,0.0,0.0,0.0,0.0,0.0,0.0,-2.3525,-2.4807,-2.6441,-2.865,-2.9816,-2.9973,-2.8966,-2.7519,-2.5644,-2.326,0.0,0.0,0.0,0.0,0.0,0.0,0.0,0.0,0.0,0.0,0.0,0.0,0.0,0.0,0.0,0.0,0.0,0.0,0.0,0.0,0.0,0.0,0.0,0.0,0.0,0.0,0.0,0.0,0.0,0.0,0.0,0.0,0.0,0.0,0.0,0.0,0.0,0.0,0.0,0.0,0.0,0.0,0.0,0.0,0.0,0.0,0.0,0.0,0.0,0.0,0.0,0.0,0.0,0.0,0.0,0.0,0.0,0.0,0.0,0.0,-1.3809,0.0,0.0,0.0,0.0,0.0,0.0,0.0,0.0,0.0,0.0,0.0,0.0,0.0,0.0,0.0,0.0,0.0,0.0,0.0,0.0,0.0,0.0,0.0,0.0,0.0,0.0,0.0,0.0,0.0,0.0,0.0,0.0,0.0,0.0,0.0,0.0,0.0,0.0,0.0,0.0,0.0,-2.4626,-2.5267,-2.6959,-3.0494,-3.0226,-3.008,-3.0811,-2.8645,-2.6498,-2.4831,-2.2968,0.0,0.0,0.0,0.0,0.0,0.0,0.0,0.0,0.0,0.0,0.0,0.0,0.0,0.0,0.0,0.0,0.0,0.0,0.0,0.0,0.0,0.0,0.0,0.0,0.0,0.0,0.0,0.0,0.0,0.0,0.0,0.0,0.0,0.0,0.0,0.0,0.0,0.0,0.0,0.0,0.0,0.0,0.0,0.0,0.0,0.0,0.0,0.0,0.0,0.0,0.0,0.0,0.0,0.0,0.0,0.0,0.0,0.0,0.0,0.0,-1.418,0.0,0.0,0.0,0.0,0.0,0.0,0.0,0.0,0.0,0.0,0.0,0.0,0.0,0.0,0.0,0.0,0.0,0.0,0.0,0.0,0.0,0.0,0.0,0.0,0.0,0.0,0.0,0.0,0.0,0.0,0.0,0.0,0.0,0.0,0.0,0.0,0.0,0.0,0.0,0.0,-2.5422,-2.5843,-2.7092,-3.016,-3.018,-3.0133,-3.0478,-2.9179,-2.7592,-2.5846,-2.4269,0.0,0.0,0.0,0.0,0.0,0.0,0.0,0.0,0.0,0.0,0.0,0.0,0.0,0.0,0.0,0.0,0.0,0.0,0.0,0.0,0.0,0.0,0.0,0.0,0.0,0.0,0.0,0.0,0.0,0.0,0.0,0.0,0.0,0.0,0.0,0.0,0.0,0.0,0.0,0.0,0.0,0.0,0.0,0.0,0.0,0.0,0.0,0.0,0.0,0.0,0.0,0.0,0.0,-1.8571,-1.9053,-1.8984,-1.9346,-1.9121,-1.8379,-1.6934,-1.5859,-1.5192,-1.5584,0.0,0.0,0.0,0.0,0.0,0.0,0.0,0.0,0.0,0.0,0.0,0.0,0.0,0.0,0.0,0.0,0.0,0.0,0.0,0.0,0.0,0.0,0.0,0.0,-2.2832,-2.284,0.0,0.0,0.0,0.0,0.0,0.0,0.0,0.0,0.0,0.0,0.0,0.0,-2.6053,-2.643,-2.7371,-2.9669,-3.0338,-3.039,-2.9944,-2.9798,-2.886,-2.6879,-2.5737,-2.4547,0.0,0.0,0.0,0.0,0.0,0.0,0.0,0.0,0.0,0.0,0.0,0.0,0.0,0.0,0.0,0.0,0.0,0.0,0.0,0.0,0.0,0.0,0.0,0.0,0.0,0.0,0.0,0.0,0.0,0.0,0.0,0.0,-0.0425,-0.2248,0.0,0.0,0.0,0.0,0.0,0.0,0.0,0.0,0.0,0.0,0.0,0.0,0.0,-1.3682,-1.432,-1.6987,-1.827,-1.8056,-1.9963,-2.0684,-2.0312,-2.0371,-2.0332,-2.0215,-1.998,0.0,-1.6377,-1.5357,0.0,0.0,0.0,0.0,0.0,0.0,0.0,0.0,0.0,0.0,0.0,0.0,0.0,0.0,0.0,0.0,0.0,0.0,0.0,0.0,0.0,0.0,-2.3355,-2.3355,-2.3475,-2.3355,0.0,-2.1883,-2.1479,-2.1136,-2.0767,0.0,0.0,0.0,0.0,0.0,0.0,0.0,-2.6453,-2.6951,-2.8387,-3.1582,-3.153,-3.1444,-3.1858,-3.1328,-3.0303,-2.876,-2.7264,-2.6067,-2.5242,-2.3877,0.0,0.0,0.0,0.0,0.0,0.0,0.0,0.0,0.0,0.0,0.0,0.0,0.0,0.0,0.0,0.0,0.0,0.0,0.0,0.0,0.0,0.0,0.0,0.0,0.0,0.0,0.0,0.0,0.0,-0.0431,-0.1598,-0.3158,-0.3343,-0.3766,0.0,0.0,0.0,0.0,0.0,0.0,0.0,0.0,0.0,-1.3255,-1.4197,-1.5076,-1.6044,-1.7598,-1.8482,-1.8829,-2.0232,-2.0922,-2.1044,-2.1659,-2.2012,-2.2002,-2.1768,-2.0889,-1.9473,-1.7805,-1.6779,-1.6305,0.0,0.0,0.0,0.0,-1.8894,-1.9083,-1.8907,-1.8807,0.0,-1.8993,0.0,0.0,0.0,0.0,0.0,0.0,0.0,0.0,0.0,0.0,-2.4732,-2.4732,-2.53,-2.5659,-2.5016,-2.4358,-2.3525,0.0,-2.2282,-2.2656,-2.2867,0.0,0.0,0.0,0.0,-2.5916,-2.7774,-2.8519,-2.9609,-3.1472,-3.1446,-3.1388,-3.1664,-3.1376,-3.0565,-2.9076,-2.7943,-2.6623,-2.505,-2.3951,-2.3207,0.0,0.0,0.0,0.0,0.0,0.0,0.0,0.0,0.0,0.0,0.0,0.0,0.0,0.0,0.0,0.0,0.0,0.0,0.0,0.0,0.0,0.0,0.0,0.0,0.0,0.0,0.0,0.0,-0.1411,-0.2606,-0.3862,-0.4193,-0.4635,0.0,0.0,0.0,0.0,0.0,0.0,-0.8876,-0.9983,-1.1635,-1.3994,-1.4601,-1.5706,-1.7178,-1.778,-1.8427,-1.9119,-2.003,-2.0811,-2.1455,-2.2264,-2.2775,-2.3125,-2.2812,-2.2432,-2.1855,-1.9945,-1.8434,-1.7491,-1.8364,-1.8555,-1.8487,-1.9655,-2.03,-2.0677,-2.0828,-2.0589,-2.024,-2.0373,0.0,-1.9825,-1.9679,0.0,0.0,0.0,0.0,-2.2383,-2.3206,-2.4642,-2.5899,-2.6078,-2.6856,-2.7445,-2.6737,-2.6213,-2.5334,0.0,-2.4053,-2.4569,-2.4364,0.0,0.0,0.0,0.0,-2.708,-2.8772,-2.9634,-3.0378,-3.1123,-3.119,-3.1123,-3.0937,-3.092,-3.0362,-2.9059,-2.8247,-2.6996,-2.5118,-2.4154,-2.3325,-2.2598,0.0,0.0,0.0,0.0,0.0,0.0,0.0,0.0,0.0,0.0,0.0,0.0,0.0,0.0,0.0,0.0,0.0,0.0,0.0,0.0,0.0,0.0,0.0,0.0,0.0,0.0,0.0,0.0,0.0,-0.3937,-0.4547,0.0,0.0,0.0,0.0,-0.6193,-0.6896,-0.7508,-0.8016,-0.8946,-1.049,-1.2997,-1.3377,-1.4558,-1.6679,-1.7865,-1.8476,-1.8596,-1.9486,-2.0551,-2.1796,-2.1482,-2.2031,-2.3135,-2.3115,-2.2871,-2.2344,-2.0547,-1.9561,-1.9134,-1.9116,-1.9663,-2.0504,-2.0778,-2.1716,-2.2824,-2.1794,-2.143,-2.1481,-2.1983,-2.2189,-2.2144,-2.1678,-2.1589,0.0,0.0,-2.3026,-2.3804,-2.5121,-2.6004,-2.6692,-2.732,-2.7565,-2.7445,-2.6737,-2.6557,-2.644,0.0,-2.5559,-2.526,-2.5463,0.0,-2.7114,-2.5812,-2.7435,-2.8856,-2.9011,-2.9634,-3.0378,-3.1123,-3.119,-3.092,-3.0226,-3.0176,-2.982,-2.9025,-2.8247,-2.7452,-2.6623,-2.5203,-2.4086,-2.3359,-2.2665,0.0,0.0,0.0,0.0,0.0,0.0,0.0,0.0,0.0,0.0,0.0,0.0,0.0,0.0,0.0,0.0,0.0,0.0,0.0,0.0,0.0,0.0,0.0,0.0,0.0,0.0,0.0,0.0,-0.5594,-0.6053,0.0,-0.6394,-0.6458,-0.6563,-0.6807,-0.7172,-0.7929,-0.9192,-0.9694,-1.1172,-1.3986,-1.4249,-1.523,-1.6987,-1.7489,-1.7684,-1.7677,-1.8424,-1.9012,-1.9477,-2.075,-2.1569,-2.1943,-2.2765,-2.3057,-2.2861,-2.2246,-2.1416,-2.0526,-2.0483,-2.1102,-2.2014,-2.2313,-2.3183,-2.4167,-2.3766,-2.315,-2.2455,-2.195,-2.1797,-2.171,-2.1558,-2.1818,-2.2367,-2.3022,-2.4012,-2.5106,-2.6004,-2.6722,-2.7275,-2.7565,-2.7625,-2.75,-2.7275,-2.7215,-2.7312,-2.7596,-2.7047,-2.6703,-2.7143,-2.7526,-2.7807,-2.7791,-2.8467,-2.9161,-2.9651,-3.0345,-3.0903,-3.1157,-3.0784,-3.0395,-3.0125,-2.9211,-2.8315,-2.7554,-2.681,-2.5845,-2.4628,-2.4069,-2.3444,-2.2716,-2.2446,-2.2547,0.0,0.0,0.0,0.0,0.0,0.0,0.0,0.0,0.0,0.0,0.0,0.0,0.0,0.0,0.0,0.0,0.0,0.0,0.0,0.0,0.0,0.0,0.0,0.0,0.0,0.0,-0.6083,-0.6682,-0.7217,-0.7424,-0.718,-0.72,-0.7312,-0.7509,-0.7662,-0.8261,-0.9469,-0.9591,-1.095,-1.3946,-1.421,-1.5285,-1.7295,-1.7295,-1.7248,-1.7244,-1.7527,-1.78,-1.8162,-1.9477,-2.0305,-2.0755,-2.1587,-2.2129,-2.2492,-2.2492,-2.2197,-2.1602,-2.1628,-2.2221,-2.301,-2.342,-2.4318,-2.5322,-2.4946,-2.4205,-2.3236,-2.2116,-2.1891,-2.1998,-2.1783,-2.2248,-2.2989,-2.3946,-2.4825,-2.5775,-2.6703,-2.7295,-2.7625,-2.7625,-2.7625,-2.7625,-2.7625,-2.7625,-2.771,-2.814,-2.7952,-2.7726,-2.7802,-2.8135,-2.8422,-2.8682,-2.9139,-2.9698,-3.0374,-3.0903,-3.119,-3.119,-3.0548,-3.0006,-2.9753,-2.8789,-2.7672,-2.6404,-2.6099,-2.5304,-2.3816,-2.3765,-2.3528,-2.3054,-2.2801,-2.3028,-2.3743,0.0,0.0,0.0,0.0,0.0,0.0,0.0,0.0,0.0,0.0,0.0,0.0,0.0,0.0,0.0,0.0,0.0,0.0,0.0,0.0,0.0,0.0,0.0,-0.4755,-0.6314,-0.7285,-0.7017,-0.776,-0.8123,-0.7689,-0.8038,-0.8292,-0.8292,-0.8418,-0.8496,-0.8496,-0.8496,-0.9918,-1.282,-1.3036,-1.4417,-1.747,-1.7575,-1.7428,-1.725,-1.684,-1.7119,-1.8067,-1.7834,-1.8319,-1.9497,-1.9588,-2.0215,-2.1382,-2.1373,-2.178,-2.249,-2.249,-2.2886,-2.3604,-2.3999,-2.513,-2.637,-2.5222,-2.4494,-2.3866,-2.2736,-2.2821,-2.3214,-2.2598,-2.2884,-2.3727,-2.5118,-2.5494,-2.5857,-2.7244,-2.7625,-2.7625,-2.7625,-2.7625,-2.7625,-2.7625,-2.7625,-2.7625,-2.7625,-2.8091,-2.8218,-2.7471,-2.8478,-2.9129,-2.8359,-2.9411,0.0,-3.1095,-3.119,-3.119,-3.119,-3.0548,-2.9803,-2.9042,-2.8943,-2.7926,-2.571,-2.6184,-2.5913,-2.4506,-2.4438,-2.4438,-2.4438,-2.3761,-2.3743,-2.4399,0.0,0.0,0.0,0.0,0.0,0.0,0.0,0.0,0.0,0.0,0.0,0.0,0.0,0.0,0.0,0.0,0.0,0.0,0.0,0.0,0.0,0.0,-0.4242,-0.6144,-0.7144,-0.7821,-0.8177,-0.8537,-0.8747,-0.8726,-0.8743,-0.8757,-0.8757,-0.8791,-0.8815,-0.8815,-0.8815,-0.9689,-1.1562,-1.2636,-1.4056,-1.5956,-1.684,-1.7228,-1.7141,-1.6633,-1.6542,-1.6836,-1.7465,-1.8319,-1.9588,-2.0395,-2.148,-2.2561,-2.2265,-2.2167,-2.206,-2.206,-2.2884,-2.3955,-2.3806,-2.4885,-2.642,-2.5636,-2.5285,-2.4971,-2.3891,-2.3662,-2.3657,-2.3073,-2.3462,-2.4211,-2.5149,-2.5799,-2.6437,-2.7363,-2.7625,-2.7625,-2.7625,-2.7625,-2.7625,-2.7625,-2.7625,-2.7625,-2.7625,-2.771,-2.792,-2.814,-2.8453,-2.8742,-2.9016,-2.9377,0.0,-3.0452,-3.0918,-3.119,-3.119,-3.0548,-2.9803,-2.9042,-2.7469,-2.6031,-2.4864,-2.3985,-2.3342,-2.2919,-2.2902,-2.2902,-2.2902,-2.3465,-2.3971,0.0,0.0,0.0,0.0,0.0,0.0,0.0,0.0,0.0,0.0,0.0,0.0,0.0,0.0,0.0,0.0,0.0,0.0,0.0,0.0,0.0,0.0,-0.2739,-0.4051,-0.6571,-0.7202,-0.7697,-0.8736,-0.9032,-0.9157,-0.9242,-0.9174,-0.91,-0.9032,-0.9028,-0.9001,-0.8944,-0.894,-0.9592,-1.0996,-1.2512,-1.4019,-1.5417,-1.6652,-1.7088,-1.6954,-1.6493,-1.6206,-1.6079,-1.6658,-1.7304,-1.8025,-1.8656,-1.985,-2.1332,-2.1268,-2.1343,0.0,0.0,0.0,0.0,0.0,-2.5354,-2.605,-2.5711,-2.5448,-2.5172,-2.4544,-2.4343,-2.428,-2.3941,-2.3971,-2.432,-2.5043,-2.5647,-2.6229,-2.693,-2.7357,-2.7625,-2.7625,-2.7625,-2.7625,-2.7625,-2.7625,-2.7625,-2.7625,-2.7625,0.0,-2.8042,-2.8107,-2.8185,-2.8539,-2.8818,-2.9292,-3.0201,-3.0617,-3.0918,-3.119,-3.0548,-2.9803,-2.9042,-2.7774,0.0,0.0,0.0,-2.341,-2.2801,-2.2767,0.0,0.0,0.0,-2.3761,-2.3903,0.0,0.0,0.0,-2.63,-2.6722,0.0,0.0,0.0,0.0,0.0,0.0,0.0,0.0,0.0,0.0,0.0,0.0,0.0,0.0,0.0,0.0,-0.2895,-0.3781,-0.5901,-0.642,-0.7132,-0.9074,-0.934,-0.9432,-0.9432,-0.9432,-0.9367,-0.9215,-0.9188,-0.9117,-0.8971,0.0,0.0,0.0,0.0,-1.4019,-1.5417,-1.6516,-1.6947,-1.6653,-1.6359,-1.6086,-1.5832,-1.5832,-1.5927,-1.6015,-1.6015,-1.7135,-1.9115,-1.9495,-2.0252,-2.1338,-2.1784,-2.2559,-2.3734,-2.5652,-2.6058,-2.5686,-2.5686,0.0,0.0,-2.4933,-2.4908,-2.4883,-2.477,-2.4393,-2.4165,-2.4844,-2.5141,-2.5453,-2.6283,-2.6982,-2.7509,-2.7575,-2.7565,-2.7535,-2.761,-2.7565,-2.7535,-2.761,-2.7625,-2.7625,-2.7625,-2.7565,-2.7508,-2.7519,-2.7999,-2.8825,-2.9935,-3.0166,-3.0435,-3.1015,0.0,0.0,-2.9178,-2.9025,-2.7757,-2.4946,-2.5203,-2.4898,-2.3579,-2.3427,-2.3427,-2.3511,-2.3485,-2.345,-2.3406,-2.3478,-2.4195,-2.5489,-2.6906,-2.7236,0.0,0.0,0.0,0.0,0.0,0.0,0.0,0.0,0.0,0.0,0.0,0.0,0.0,0.0,0.0,-0.0588,-0.0623,-0.1318,-0.3055,-0.4384,-0.6282,-0.916,-0.9649,-0.9737,-0.9737,-0.9737,-0.9676,-0.9534,-0.9408,-0.9269,-0.912,-0.9001,-0.9647,-1.1321,-1.2597,-1.4019,-1.5417,-1.6317,-1.6647,-1.6353,0.0,0.0,-1.5832,-1.5832,-1.6386,-1.7318,-1.7318,-1.864,-2.0802,-2.0571,-2.0955,-2.1771,-2.1893,-2.2574,-2.3672,-2.485,-2.5742,-2.6302,-2.6302,-2.6226,-2.6063,-2.5598,-2.5448,-2.5285,-2.4418,-2.4079,0.0,-2.436,-2.4487,-2.4851,-2.6176,-2.6616,-2.6878,-2.7458,-2.7171,-2.6916,-2.7455,-2.7156,-2.6931,-2.752,-2.7625,-2.7625,-2.7625,-2.7126,-2.6965,-2.7504,-2.7655,-2.7953,-2.8748,-2.9271,-2.9805,-3.0435,-3.0361,-3.0159,-2.9918,-2.933,-2.8213,-2.6387,-2.527,-2.456,-2.432,-2.3714,-2.3663,-2.4286,-2.3956,-2.4078,-2.4667,-2.5184,-2.5613,-2.5891,-2.5865,-2.6465,0.0,0.0,0.0,0.0,0.0,0.0,0.0,0.0,0.0,0.0,0.0,0.3215,0.0,0.0,0.0892,0.0107,0.0,-0.0576,-0.2274,-0.3147,-0.486,-0.8133,-0.9287,-0.9822,-0.9822,-0.9822,-0.9764,-0.9618,-0.954,-0.9429,-0.9276,-0.9127,-0.9409,-1.0265,-1.2288,-1.3588,-1.4341,-1.6091,-1.678,-1.6486,-1.6192,-1.5972,-1.5832,-1.5832,-1.6109,-1.6763,-1.6763,-1.8026,-2.0076,-2.0943,-2.1663,-2.2212,-2.202,-2.2507,-2.3504,-2.4594,-2.5468,-2.6088,-2.6414,-2.6533,-2.6483,-2.6126,-2.5837,-2.5498,-2.4958,-2.4431,-2.3991,-2.4115,-2.4236,-2.4567,-2.5673,-2.6229,-2.6669,-2.7408,-2.732,-2.7171,-2.755,-2.737,-2.7186,-2.75,-2.7625,-2.7625,-2.7625,-2.7305,-2.7186,-2.7565,-2.7557,-2.7791,-2.8417,-2.8779,-2.918,-2.9805,-3.0123,-3.0137,-2.9682,-2.8878,-2.7909,-2.6759,-2.5659,-2.4864,-2.4523,-2.4137,-2.4133,-2.4506,-2.4313,-2.4471,-2.5005,-2.5349,-2.579,-2.6354,-2.6325,-2.6849,0.0,0.0,0.0,0.0,0.0,0.0,0.0,0.0,0.4861,0.46,0.5064,0.4838,0.2747,0.2256,0.1718,0.0229,0.0,-0.0476,-0.181,-0.2321,-0.3563,-0.6476,-0.8329,-0.9451,-0.9819,-0.9822,-0.9774,-0.9659,-0.9625,-0.9554,-0.9432,-0.9252,-0.9391,-0.9646,-1.1766,-1.3156,-1.3696,-1.5646,-1.6704,-1.662,-1.6326,-1.6059,-1.5832,-1.5832,-1.5832,-1.5832,-1.6292,-1.742,-1.9115,-2.1127,-2.2256,-2.2588,-2.208,-2.2389,-2.3273,-2.4403,-2.5191,-2.5694,-2.628,-2.6533,-2.6533,-2.6533,-2.6138,-2.5724,-2.5511,-2.4845,-2.4117,-2.3891,-2.3961,-2.4279,-2.5175,-2.5728,-2.6336,-2.7357,-2.7419,-2.7244,-2.7545,-2.752,-2.7425,-2.7595,-2.7625,-2.7625,-2.7625,-2.7679,-2.7724,-2.764,-2.7679,-2.7911,-2.8301,-2.8442,-2.8698,-2.915,-2.9761,-2.9962,-2.9632,-2.8749,-2.801,-2.7402,-2.6674,-2.5981,-2.5421,-2.5099,-2.4983,-2.5135,-2.4847,-2.4917,-2.5338,-2.5426,-2.5941,-2.6838,-2.7243,-2.7628,0.5456,0.4793,0.4784,0.5148,0.5316,0.5568,0.0,0.0,0.6767,0.7237,0.6617,0.5511,0.407,0.2923,0.1685,0.0234,0.0,-0.0121,-0.0246,-0.16,-0.3182,-0.4822,-0.6572,-0.8218,-0.9697,-0.9822,-0.9815,-0.9798,-0.968,-0.9602,-0.9585,-0.931,-0.9891,-1.1405,-1.1402,-1.2615,-1.5091,-1.4935,-1.5275,-1.6319,-1.6019,-1.5865,-1.5832,-1.5832,-1.5832,-1.592,-1.8118,-1.9198,-1.9587,-2.1633,-2.2685,-2.2988,-2.2197,-2.2193,-2.2735,-2.3863,-2.482,-2.5694,-2.628,-2.6533,-2.6533,-2.6533,-2.6483,-2.6189,-2.5209,-2.482,-2.4519,-2.3514,-2.3248,-2.359,-2.5007,-2.4951,-2.5063,-2.7122,-2.6629,-2.6097,-2.7324,-2.7111,-2.6871,-2.7455,-2.7625,-2.7625,-2.7625,-2.8068,-2.8278,-2.7715,-2.8098,-2.8314,-2.775,-2.8201,-2.8591,-2.8573,-2.9134,-2.9903,-3.0897,-3.0273,-2.982,-2.9736,-2.9025,-2.8569,-2.852,-2.7165,-2.6759,-2.7435,-2.615,-2.5827,-2.6504,-2.6874,-2.7126,-2.7257,-2.7942,-2.8276,0.5734,0.583,0.6507,0.0,0.7729,0.8334,0.8279,0.8296,0.8223,0.7935,0.7623,0.7046,0.5827,0.4408,0.3138,0.0,0.0608,0.0,0.0,-0.0612,-0.1933,-0.4271,-0.5356,-0.6834,-0.9447,-0.9696,-0.9734,-0.9815,-0.9768,-0.9734,-0.9734,-0.9449,-0.9659,-1.0409,-1.0863,-1.2077,-1.4126,-1.4636,-1.5365,-1.652,-1.64,-1.6159,-1.5838,-1.6005,-1.6368,-1.7037,-1.8764,-1.9943,-2.0657,-2.2224,-2.2978,-2.3105,-2.2754,-2.2578,-2.2571,-2.3156,-2.3951,-2.4872,-2.5409,-2.6025,-2.6533,-2.6533,-2.6239,-2.5875,-2.541,-2.4845,-2.4243,-2.3766,-2.364,-2.3872,-2.4957,-2.5015,-2.5329,-2.7489,-2.7331,-2.6939,-2.7943,-2.7949,-2.7724,-2.764,-2.7904,-2.8173,-2.8173,-2.8727,-2.9071,-2.8786,-2.8981,-2.9071,-2.8771,-2.8996,-2.9154,-2.9095,-2.9295,-2.9761,-3.0601,-3.0746,-3.0565,-3.0142,-2.982,-2.9448,-2.9045,-2.8366,-2.818,-2.8484,-2.7892,-2.7503,-2.7351,-2.7504,-2.7366,-2.6971,-2.8235,-2.8808,0.5793,0.0,0.0,0.758,0.8662,0.9549,0.9231,0.908,0.893,0.8619,0.8473,0.8024,0.6862,0.5392,0.3983,0.2675,0.1102,0.0,0.0,0.0,-0.1071,-0.4085,-0.4506,-0.5781,-0.9056,-0.95,-0.9605,-0.9751,-0.9764,-0.9781,-0.9819,-0.9581,-0.9425,-0.9384,-1.013,-1.1481,-1.327,-1.4001,-1.5257,-1.6827,-1.666,-1.6366,-1.5952,-1.6086,-1.6689,-1.7785,-1.8956,-2.0215,-2.1382,-2.2589,-2.3135,-2.3135,-2.3135,-2.2812,-2.234,-2.2402,-2.3235,-2.4273,-2.4823,-2.5664,-2.6533,-2.6533,-2.6176,-2.5799,-2.5649,-2.5059,-2.4406,-2.4268,-2.423,-2.4393,-2.5145,-2.5145,-2.5493,-2.7493,-2.7499,-2.7244,-2.7831,-2.8071,-2.8098,-2.7661,-2.8144,-2.8667,-2.8846,-2.9415,-2.9834,-2.9834,-2.9998,-2.9998,-2.9624,-2.943,-2.9365,-2.9481,-2.9281,-2.9406,-2.9978,-3.0601,-3.074,-3.018,-3.0319,-3.0159,-2.9617,-2.9397,-2.9296,-2.9296,-2.9093,-2.8704,-2.8146,-2.8146,-2.774,-2.7046,-2.8662,-2.9302,0.0,0.0,0.6129,0.6651,0.7217,0.8034,0.9229,0.8882,0.8645,0.9851,0.9169,0.7887,0.6751,0.5256,0.3754,0.2389,0.0964,0.0,0.0,0.0,-0.1053,-0.3905,-0.4233,-0.5492,0.0,-0.9222,-0.9452,-0.9605,-0.9615,-0.9676,-0.9815,-0.9683,-0.9534,-0.9388,-0.9343,-1.0512,-1.327,-1.3042,-1.4294,-1.723,-1.656,-1.6279,-1.6253,-1.5972,-1.6487,-1.7785,-1.8956,-2.0215,-2.1382,-2.2589,-2.3135,-2.3135,-2.3135,-2.2637,-2.1904,-2.1958,-2.2912,-2.4273,-2.4823,-2.5664,-2.6533,-2.6533,-2.6521,-2.6327,-2.5774,-2.5573,-2.5435,-2.4933,-2.4795,-2.4963,-2.5707,-2.5369,-2.5218,-2.6687,-2.6479,-2.6028,-2.6246,-2.6849,-2.7348,-2.7472,-2.8125,-2.8801,-2.9445,-3.0058,-3.0477,-3.0477,-3.1046,-3.1016,-2.9744,-2.9026,-2.8852,-2.9435,-2.8929,-2.8779,-2.9361,-2.9978,-3.0335,-3.0318,-3.0845,-3.1157,-3.1123,-3.0446,-3.0074,-3.0074,-2.9347,-2.9011,-2.8941,-2.8941,-2.8552,-2.7807,-2.9435,-2.9786,0.0,0.0,0.8026,0.8424,1.0272,1.1546,1.0275,1.0531,1.058,0.9274,0.8487,0.8018,0.7818,0.5717,0.3954,0.3582,0.153,0.0,0.0,0.0,-0.1061,-0.3736,-0.4278,0.0,0.0,0.0,0.0,-0.9432,-0.9459,-0.9523,-0.9673,-0.9635,-0.954,-0.9388,-0.9232,-1.052,-1.327,-1.2936,-1.43,-1.7141,-1.6553,-1.6273,-1.6259,-1.5965,-1.6936,-1.8956,-1.9314,-2.0674,-2.2501,-2.295,-2.3135,-2.3105,-2.2832,-2.2383,-2.1846,-2.1562,-2.2387,-2.375,-2.3948,-2.5134,-2.6533,-2.6533,-2.6533,-2.6496,-2.6226,-2.59,-2.5561,-2.5385,-2.5335,-2.5388,-2.5625,-2.5507,-2.5673,-2.7101,-2.703,-2.6872,-2.8015,-2.844,-2.8669,-2.8862,-2.9401,-2.9939,-3.0163,-3.0746,-3.118,-3.118,-3.139,-3.1375,-3.0941,-3.0283,-2.9958,-3.0159,-2.9971,-2.9904,-3.005,-3.0607,-3.1146,-3.1599,-3.1365,-3.141,-3.1901,-3.1207,-3.0835,-3.0835,-3.0581,-3.0209,-2.9736,-2.9736,-2.933,-2.8638,-2.9937,-3.0562,0.0,0.7359,0.858,0.904,1.0591,1.176,1.0479,1.0571,1.0523,0.9042,0.8241,0.7923,0.8062,0.5756,0.3919,0.4052,0.1789,0.0,0.0,0.0,-0.1043,-0.3872,-0.4405,-0.5573,0.0,0.0,0.0,-0.9269,-0.9401,-0.9507,-0.9605,-0.9656,-0.9591,-0.9388,-0.9849,-1.1135,-1.327,-1.355,-1.4868,-1.6987,-1.6607,-1.6319,-1.6106,-1.5919,-1.7117,-1.9497,-1.9497,-2.0854,-2.3135,-2.3135,-2.3135,-2.3105,-2.2842,-2.2383,-2.1846,-2.1572,-2.207,-2.2999,-2.3368,-2.4838,-2.6533,-2.6533,-2.6533,-2.6533,-2.6533,-2.6201,-2.59,-2.59,-2.59,-2.59,-2.59,-2.59,-2.6244,-2.7392,-2.7446,-2.7488,-2.8647,-2.889,-2.8954,-2.9454,-2.9817,-3.0229,-3.078,-3.124,-3.1482,-3.1482,-3.1482,-3.1482,-3.1482,-3.0926,-3.0507,-3.0507,-3.0288,-3.0181,-3.012,-3.0877,-3.1565,-3.1978,-3.1748,-3.1799,-3.2256,-3.1579,-3.119,-3.119,-3.119,-3.097,-3.0497,-3.0497,-3.0108,-2.9434,-3.0556,-3.12,0.7094,0.7495,0.7883,0.8343,0.8591,0.8863,0.979,0.9146,0.851,0.9047,0.8296,0.7423,0.0,0.0,0.3688,0.378,0.1662,0.0108,0.0,0.0,-0.1119,0.0,0.0,0.0,0.0,0.0,0.0,-0.9144,0.0,-0.9595,-0.9608,-0.9737,-0.968,-0.9391,-1.0739,-1.2023,-1.327,-1.477,-1.5909,-1.6727,-1.6714,-1.6406,-1.5852,-1.5838,-1.7109,-1.9397,-1.9488,-2.0854,-2.3047,-2.3047,-2.3135,-2.3135,-2.3115,-2.2617,-2.1914,-2.1894,-2.1949,-2.2145,-2.3106,-2.4779,-2.6452,-2.6452,-2.6533,-2.6533,-2.6533,-2.6533,-2.6533,-2.6533,-2.6533,-2.6533,-2.6533,-2.6533,-2.6714,-2.7484,-2.767,-2.7709,-2.8085,-2.8085,-2.833,-2.9303,-2.9463,-2.9915,-3.1246,-3.1482,-3.1482,-3.1482,-3.1482,-3.1482,-3.1482,-3.0956,-3.0552,-3.0552,-3.0028,-2.9723,-2.9678,-3.081,-3.1582,-3.163,-3.2087,-3.2341,-3.2341,-3.1647,-3.1241,-3.119,-3.119,-3.119,-3.119,-3.119,-3.0835,-3.0176,-3.1276,-3.1638,0.9108,0.9482,0.9768,0.8783,0.9399,0.9793,0.7756,0.7878,0.7763,0.5769,0.5727,0.599,0.0,0.0,0.0,0.3678,0.2355,0.0,0.0121,0.0,0.0,-0.2469,0.0,-0.5356,-0.7212,-0.859,0.0,0.0,-0.9289,-0.9367,-0.9598,-0.9642,-0.9578,-0.9388,-0.9609,-1.0895,-1.327,-1.5743,-1.7075,-1.7034,-1.6814,-1.6513,-1.6152,-1.5925,-1.6662,-1.8234,-1.9139,-2.0395,-2.1845,-2.2765,-2.3135,-2.3105,-2.2793,-2.2539,-2.2314,-2.2002,-2.2151,-2.2552,-2.286,-2.3976,-2.5523,-2.6245,-2.6533,-2.6533,-2.6533,-2.6533,-2.6533,-2.6533,-2.6533,-2.6533,-2.6533,-2.6533,-2.6521,-2.6782,-2.6782,-2.6989,-2.7669,-2.8325,-2.9143,-3.0463,-3.1276,-3.1649,-3.1526,-3.1482,-3.1482,-3.1482,-3.1482,-3.1482,-3.1482,-3.1317,-3.127,-3.127,-3.1135,-3.0975,-3.096,-3.1719,-3.2482,-3.2961,-3.3044,-3.3119,-3.3119,-3.2408,-3.1749,-3.1207,-3.119,-3.119,-3.119,-3.119,-3.1106,-3.092,-3.1206,-3.1479,1.0276,1.0459,1.0482,0.9023,0.8793,0.8549,0.6665,0.6359,0.5937,0.4205,0.4261,0.0,0.0,0.0,0.0,0.0,0.0,0.0,0.0235,0.0,-0.0599,0.0,-0.372,0.0,-0.685,-0.8586,-0.9598,0.0,-0.9493,-0.9493,-0.9605,-0.9608,-0.954,-0.9388,-0.9905,-1.1394,-1.4234,-1.6499,-1.7442,-1.725,-1.6847,-1.6553,-1.6259,-1.5965,-1.648,-1.7785,0.0,-2.0215,-2.1382,-2.2589,-2.3135,-2.3115,-2.2881,-2.2676,-2.248,-2.2246,-2.2277,-2.24,-2.2647,-2.3243,-2.4186,-2.5443,-2.6164,-2.6533,-2.6533,-2.6533,-2.6533,-2.6533,-2.6533,-2.6533,-2.6533,-2.6533,-2.6589,-2.6905,-2.704,-2.7351,-2.8556,-2.9146,-2.9889,-3.1338,-3.2102,-3.2392,-3.2018,-3.1661,-3.1482,-3.1482,-3.1482,-3.1482,-3.1482,-3.1482,-3.1482,-3.1482,-3.1482,-3.1645,-3.1905,-3.2598,-3.3256,-3.3935,-3.3902,-3.388,-3.388,-3.2848,-3.2127,-3.1681,-3.1664,-3.1512,-3.119,-3.185,-3.1985,-3.1664,-3.1664,-3.1905,1.1216,1.1151,1.077,0.8901,0.7493,0.6326,0.587,0.4728,0.3629,0.3185,0.0,0.3231,0.294,0.329,0.3154,0.1785,0.0,0.1551,0.0223,0.0,-0.0586,-0.1955,-0.3763,-0.5446,-0.6984,-0.86,-0.9666,-0.9812,-0.9785,-0.9717,-0.9615,-0.9591,-0.95,-0.9327,-1.0642,-1.2449,-1.5045,-1.6548,-1.7166,-1.7088,-1.6794,-1.652,-1.6259,-1.5965,-1.6386,-1.7498,-1.8856,0.0,-2.1203,-2.258,-2.3135,-2.3135,-2.3135,-2.292,-2.2598,-2.2598,-2.2334,-2.207,-2.2521,-2.272,-2.3051,-2.4603,-2.5642,-2.6327,-2.654,-2.6584,-2.6546,-2.6622,-2.6584,-2.6546,-2.6622,-2.6584,-2.6658,-2.7351,-2.7537,-2.792,-2.9442,-2.9989,-3.0541,-3.2003,-3.2444,-3.2587,-3.2422,-3.1913,-3.1482,-3.1482,-3.1482,-3.1482,-3.1482,-3.1482,-3.1482,-3.1482,-3.1582,-3.1894,-3.2547,-3.3287,-3.3987,-3.4576,-3.465,-3.459,-3.4489,-3.3254,-3.2476,-3.2313,-3.2374,-3.207,-3.1343,-3.273,-3.3068,-3.2425,-3.2364,-3.2548,1.3148,1.2846,1.2137,0.7949,0.6725,0.58,0.3305,0.2577,0.0,0.0,0.1346,0.1912,0.1903,0.2787,0.3186,0.1855,0.0,0.0,0.0,0.0,-0.0118,0.0,0.0,0.0,0.0,0.0,0.0,0.0,0.0,-0.9503,-0.9605,-0.949,-0.9296,-0.9025,-1.041,-1.1819,-1.3203,-1.4681,-1.5919,-1.678,-1.6486,-1.6326,-1.6259,-1.5965,-1.592,-1.6292,-1.8488,0.0,-1.9943,-2.2227,-2.3135,-2.3135,-2.3135,-2.3096,-2.3027,-2.3027,-2.2764,-2.2393,-2.2473,-2.2828,-2.344,-2.5101,-2.5481,-2.5525,-2.6768,-2.6816,-2.6553,-2.7017,-2.6816,-2.6634,-2.7017,-2.6804,-2.6521,-2.6658,-2.6714,-2.6782,-2.7095,-2.908,-3.1129,-3.2237,-3.2899,-3.2976,-3.1884,-3.1556,-3.1482,-3.1482,-3.1482,-3.1482,-3.1482,-3.1482,-3.1482,-3.1482,-3.2064,-3.2437,-3.2586,-3.3735,-3.4479,-3.4576,-3.5136,-3.5148,-3.4523,-3.4235,-3.3541,-3.2347,-3.2899,-3.2848,-3.2087,-3.2983,-3.3339,-3.3186,-3.256,-3.2652,1.2778,1.1616,1.0583,0.7362,0.5448,0.3888,0.2324,0.0,0.0,0.0,0.0433,0.0789,0.0799,0.0,0.0,0.0,0.0,0.0,0.0,0.0,0.0,0.0,0.0,0.0,0.0,0.0,0.0,0.0,0.0,-0.9449,-0.9602,-0.9388,-0.9161,-0.8947,-1.0351,-1.1711,-1.3001,-1.449,-1.5916,-1.7154,-1.6714,-1.65,-1.648,-1.6032,-1.5832,-1.592,-1.7762,0.0,-1.868,-2.0494,-2.1587,-2.2129,-2.2129,-2.2589,-2.3135,-2.3135,-2.3018,-2.2812,-2.2588,-2.269,-2.3104,-2.4533,-2.5119,-2.5504,-2.6566,-2.6878,-2.7005,-2.7557,-2.7318,-2.6954,-2.7218,-2.6866,-2.6533,-2.6533,-2.685,-2.733,-2.7911,-2.9523,-3.1278,-3.2547,-3.2786,-3.2588,-3.2094,-3.1764,-3.1644,-3.1988,-3.1691,-3.1601,-3.2003,-3.1749,-3.1482,-3.1482,-3.1796,-3.2312,-3.3039,-3.3684,-3.4399,-3.5052,-3.5407,-3.5453,-3.5098,-3.4692,-3.415,-3.344,-3.3778,-3.3609,-3.2865,-3.4015,-3.4353,-3.3947,-3.322,-3.3271,1.178,1.0232,0.8702,0.6751,0.4236,0.2057,0.1657,0.0765,0.0,0.0,0.0,0.0,0.0,0.0,0.1212,0.0,0.0,0.0,0.0,0.0,0.0,0.0,0.0,0.0,0.0,0.0,0.0,0.0,0.0,0.0,-0.9507,-0.9256,-0.9055,-0.8944,-1.0021,-1.1302,-1.2768,-1.4104,-1.544,-1.6866,-1.6666,-1.652,-1.65,-1.6039,-1.5832,-1.5825,-1.7131,0.0,0.0,-1.9047,-2.0034,-2.0935,-2.1203,-2.1845,-2.2775,-2.296,-2.3135,-2.3076,-2.2656,-2.251,-2.266,-2.3442,-2.45,-2.5632,-2.6292,-2.6968,-2.7519,-2.7846,-2.762,-2.7281,-2.7281,-2.6967,-2.6666,-2.6848,-2.7331,-2.8124,-2.9425,-3.039,-3.1414,-3.282,-3.2731,-3.2411,-3.2497,-3.1973,-3.1764,-3.2422,-3.2078,-3.1988,-3.2647,-3.2273,-3.1958,-3.1958,-3.1962,-3.2468,-3.3702,-3.3933,-3.4496,-3.5515,-3.5622,-3.5622,-3.5622,-3.5047,-3.4658,-3.4489,-3.4658,-3.437,-3.3643,-3.4979,-3.5318,-3.4726,-3.3981,-3.4032,1.1219,1.0345,0.87,0.5639,0.3552,0.1823,0.046,0.0,0.0,0.0,0.0,0.0,0.0,0.0073,0.0152,0.0,0.0,0.0181,0.0,0.0,0.0,0.0,0.0,0.0,0.0,0.0,0.0,0.0,0.0,0.0,-0.9195,-0.9045,-0.8954,-0.894,-0.9047,-0.9738,-1.0967,-1.204,-1.3282,-1.4471,-1.537,-1.5912,-1.5912,-1.5852,-1.5832,-1.5825,-1.7131,0.0,0.0,-1.9047,-1.9588,-1.9761,-2.0845,-2.1382,-2.1569,-2.2677,-2.3135,-2.3076,-2.2656,-2.251,-2.2451,-2.2227,-2.3454,-2.5247,-2.6171,-2.7236,-2.7934,-2.7494,-2.7318,-2.7281,-2.7281,-2.7243,-2.7331,-2.7833,-2.8019,-2.846,-3.0007,-3.1013,-3.1983,-3.2906,-3.3275,-3.3214,-3.2632,-3.1973,-3.1764,-3.2422,-3.2467,-3.2662,-3.332,-3.335,-3.332,-3.332,-3.3355,-3.3698,-3.4441,-3.5084,-3.547,-3.5577,-3.5622,-3.5622,-3.5622,-3.5554,-3.5199,-3.4506,-3.5165,-3.5148,-3.4387,-3.5216,-3.5588,-3.5504,-3.4742,-3.4793,0.8679,0.755,0.6061,0.3938,0.2077,0.0713,0.0095,0.0,0.0,0.0,0.0,0.0,0.0,0.0,0.0,0.0,0.0,0.0,0.0,0.0,0.0,0.0,0.0,0.0,0.0,0.0,0.0,0.0,0.0,0.0,-0.8889,-0.892,-0.894,-0.894,-0.8849,-0.9414,-1.083,-1.1987,-1.3169,-1.4489,-1.5635,-1.6092,-1.6092,-1.5912,-1.5832,-1.5832,-1.6386,0.0,0.0,-1.7117,-1.7762,-1.8503,-1.9761,-2.0666,-2.148,-2.2677,-2.3135,-2.3076,-2.2656,-2.251,-2.2441,-2.2021,-2.29,-2.4287,-2.5315,-2.6099,-2.6846,-2.7588,-2.7544,-2.7281,-2.7281,-2.7281,-2.7344,-2.7557,-2.7871,-2.8321,-2.9308,-3.0276,-3.1037,-3.1305,-3.2358,-3.3074,-3.2353,-3.2492,-3.2946,-3.3589,-3.3365,-3.3335,-3.4008,-3.3739,-3.3649,-3.4038,-3.3391,-3.3379,-3.45,-3.4459,-3.4752,-3.556,-3.5622,-3.5622,-3.5622,-3.5622,-3.547,-3.5182,-3.547,-3.547,-3.5165,-3.547,-3.5622,-3.5605,-3.4844,-3.5052,0.6204,0.5043,0.3777,0.279,0.1203,0.0,0.0,0.0,0.0,0.0,0.0,0.0,0.0,0.0,0.0,0.0,0.0,0.0,0.0,0.0,0.0,0.0,0.0,0.0,0.0,0.0,0.0,0.0,0.0,0.0,-0.872,-0.8811,-0.8852,-0.8804,-0.8743,-0.9215,-1.0216,-1.1272,-1.2598,-1.4021,-1.5078,-1.5745,-1.6132,-1.5925,-1.5832,-1.5832,-1.5832,0.0,0.0,-1.5832,-1.6292,-1.7225,-1.8495,-1.9679,-2.0935,-2.2129,-2.2775,-2.3057,-2.2519,-2.2324,-2.2236,-2.168,-2.203,-2.2856,-2.3785,-2.5043,-2.6212,-2.6992,-2.7117,-2.7118,-2.7444,-2.7532,-2.7607,-2.7946,-2.8323,-2.8712,-2.9101,-2.9964,-3.0672,-3.085,-3.2124,-3.3056,-3.2838,-3.3217,-3.3724,-3.4382,-3.4083,-3.4023,-3.4696,-3.4382,-3.4388,-3.5059,-3.4091,-3.391,-3.5099,-3.4988,-3.5169,-3.5932,-3.596,-3.5859,-3.5622,-3.5622,-3.5622,-3.5622,-3.5622,-3.5622,-3.5622,-3.5622,-3.5622,-3.5605,-3.5239,-3.5624,0.4198,0.3594,0.2513,0.2471,0.1277,0.0,0.0,0.0,0.0,0.0,0.0,0.0,0.0,0.0,0.0,0.0,0.0,0.0,0.0,0.0,0.0,0.0,0.0,0.0,0.0,0.0,0.0,0.0,0.0,0.0,-0.8608,-0.8713,-0.8645,-0.8489,-0.8632,-0.8638,-0.8486,-0.965,-1.0865,-1.2269,-1.3413,-1.4561,-1.5832,-1.5832,-1.5832,0.0,0.0,0.0,0.0,-1.5832,-1.5832,-1.592,-1.7225,-1.8503,-1.967,-2.0845,-2.2031,-2.3018,-2.2178,-2.1894,-2.1748,-2.0869,-2.0654,-2.0799,-2.1756,-2.4186,-2.6375,-2.5302,-2.5746,-2.6716,-2.7821,-2.8097,-2.8373,-2.9503,-2.9767,-2.9779,-2.9779,-3.0545,-3.1462,-3.2379,-3.2831,-3.3398,-3.433,-3.3918,-3.3724,-3.4382,-3.4472,-3.4711,-3.54,-3.5489,-3.5767,-3.6492,-3.598,-3.5857,-3.6605,-3.7417,-3.7567,-3.6806,-3.6772,-3.6417,-3.5656,-3.5622,-3.5622,-3.5622,-3.5622,-3.5622,-3.5622,-3.5622,-3.5622,-3.5622,-3.6139,-3.6684,0.2729,0.2559,0.2016,0.1089,0.038,0.0,0.0,0.0,0.0,0.0,0.0,0.0,0.0,0.0,0.0,0.0,0.0,0.0,0.0,0.0,0.0,0.0,0.0,0.0,0.0,0.0,0.0,0.0,0.0,0.0,-0.7038,-0.7967,-0.8533,-0.8482,-0.8435,-0.8387,-0.8336,-0.9481,-1.0281,-1.0672,-1.2845,-1.407,-1.4555,-1.5432,-1.5832,0.0,0.0,0.0,0.0,-1.5832,-1.5832,-1.592,-1.7225,-1.8411,-1.9679,-2.0845,-2.2031,-2.3018,-2.2178,-2.1885,-2.1738,-2.085,-2.0566,-2.0644,-2.0934,-2.2161,-2.3671,-2.4729,-2.6003,-2.7105,-2.7457,-2.8109,-2.8762,-2.9114,-2.9503,-2.9792,-2.9792,-3.0558,-3.1315,-3.1609,-3.2737,-3.3806,-3.4089,-3.4564,-3.4936,-3.5145,-3.5175,-3.525,-3.5474,-3.5504,-3.5782,-3.6492,-3.6896,-3.7221,-3.7443,-3.7298,-3.7268,-3.7503,-3.755,-3.7212,-3.6451,-3.6907,-3.6688,-3.5639,-3.6146,-3.6146,-3.5622,-3.5622,-3.5351,-3.4905,-3.6278,-3.6438,0.0,0.081,0.0733,0.0181,0.0,0.0,0.0,0.0,0.0,0.0,0.0,0.0,0.0,0.0,0.0,0.0,0.0,0.0,0.0,0.0,0.0,0.0,0.0,0.0,0.0,0.0,0.0,0.0,0.0,0.0,-0.6298,-0.7197,-0.7846,-0.8316,-0.8286,-0.8241,-0.8184,-0.8877,-0.9509,-0.9998,-1.1648,-1.2909,-1.3974,-1.4752,-1.5343,0.0,0.0,0.0,0.0,-1.5832,-1.5832,-1.5927,-1.6662,-1.777,-1.894,-1.9962,-2.1174,-2.2149,-2.1758,-2.1641,-2.1523,-2.0801,-2.0566,-2.0566,-2.0566,-2.1527,-2.2925,-2.4564,-2.6113,-2.7331,-2.7544,-2.826,-2.8988,-2.9202,-2.9528,-2.9792,-2.9792,-3.0279,-3.0758,-3.1106,-3.2464,-3.3602,-3.3945,-3.4839,-3.5504,-3.5504,-3.5504,-3.5504,-3.5504,-3.5718,-3.6243,-3.698,-3.7732,-3.8362,-3.8631,-3.8285,-3.812,-3.828,-3.8328,-3.7855,-3.6823,-3.7499,-3.733,-3.6079,-3.6535,-3.6535,-3.6062,-3.5757,-3.5457,-3.5241,-3.6243,-3.6272,0.0,0.0,0.0,0.0,0.0,0.0,0.0,0.0,0.0,0.0,0.0,0.0,0.0,0.0,0.0,0.0,0.0,0.0,0.0,0.0,0.0,0.0,0.0,0.0,0.0,0.0,0.0,0.0,0.0,0.0,-0.5977,-0.6177,-0.6847,-0.7945,-0.818,-0.8184,-0.8041,-0.8038,-0.8627,-0.9903,-0.9998,-1.1258,-1.3584,-1.368,-1.4465,0.0,0.0,0.0,0.0,-1.5772,-1.5765,-1.5765,-1.5765,-1.6504,-1.7764,-1.8506,-1.9615,-2.0743,-2.1096,-2.123,-2.1162,-2.0713,-2.0586,-2.0615,-2.0615,-2.1918,-2.3599,-2.4683,-2.6019,-2.7398,-2.8021,-2.8574,-2.9126,-2.9666,-2.9792,-2.9792,-2.9792,-2.9792,-3.0075,-3.1044,-3.196,-3.289,-3.3808,-3.4839,-3.5504,-3.5504,-3.5504,-3.5504,-3.5504,-3.6117,-3.6859,-3.769,-3.8414,-3.9123,-3.9935,-4.0003,-3.9715,-3.9039,-3.8988,-3.8328,-3.684,-3.7601,-3.7652,-3.6806,-3.6772,-3.6755,-3.6688,-3.596,-3.5837,-3.6246,-3.6036,-3.6114,0.0,0.0,0.0,0.0,0.0,0.0,0.0,0.0,0.0,0.0,0.0,0.0,0.0,0.0,0.0,0.0,0.0,0.0,0.0,0.0,0.0,0.0,0.0,0.0,0.0,0.0,0.0,0.0,0.0,-0.2746,-0.4446,-0.556,-0.6659,-0.7942,-0.8075,-0.8075,-0.8038,-0.8038,-0.8137,-0.8531,-0.9509,-1.0288,-1.097,-1.1945,-1.3108,0.0,0.0,0.0,-1.5478,-1.5257,-1.5164,-1.5164,-1.5164,-1.5958,-1.7166,-1.8136,-1.9316,-2.0361,-2.0981,-2.123,-2.1162,-2.0713,-2.0801,-2.1074,-2.1074,-2.1659,-2.2628,-2.4048,-2.5573,-2.7089,-2.835,-2.9164,-2.9616,-2.9767,-2.9792,-2.9792,-2.9792,-2.9792,-3.0075,-3.1044,-3.196,-3.289,-3.3808,-3.4839,-3.5504,-3.5504,-3.5504,-3.5504,-3.5504,-3.5668,-3.6305,-3.7648,-3.7978,-3.8384,-3.9176,-3.9242,-3.9174,-3.9005,-3.8988,-3.8328,-3.684,-3.8565,-3.87,-3.6823,-3.6772,-3.6485,-3.5893,-3.5707,-3.5362,-3.4959,-3.5866,-3.5598,-0.4755,-0.3689,-0.2433,0.0,0.0,0.0,0.0,0.0,0.0,0.0,0.0,0.0,0.0,0.0,0.0,0.0,0.0,0.0,0.0,0.0,0.0,0.0,0.0,0.0,0.0,0.0,0.0,0.0,0.0,-0.1711,-0.3015,-0.3819,-0.5022,-0.7033,-0.7033,-0.7335,-0.8038,-0.8038,-0.8038,-0.8038,-0.8726,-0.941,-0.9993,-1.0683,-1.198,0.0,0.0,0.0,-1.519,-1.503,-1.4963,-1.4963,-1.4963,-1.5397,-1.6147,-1.7548,-1.8507,-1.9296,-2.0486,-2.0928,-2.0889,-2.0644,-2.0732,-2.0928,-2.0928,-2.1133,-2.1803,-2.4007,-2.5546,-2.6959,-2.8462,-2.9365,-2.9792,-2.9792,-2.9792,-2.9792,-2.9792,-2.9792,-2.9934,-3.0482,-3.1683,-3.2749,-3.3241,-3.4558,-3.5504,-3.5504,-3.5504,-3.5504,-3.5504,-3.5782,-3.6352,-3.716,-3.7559,-3.7959,-3.8403,-3.8151,-3.8125,-3.8464,-3.8497,-3.799,-3.6823,-3.8261,-3.8362,-3.6806,-3.6772,-3.64,-3.5622,-3.5622,-3.5402,-3.5013,-3.5803,-3.5636,-0.5456,-0.4968,-0.4012,-0.2157,0.0,0.0,0.0,0.0,0.0,0.0,0.0,0.0,0.0,0.0,0.0,0.0,0.0,0.0,0.0,0.0,0.0,0.0,0.0,0.0,0.0,0.0,0.0,0.0,0.0,-0.0605,-0.1913,-0.2013,-0.3116,-0.5627,-0.5929,-0.6531,-0.7637,-0.7939,-0.8038,-0.8038,-0.8038,-0.8616,-0.9657,-0.9501,-1.083,-1.3042,0.0,0.0,-1.4897,-1.485,-1.483,-1.483,-1.483,-1.483,-1.5055,-1.6993,-1.7721,-1.8004,-1.9957,-2.0566,-2.0566,-2.0566,-2.0605,-2.0664,-2.0664,-2.0664,-2.1301,-2.4057,-2.5592,-2.6733,-2.8311,-2.9276,-2.9792,-2.9792,-2.9792,-2.9792,-2.9792,-2.9792,-2.9792,-2.9792,-3.1341,-3.2593,-3.2593,-3.4192,-3.5504,-3.5504,-3.5504,-3.5504,-3.5504,-3.607,-3.6508,-3.6615,-3.7189,-3.7687,-3.7801,-3.7185,-3.7067,-3.7702,-3.7838,-3.7669,-3.7144,-3.7516,-3.7432,-3.6789,-3.6772,-3.64,-3.5622,-3.5622,-3.5622,-3.5605,-3.5866,-3.5927,-0.5518,-0.561,-0.5355,-0.3976,0.0,0.0,0.0,0.0,0.0,0.0,0.0,0.0,0.0,0.0,0.0,0.0,0.0,0.0,0.0,0.0,0.0,0.0,0.0,0.0,0.0,0.0,0.0,0.0,0.0,-0.0605,-0.1913,-0.2013,-0.2715,-0.4218,-0.5425,-0.6129,-0.6331,-0.7437,-0.8038,-0.8038,-0.8038,-0.8069,-0.8132,-0.8108,-0.944,-1.1594,0.0,-1.2431,-1.4569,-1.4322,-1.4222,-1.4222,-1.4222,-1.4222,-1.4464,-1.6629,-1.7343,-1.7652,-1.9854,-2.0566,-2.0566,-2.0566,-2.082,-2.1133,-2.1133,-2.1133,-2.154,-2.3759,-2.4843,-2.575,-2.7281,-2.879,-2.9792,-2.9792,-2.9792,-2.9792,-2.9792,-2.9792,-2.9792,-2.9792,-3.1341,-3.2593,-3.2593,-3.4192,-3.5504,-3.5504,-3.5504,-3.5504,-3.5504,-3.5619,-3.5894,-3.6554,-3.6689,-3.7086,-3.7744,-3.7131,-3.6771,-3.6975,-3.755,-3.8125,-3.8633,-3.755,-3.6907,-3.6772,-3.6772,-3.64,-3.5622,-3.5622,-3.5622,-3.5622,-3.6086,-3.6164,-0.5691,-0.5834,-0.5974,-0.5095,0.0,0.0,0.0,0.0,0.0,0.0,0.0,0.0,0.0,0.0,0.0,0.0,0.0,0.0,0.0,0.0,0.0,0.0,0.0,0.0,0.0,0.0,0.0,0.0,0.0,0.0,-0.0894,-0.0894,-0.158,-0.283,-0.3512,-0.4485,-0.5846,-0.6526,-0.7149,-0.7916,-0.7838,-0.7767,-0.7695,-0.7611,-0.8822,-1.0995,0.0,-1.1916,-1.4035,-1.3901,-1.3848,-1.3848,-1.3848,-1.3948,-1.4334,-1.6527,-1.806,-1.9265,-2.0245,-2.0566,-2.0566,-2.0566,-2.0703,-2.0869,-2.0869,-2.0869,-2.1075,-2.2261,-2.3801,-2.5586,-2.738,-2.8844,-2.9792,-2.9792,-2.9792,-2.9792,-2.9792,-2.9792,-2.9792,-2.9792,-3.0921,-3.2033,-3.2536,-3.3754,-3.4839,-3.5439,-3.5504,-3.5504,-3.5504,-3.5504,-3.5619,-3.5943,-3.6014,-3.6172,-3.654,-3.6296,-3.6092,-3.6151,-3.6485,-3.6823,-3.7161,-3.6518,-3.6146,-3.6146,-3.6146,-3.5977,-3.5622,-3.5622,-3.5622,-3.5605,-3.5752,-3.609,-0.6237,-0.6366,-0.6693,0.0,0.0,-0.4225,-0.2303,0.0,0.0,0.0,0.0,0.0,0.0,0.0,0.0,0.0,0.0,0.0,0.0,0.0,0.0,0.0,0.0,0.0,0.0,0.0,0.0,0.0,0.0,0.0,0.0,0.0,-0.0484,-0.1524,-0.2093,-0.3324,-0.531,-0.5826,-0.6629,-0.776,-0.7651,-0.758,-0.7543,-0.7424,-0.8517,-1.0327,-1.0458,-1.1545,-1.3212,-1.3404,-1.354,-1.354,-1.354,-1.3878,-1.4629,-1.6482,-1.8461,-2.0226,-2.0372,-2.0478,-2.0566,-2.0566,-2.0566,-2.0566,-2.0566,-2.0566,-2.0654,-2.1103,-2.2929,-2.5206,-2.7114,-2.8512,-2.9456,-2.9714,-2.9792,-2.9792,-2.9792,-2.9792,-2.9792,-2.9792,-3.0771,-3.1742,-3.2464,-3.3602,-3.461,-3.5359,-3.5504,-3.5504,-3.5504,-3.5504,-3.5504,-3.5504,-3.5503,-3.5507,-3.5525,-3.5734,-3.5777,-3.5628,-3.5622,-3.569,-3.5876,-3.5723,-3.5622,-3.5622,-3.5622,-3.5622,-3.5622,-3.5622,-3.565,-3.581,-3.5769,-3.6341,-0.7637,-0.7716,-0.7861,-0.7812,0.0,0.0,-0.3016,-0.2058,0.0,0.0,0.0,0.0,0.0,0.0,0.0,0.0,0.0,0.0,0.0,0.0,0.0,0.0,0.0,0.0,0.0,0.0,0.0,0.0,0.0,0.0,0.0,0.0,0.0,-0.0095,-0.247,-0.3798,-0.3987,-0.594,-0.7228,-0.7614,-0.7604,-0.7526,-0.7387,-0.7377,-0.8009,-0.9074,-0.9894,-1.0883,-1.2093,-1.2939,-1.324,-1.324,-1.324,-1.4041,-1.5328,-1.634,-1.7751,-1.9228,-1.9783,-2.0225,-2.0566,-2.0566,-2.0566,-2.0566,-2.0566,-2.0566,-2.0654,-2.1103,-2.2381,-2.4009,-2.5563,-2.7092,-2.8518,-2.9534,-2.9792,-2.9792,-2.9792,-2.9792,-2.9792,-2.9792,-3.1267,-3.2522,-3.2593,-3.4124,-3.5439,-3.5504,-3.5504,-3.5504,-3.5504,-3.5504,-3.5504,-3.5504,-3.5524,-3.5506,-3.5586,-3.6214,-3.6356,-3.5661,-3.5622,-3.5943,-3.6671,-3.6011,-3.5622,-3.5622,-3.5622,-3.5622,-3.5622,-3.5622,-3.5871,-3.6333,-3.6829,-3.7343,-0.7845,-0.8179,-0.8723,-0.826,0.0,0.0,0.0,0.0,0.0,0.0,0.0,0.0,0.0,0.0,0.0,0.0,0.0,0.0,0.0,0.0,0.0,0.0,0.0,0.0,0.0,0.0,0.0,0.0,0.0,0.0,0.0,0.0,0.0,0.0,-0.1597,-0.2816,-0.3519,-0.5018,-0.6147,-0.7041,-0.7041,-0.701,-0.6956,-0.6956,-0.7595,-0.8615,-0.9611,-1.0562,-1.155,-1.2564,-1.2919,-1.2946,-1.3133,-1.4085,-1.545,-1.6466,-1.7725,-1.9097,-2.0053,-2.043,-2.0566,-2.0566,-2.0566,-2.0566,-2.0566,-2.0566,-2.08,-2.1855,-2.2553,-2.3387,-2.5281,-2.6978,-2.8426,-2.9534,-2.9792,-2.9792,-2.9792,-2.9792,-2.9792,-2.9792,-3.0833,-3.1888,-3.2536,-3.3685,-3.4758,-3.5439,-3.5504,-3.5504,-3.5504,-3.5504,-3.5504,-3.5504,-3.5894,-3.6198,-3.6278,-3.695,-3.7103,-3.6388,-3.5893,-3.5757,-3.6045,-3.5774,-3.5622,-3.5622,-3.5622,-3.5622,-3.5622,-3.5941,-3.5924,-3.5665,-3.6204,-3.6435,-0.8503,-0.8883,-0.9464,0.0,0.0,0.0,0.0,0.0,0.0,0.0,0.0,0.0,0.0,0.0,0.0,0.0,0.0,0.0,0.0,0.0,0.0,0.0,0.0,0.0,0.0,0.0,0.0,0.0,0.0,0.0,0.0,0.0,0.0,0.0,-0.1092,-0.2156,-0.3232,-0.4329,-0.5453,-0.6563,-0.6512,-0.6563,-0.6702,-0.6702,-0.7105,-0.7914,-0.9223,-1.0148,-1.0789,-1.2101,-1.2605,-1.2639,-1.2946,-1.3701,-1.4815,-1.6012,-1.7363,-1.8603,-1.9774,-2.0342,-2.0566,-2.0566,-2.0566,-2.0566,-2.0566,-2.0566,-2.0848,-2.2118,-2.2615,-2.3179,-2.5239,-2.6854,-2.8143,-2.9496,-2.9792,-2.9792,-2.9792,-2.9792,-2.9792,-2.9792,-3.0558,-3.1536,-3.2464,-3.338,-3.4327,-3.5359,-3.5504,-3.5504,-3.5504,-3.5504,-3.5504,-3.5504,-3.5919,-3.625,-3.6366,-3.682,-3.692,-3.6439,-3.591,-3.5723,-3.5977,-3.5994,-3.5994,-3.5994,-3.574,-3.5622,-3.5622,-3.6139,-3.6058,-3.5436,-3.6235,-3.6321,-0.9846,-0.99,0.0,0.0,0.0,0.0,0.0,0.0,0.0,0.0,0.0,0.0,0.0,0.0,0.0,0.0,0.0,0.0,0.0,0.0,0.0,0.0,0.0,0.0,0.0,0.0,0.0,0.0,0.0,0.0,0.0,0.0,0.0,0.0,-0.1149,-0.2184,-0.3071,-0.4164,-0.5261,-0.6254,-0.6101,-0.6264,-0.6698,-0.6698,-0.6698,-0.6767,-0.8679,-0.9453,-0.9667,-1.1508,-1.2305,-1.2331,-1.2701,-1.2933,-1.3396,-1.502,-1.6308,-1.7468,-1.8817,-1.9853,-2.0557,-2.0566,-2.0566,-2.0566,-2.0566,-2.0644,-2.0789,-2.1735,-2.2363,-2.3174,-2.5289,-2.6514,-2.7675,-2.9397,-2.9779,-2.9779,-2.9779,-2.9792,-2.9792,-2.9792,-3.0558,-3.1536,-3.2464,-3.338,-3.4327,-3.5359,-3.5504,-3.5504,-3.5504,-3.5504,-3.5504,-3.5489,-3.5522,-3.5521,-3.5625,-3.5613,-3.5611,-3.5628,-3.5639,-3.5977,-3.6738,-3.6772,-3.6772,-3.6772,-3.6011,-3.5622,-3.5622,-3.6139,-3.6225,-3.595,-3.729,-3.7312,-0.9786,0.0,0.0,0.0,0.0,0.0,0.0,0.0,0.0,0.0,0.0,0.0,0.0,0.0,0.0,0.0,0.0,0.0,0.0,0.0,0.0,0.0,0.0,0.0,0.0,0.0,0.0,0.0,0.0,0.0,0.0,0.0,0.0,0.0,-0.1067,-0.1804,-0.2028,-0.3693,-0.4711,-0.5043,-0.5593,-0.6051,-0.639,-0.639,-0.639,-0.6465,-0.7729,-0.8702,-0.954,-1.1509,-1.2305,-1.2311,-1.2398,-1.2619,-1.3174,-1.5067,-1.6055,-1.6867,-1.9005,-1.9893,-2.0156,-2.0469,-2.0566,-2.0566,-2.0566,-2.1078,-2.1811,-2.2776,-2.37,-2.4722,-2.6418,-2.7063,-2.7519,-2.8399,-2.89,-2.9189,-2.9189,-2.9503,-2.9792,-2.9792,-3.0558,-3.1536,-3.2464,-3.338,-3.4327,-3.5359,-3.5504,-3.5504,-3.5504,-3.5504,-3.5325,-3.4831,-3.5278,-3.5607,-3.5648,-3.614,-3.6439,-3.6422,-3.6941,-3.6857,-3.5994,-3.596,-3.596,-3.596,-3.574,-3.5622,-3.5622,-3.6522,-3.6615,-3.5932,-3.7073,-3.6808,-0.9873,0.0,0.0,0.0,0.0,0.0,0.0,0.0,0.0,0.0,0.0,0.0,0.0,0.0,0.0,0.0,0.0,0.0,0.0,0.0,0.0,0.0,0.0,0.0,0.0,0.0,0.0,0.0,0.0,0.0,0.0,0.0,0.0,0.0,-0.0654,-0.1147,-0.1503,-0.2614,-0.3602,-0.4354,-0.4927,-0.5475,-0.6081,-0.6142,-0.6169,-0.6249,-0.7294,-0.8613,-0.9965,-1.1168,-1.1922,-1.2305,-1.2305,-1.2485,-1.2954,-1.4444,-1.5502,-1.6464,-1.823,-1.9216,-1.9707,-1.9971,-2.0059,-2.0059,-2.0059,-2.0492,-2.1197,-2.2501,-2.3518,-2.4555,-2.6238,-2.6779,-2.7155,-2.7921,-2.836,-2.8662,-2.8875,-2.9038,-2.9189,-2.9402,-2.9755,-3.0348,-3.1679,-3.2372,-3.3145,-3.4505,-3.4711,-3.4711,-3.4711,-3.4711,-3.4547,-3.4128,-3.4737,-3.5228,-3.5256,-3.5907,-3.6346,-3.6349,-3.6755,-3.6586,-3.5656,-3.591,-3.6079,-3.6079,-3.5774,-3.5559,-3.5454,-3.6291,-3.6201,-3.5277,-3.6479,-3.6119,0.0,0.0,0.0,0.0,0.0,0.0,0.0,0.0,0.0,0.0,0.0,0.0,0.0,0.0,0.0,0.0,0.0,0.0,0.0,0.0,0.0,0.0,0.0,0.0,0.0,0.0,0.0,0.0,0.0,0.0,0.0,0.0,0.0,0.0,0.0,-0.0347,-0.1175,-0.1284,-0.2164,-0.3949,-0.4097,-0.4714,-0.562,-0.5858,-0.601,-0.6017,-0.7207,-0.8774,-1.049,-1.0644,-1.1243,-1.2078,-1.2225,-1.2385,-1.2743,-1.3441,-1.4649,-1.6188,-1.6908,-1.8087,-1.9238,-1.9277,-1.9287,-1.9287,-1.9287,-1.936,-1.9775,-2.1494,-2.2441,-2.3363,-2.511,-2.5912,-2.6565,-2.757,-2.7921,-2.8172,-2.8674,-2.8423,-2.8247,-2.875,-2.8522,-2.8782,-3.0528,-3.0865,-3.1542,-3.3223,-3.3499,-3.3499,-3.3499,-3.3499,-3.3469,-3.341,-3.4048,-3.45,-3.4489,-3.5133,-3.5515,-3.5577,-3.5622,-3.5622,-3.5622,-3.6299,-3.6671,-3.6671,-3.6022,-3.5522,-3.5192,-3.5726,-3.5438,-3.4438,-3.5622,-3.5367,0.0,0.0,0.0,0.0,0.0,0.0,0.0,0.0,0.0,0.0,0.0,0.0,0.0,0.0,0.0,0.0,0.0,0.0,0.0,0.0,0.0,0.0,0.0,0.0,0.0,0.0,0.0,0.0,0.0,0.0,0.0,0.0,0.0,0.0,0.0,-0.0064,-0.0254,-0.0967,-0.1499,0.0,-0.3345,-0.4131,-0.4436,-0.537,-0.585,-0.5923,-0.6957,-0.7618,-0.8188,-0.9619,-1.0407,-1.0624,-1.1331,-1.165,-1.1871,-1.2946,-1.4073,-1.5242,-1.6697,-1.79,-1.8828,-1.918,-1.9287,-1.9287,-1.9287,-1.9847,-2.0684,-2.1702,-2.2673,-2.3601,-2.471,-2.5084,-2.5234,-2.5473,-2.6515,-2.7494,-2.7607,-2.7883,-2.8134,-2.826,-2.8728,-2.9451,-3.0596,-3.1345,-3.2205,-3.3362,-3.3499,-3.3499,-3.3499,-3.3499,-3.3305,-3.2781,-3.333,-3.3771,-3.3802,-3.4431,-3.5052,-3.5577,-3.5622,-3.5622,-3.5622,-3.5774,-3.5876,-3.5876,-3.6114,-3.5887,-3.5192,-3.6096,-3.6083,-3.5245,-3.5276,-3.5082,0.0,0.0,0.0,0.0,0.0,0.0,0.0,0.0,0.0,0.0,0.0,0.0,0.0,0.0,0.0,0.0,0.0,0.0,0.0,0.0,0.0,0.0,0.0,0.0,0.0,0.0,0.0,0.0,0.0,0.0,0.0,0.0,0.0,0.0,0.0,0.0,0.0,-0.0439,-0.0883,-0.1324,-0.2619,-0.3665,-0.4446,-0.5323,-0.5739,-0.58,-0.6365,-0.6861,-0.742,-0.8834,-0.9684,-1.017,-1.1073,-1.1516,-1.1727,-1.2368,-1.363,-1.5072,-1.5962,-1.7183,-1.8379,-1.8603,-1.8682,-1.8682,-1.8682,-1.9014,-1.9689,-2.0951,-2.1921,-2.2791,-2.4087,-2.4619,-2.4883,-2.5134,-2.585,-2.6553,-2.6829,-2.7118,-2.7394,-2.7657,-2.8164,-2.8892,-2.9811,-3.0982,-3.197,-3.2497,-3.2557,-3.2557,-3.2557,-3.2557,-3.2526,-3.257,-3.289,-3.3347,-3.402,-3.4382,-3.4894,-3.5577,-3.5622,-3.5453,-3.5098,-3.5081,-3.525,-3.556,-3.5539,-3.5318,-3.4938,-3.512,-3.5022,-3.4684,-3.4503,-3.4431,0.0,0.0,0.0,0.0,0.0,0.0,0.0,0.0,0.0,0.0,0.0,0.0,0.0,0.0,0.0,0.0,0.0,0.0,0.0,0.0,0.0,0.0,0.0,0.0,0.0,0.0,0.0,0.0,0.0,0.0,0.0,0.0,0.0,0.0,0.0,0.0,0.0,0.0,-0.0367,-0.11,-0.1902,-0.3134,-0.4745,-0.5104,-0.5398,-0.565,-0.5701,-0.6198,-0.7003,-0.8077,-0.8997,-0.9828,-1.0863,-1.1423,-1.165,-1.1697,-1.3112,-1.4969,-1.5093,-1.6339,-1.791,-1.7988,-1.8008,-1.8008,-1.8008,-1.8008,-1.8337,-1.9955,-2.0817,-2.1655,-2.3191,-2.4054,-2.4644,-2.5071,-2.5247,-2.5536,-2.6302,-2.6533,-2.6659,-2.7055,-2.7485,-2.8051,-2.9066,-3.0303,-3.1172,-3.1302,-3.127,-3.1195,-3.1195,-3.1195,-3.1407,-3.2044,-3.2392,-3.3061,-3.4153,-3.4558,-3.5005,-3.556,-3.5622,-3.5351,-3.4726,-3.4556,-3.4793,-3.5419,-3.4762,-3.4444,-3.4428,-3.3969,-3.3719,-3.3707,-3.378,-3.3807,0.0,0.0,0.0,0.0,0.0,0.0,0.0,0.0,0.0,0.0,0.0,0.0,0.0,0.0,0.0,0.0,0.0,0.0,0.0,0.0,0.0,0.0,0.0,0.0,0.0,0.0,0.0,0.0,0.0,0.0,0.0,0.0,0.0,0.0,0.0,0.0,0.0,0.0,-0.0059,-0.0178,-0.1033,-0.2337,-0.3936,-0.3982,-0.4388,-0.505,-0.5308,-0.5411,-0.5549,-0.7316,-0.8179,-0.8445,-1.0078,-1.0701,-1.0833,-1.1015,-1.2233,-1.3907,-1.4537,-1.5936,-1.7529,-1.7891,-1.8008,-1.8008,-1.8008,-1.8008,-1.8202,-1.9177,-2.0064,-2.0948,-2.1922,-2.2739,-2.3315,-2.3452,-2.3841,-2.4619,-2.6138,-2.6533,-2.6546,-2.6553,-2.7214,-2.8247,-2.9827,-2.9808,-2.9813,-3.0529,-3.0178,-2.9849,-2.9849,-2.9849,-2.9888,-2.9997,-3.154,-3.2686,-3.2819,-3.4435,-3.5515,-3.5577,-3.5622,-3.5571,-3.547,-3.4844,-3.4539,-3.4641,-3.438,-3.3883,-3.3217,-3.3942,-3.396,-3.3302,-3.3652,-3.3807,0.0,0.0,0.0,0.0,0.0,0.0,0.0,0.0,0.0,0.0,0.0,0.0,0.0,0.0,0.0,0.0,0.0,0.0,0.0,0.0,0.0,0.0,0.0,0.0,0.0,0.0,0.0,0.0,0.0,0.0,0.0,0.0,0.0,0.0,0.0,0.0,0.0,0.0,-0.0229,-0.0629,-0.0986,-0.1982,-0.3498,-0.362,-0.4111,-0.4931,-0.5142,-0.5192,-0.5265,-0.7223,-0.8027,-0.8156,-0.9907,-1.0661,-1.0822,-1.0949,-1.1941,-1.3312,-1.4081,-1.5252,-1.6468,-1.7377,-1.749,-1.7383,-1.7861,-1.7842,-1.7962,-1.9553,-2.0333,-2.091,-2.2249,-2.2823,-2.3213,-2.354,-2.3816,-2.428,-2.5322,-2.5548,-2.5757,-2.6567,-2.7313,-2.8242,-2.9497,-2.958,-2.9581,-2.9928,-2.9759,-2.9579,-2.9579,-2.9579,-2.9711,-3.009,-3.0907,-3.172,-3.2494,-3.3317,-3.3957,-3.4327,-3.4759,-3.481,-3.4387,-3.4066,-3.3677,-3.3271,-3.3202,-3.3179,-3.3335,-3.3344,-3.3417,-3.355,-3.3707,-3.3807,0.0,0.0,0.0,0.0,0.0,0.0,0.0,0.0,0.0,0.0,0.0,0.0,0.0,0.0,0.0,0.0,0.0,0.0,0.0,0.0,0.0,0.0,0.0,0.0,0.0,0.0,0.0,0.0,0.0,0.0,0.0,0.0,0.0,0.0,0.0,0.0,0.0,0.0,-0.028,-0.0839,-0.0839,-0.1507,-0.2734,-0.309,-0.3696,-0.4511,-0.4872,-0.5053,-0.5154,-0.707,-0.7889,-0.8058,-0.9725,-1.0561,-1.0875,-1.0802,-1.153,-1.2732,-1.3656,-1.459,-1.557,-1.6802,-1.7002,-1.6875,-1.7627,-1.7637,-1.7724,-1.9435,-2.0268,-2.091,-2.2113,-2.275,-2.3178,-2.3678,-2.3778,-2.3966,-2.4669,-2.482,-2.5179,-2.6385,-2.7068,-2.7795,-2.884,-2.9037,-2.908,-2.9325,-2.919,-2.9071,-2.9071,-2.9071,-2.9357,-3.0014,-3.032,-3.099,-3.2126,-3.2503,-3.2857,-3.3364,-3.3914,-3.3964,-3.3423,-3.322,-3.2848,-3.229,-3.2104,-3.2368,-3.3143,-3.2716,-3.2903,-3.3652,-3.3734,-3.3807,0.0,0.0,0.0,0.0,0.0,0.0,0.0,0.0,0.0,0.0,0.0,0.0,0.0,0.0,0.0,0.0,0.0,0.0,0.0,0.0,0.0,0.0,0.0,0.0,0.0,0.0,0.0,0.0,0.0,0.0,0.0,0.0,0.0,0.0,0.0,0.0,0.0,0.0,0.0,-0.0056,-0.0056,-0.0448,-0.1229,-0.1956,-0.2685,-0.3431,-0.4439,-0.4847,-0.4838,-0.6584,-0.7507,-0.7861,-0.9223,-1.008,-1.0548,-1.0267,-1.0882,-1.2056,-1.3194,-1.4202,-1.5157,-1.636,-1.6748,-1.6816,-1.7275,-1.7402,-1.7471,-1.8026,-1.9299,-2.059,-2.0719,-2.1928,-2.3078,-2.3115,-2.3175,-2.3416,-2.4582,-2.482,-2.5065,-2.5772,-2.5946,-2.6499,-2.8068,-2.7822,-2.7694,-2.8532,-2.8098,-2.773,-2.773,-2.773,-2.7916,-2.8523,-2.9722,-3.0755,-3.1413,-3.2612,-3.3364,-3.3406,-3.344,-3.344,-3.3406,-3.2713,-3.2364,-3.2313,-3.1596,-3.1479,-3.1877,-3.2282,-3.2745,-3.3243,-3.3606,-3.3807,0.0,0.0,0.0,0.0,0.0,0.0,0.0,0.0,0.0,0.0,0.0,0.0,0.0,0.0,0.0,0.0,0.0,0.0,0.0,0.0,0.0,0.0,0.0,0.0,0.0,0.0,0.0,0.0,0.0,0.0,0.0,0.0,0.0,0.0,0.0,0.0,0.0,0.0,0.0,0.0,0.0,-0.0392,-0.1118,-0.1842,-0.2619,-0.3347,-0.4232,-0.465,-0.4817,-0.6083,-0.6921,-0.7521,-0.8581,-0.9496,-1.0261,-1.0154,-1.0479,-1.1185,-1.2094,-1.3005,-1.3882,-1.5148,-1.5676,-1.6016,-1.6748,-1.6768,-1.6806,-1.8015,-1.9019,-1.9907,-2.1128,-2.1995,-2.2698,-2.299,-2.3078,-2.3178,-2.3653,-2.4029,-2.4519,-2.5271,-2.5788,-2.6425,-2.747,-2.7555,-2.758,-2.7934,-2.7724,-2.7625,-2.7625,-2.7625,-2.766,-2.791,-2.903,-2.9865,-3.0089,-3.1275,-3.1985,-3.1985,-3.2425,-3.2679,-3.2679,-3.2425,-3.2313,-3.2313,-3.1562,-3.1389,-3.1789,-3.2264,-3.2745,-3.3214,-3.3606,-3.3807,0.0,0.0,0.0,0.0,0.0,0.0,0.0,0.0,0.0,0.0,0.0,0.0,0.0,0.0,0.0,0.0,0.0,0.0,0.0,0.0,0.0,0.0,0.0,0.0,0.0,0.0,0.0,0.0,0.0,0.0,0.0,0.0,0.0,0.0,0.0,0.0,0.0,0.0,-0.0112,-0.0392,-0.0392,-0.0783,-0.1507,-0.2232,-0.2843,-0.3345,-0.4125,-0.4577,-0.4676,-0.5578,-0.6473,-0.7295,-0.8034,-0.9032,-1.0107,-1.0007,-1.0221,-1.0744,-1.1841,-1.2573,-1.3224,-1.4641,-1.5219,-1.5547,-1.6289,-1.6299,-1.6333,-1.7612,-1.8341,-1.9088,-2.0546,-2.1643,-2.2447,-2.294,-2.3078,-2.3078,-2.3078,-2.3439,-2.3997,-2.5037,-2.5605,-2.6217,-2.7209,-2.7328,-2.7245,-2.7245,-2.7051,-2.6991,-2.7215,-2.7245,-2.742,-2.7879,-2.881,-2.9496,-2.9673,-3.0601,-3.119,-3.119,-3.1647,-3.1918,-3.1918,-3.1918,-3.1981,-3.2144,-3.1666,-3.1603,-3.2039,-3.235,-3.2809,-3.3408,-3.368,-3.3807,0.0,0.0,0.0,0.0,0.0,0.0,0.0,0.0,0.0,0.0,0.0,0.0,0.0,0.0,0.0,0.0,0.0,0.0,0.0,0.0,0.0,0.0,0.0,0.0,0.0,0.0,0.0,0.0,0.0,0.0,0.0,0.0,0.0,0.0,0.0,0.0,-0.0053,-0.0055,-0.0392,-0.1118,-0.1118,-0.1507,-0.2232,-0.2954,-0.3287,-0.3345,-0.4125,-0.4519,-0.457,-0.5218,-0.6096,-0.7115,-0.7492,-0.8645,-1.0053,-0.9773,-1.004,-1.0793,-1.2381,-1.3,-1.3252,-1.4855,-1.5342,-1.5488,-1.5958,-1.6096,-1.6133,-1.6592,-1.7306,-1.8126,-1.891,-2.0665,-2.2422,-2.2902,-2.304,-2.3053,-2.3027,-2.304,-2.3505,-2.5119,-2.5398,-2.5877,-2.7327,-2.7006,-2.6572,-2.6557,-2.6019,-2.5839,-2.6482,-2.6572,-2.707,-2.8323,-2.9042,-2.9629,-3.0251,-3.0838,-3.119,-3.119,-3.119,-3.119,-3.123,-3.1213,-3.1393,-3.1825,-3.1773,-3.2004,-3.2482,-3.25,-3.2947,-3.3743,-3.3733,-3.3733,-0.8804,0.0,0.0,0.0,0.0,0.0,0.0,0.0,0.0,0.0,0.0,0.0,0.0,0.0,0.0,0.0,0.0,0.0,0.0,0.0,0.0,0.0,0.0,0.0,0.0,0.0,0.0,0.0,0.0,0.0,0.0,0.0,0.0,0.0,0.0,-0.0272,-0.0772,-0.078,-0.1174,-0.1898,-0.1898,-0.2009,-0.2232,-0.301,-0.3345,-0.3345,-0.4125,-0.4519,-0.4519,-0.468,-0.5525,-0.6728,-0.6885,-0.7964,-0.9416,-0.9392,-0.9733,-1.0418,-1.1421,-1.2297,-1.3149,-1.3879,-1.4686,-1.5381,-1.5195,-1.5352,-1.5684,-1.6123,-1.6607,-1.7291,-1.9011,-2.0596,-2.1757,-2.1907,-2.2246,-2.2435,-2.2033,-2.2259,-2.3103,-2.5037,-2.5398,-2.5697,-2.6733,-2.6707,-2.6437,-2.5959,-2.5734,-2.5674,-2.5854,-2.6303,-2.6874,-2.7674,-2.8742,-2.9629,-3.0251,-3.0838,-3.119,-3.119,-3.119,-3.1312,-3.164,-3.107,-3.1271,-3.2298,-3.1142,-3.1087,-3.214,-3.2714,-3.2817,-3.2508,-3.219,-3.2375,0.0,0.0,0.0,0.0,0.0,0.0,-0.8804,-0.8804,-0.8851,0.0,0.0,0.0,0.0,0.0,0.0,0.0,0.0,0.0,0.0,0.0,0.0,0.0,0.0,0.0,0.0,0.0,0.0,0.0,0.0,0.0,0.0,0.0,0.0,0.0,-0.0315,-0.0653,-0.1094,-0.1386,-0.1952,-0.2676,-0.2676,-0.2843,-0.3178,-0.3624,-0.3846,-0.3846,-0.4294,-0.4519,-0.4515,-0.4787,-0.5605,-0.6642,-0.6912,-0.793,-0.9183,-0.9183,-0.9539,-1.0105,-1.1186,-1.2009,-1.268,-1.3512,-1.4402,-1.5107,-1.4863,-1.5078,-1.5469,-1.5723,-1.6345,-1.7367,-1.9159,-2.0385,-2.1204,-2.143,-2.1732,-2.1882,-2.1556,-2.1744,-2.2501,-2.4313,-2.4652,-2.4952,-2.5986,-2.5959,-2.5644,-2.5255,-2.4956,-2.4881,-2.5166,-2.5983,-2.6795,-2.7426,-2.8885,-2.9778,-2.9823,-3.0369,-3.0615,-3.0294,-3.0415,-3.0602,-3.0837,-3.0542,-3.0808,-3.1782,-3.0861,-3.0837,-3.1747,-3.205,-3.2032,-3.1729,-3.1503,-3.1641,0.0,0.0,0.0,0.0,0.0,0.0,-0.8804,-0.8804,-0.8804,0.0,0.0,0.0,0.0,0.0,0.0,0.0,0.0,0.0,0.0,0.0,0.0,0.0,0.0,0.0,-0.0112,-0.0056,0.0,0.0,0.0,0.0,0.0,0.0,0.0,0.0,-0.069,-0.1152,-0.1227,-0.1978,-0.2676,-0.3456,-0.3456,-0.379,-0.4519,-0.4519,-0.4519,-0.4519,-0.4519,-0.4519,-0.457,-0.5328,-0.5982,-0.6696,-0.7396,-0.8298,-0.9137,-0.9137,-0.9379,-0.9856,-1.1336,-1.1861,-1.2163,-1.3572,-1.4365,-1.4697,-1.4658,-1.4941,-1.5273,-1.5438,-1.6444,-1.7831,-1.9187,-2.0054,-2.069,-2.1192,-2.1343,-2.138,-2.1317,-2.1355,-2.1796,-2.3139,-2.3506,-2.3983,-2.526,-2.497,-2.4552,-2.4477,-2.3984,-2.3819,-2.4388,-2.5572,-2.6647,-2.7299,-2.8995,-2.984,-2.922,-2.9671,-2.9702,-2.9025,-2.9264,-2.9488,-2.9589,-2.9828,-3.0279,-3.0838,-3.0794,-3.0866,-3.1127,-3.0866,-3.0902,-3.1256,-3.1182,-3.1182,0.0,0.0,0.0,0.0,0.0,0.0,-0.8804,-0.8804,-0.8804,0.0,0.0,0.0,0.0,0.0,0.0,0.0,0.0,0.0,0.0,0.0,0.0,0.0,0.0,0.0,-0.0895,-0.0336,0.0,0.0,0.0,0.0,0.0,0.0,0.0,0.0,-0.069,-0.1407,-0.1988,-0.2722,-0.3456,-0.4294,-0.4294,-0.4349,-0.4519,-0.4519,-0.4519,-0.4519,-0.4519,-0.4519,-0.4574,-0.5878,-0.6475,-0.6696,-0.7396,-0.8187,-0.8891,-0.8891,-0.9078,-0.9542,-1.1042,-1.1709,-1.2066,-1.3251,-1.3916,-1.4199,-1.3857,-1.4043,-1.4552,-1.555,-1.6461,-1.7376,-1.8578,-1.9426,-1.9999,-2.0112,-2.0489,-2.0702,-2.0238,-2.0489,-2.1091,-2.1923,-2.2898,-2.3842,-2.4667,-2.4672,-2.4403,-2.3879,-2.3684,-2.3655,-2.3789,-2.4841,-2.5862,-2.6475,-2.7745,-2.8671,-2.8992,-2.9158,-2.9144,-2.8991,-2.9066,-2.9369,-3.0043,-2.9536,-2.9883,-3.1265,-3.0661,-3.0045,-2.9475,-3.0045,-3.0357,-3.0411,-2.9769,-2.9824,0.0,0.0,0.0,-0.8804,0.0,0.0,0.0,-0.8804,-0.8804,0.0,0.0,0.0,0.0,0.0,0.0,0.0,0.0,0.0,0.0,0.0,0.0,0.0,0.0,0.0,-0.2221,-0.1172,-0.0387,-0.0053,0.0,-0.0155,-0.0518,-0.0527,-0.0743,-0.1061,-0.1832,-0.2356,-0.2732,-0.3511,-0.4125,-0.4519,-0.4519,-0.4519,-0.4519,-0.4519,-0.4519,-0.4519,-0.4519,-0.4519,-0.4625,-0.6046,-0.6588,-0.6696,-0.783,-0.848,-0.8804,-0.8804,-0.8898,-0.9234,-1.0624,-1.1262,-1.1545,-1.2789,-1.3477,-1.3779,-1.3574,-1.4007,-1.4807,-1.5805,-1.6535,-1.7268,-1.821,-1.8734,-1.9083,-1.9346,-1.9422,-1.9434,-1.9422,-1.966,-2.0051,-2.0685,-2.1541,-2.2566,-2.3867,-2.4118,-2.3999,-2.3655,-2.3595,-2.3595,-2.3595,-2.4925,-2.5955,-2.6294,-2.7668,-2.8494,-2.8397,-2.8399,-2.823,-2.7875,-2.8218,-2.8638,-2.9036,-2.9016,-2.9362,-3.0191,-2.9824,-2.9402,-2.8994,-2.9402,-2.9604,-2.9604,-2.92,-2.9237,0.0,0.0,0.0,0.0,0.0,-0.8804,0.0,0.0,0.0,0.0,0.0,0.0,0.0,0.0,0.0,0.0,0.0,0.0,0.0,0.0,0.0,0.0,0.0,0.0,0.0,-0.2375,-0.1151,-0.0269,-0.032,-0.0632,-0.1082,-0.1248,-0.1598,-0.2195,-0.2911,-0.3287,-0.3345,-0.4125,-0.4519,-0.4519,-0.4519,-0.4519,-0.4519,-0.4519,-0.4519,-0.4519,-0.4519,-0.4519,-0.4625,-0.6046,-0.6588,-0.675,-0.8209,-0.8804,-0.8804,-0.8804,-0.8804,-0.9008,-1.0312,-1.0813,-1.1023,-1.2461,-1.3105,-1.3389,-1.3389,-1.3982,-1.4882,-1.582,-1.6428,-1.699,-1.7964,-1.8204,-1.8317,-1.8769,-1.853,-1.8329,-1.8769,-1.8827,-1.9067,-1.977,-2.0245,-2.1138,-2.2899,-2.3236,-2.3236,-2.3236,-2.3236,-2.3281,-2.34,-2.4889,-2.5926,-2.6054,-2.7566,-2.8281,-2.7655,-2.7469,-2.7233,-2.6842,-2.7287,-2.771,-2.7992,-2.8651,-2.8994,-2.8994,-2.8994,-2.8994,-2.8994,-2.8994,-2.8994,-2.8994,-2.8994,-2.8994,0.0,0.0,0.0,0.0,-0.8804,0.0,0.0,0.0,-0.8804,-0.8804,0.0,0.0,0.0,0.0,0.0,0.0,0.0,0.0,0.0,0.0,0.0,0.0,0.0,0.0,0.0,-0.3924,-0.2471,-0.1054,-0.1565,-0.1715,-0.1104,-0.1724,-0.2115,-0.2218,-0.2892,-0.3345,-0.34,-0.4125,-0.4519,-0.4519,-0.4519,-0.4519,-0.4519,-0.4519,-0.4519,-0.4519,-0.4519,-0.4519,-0.4625,-0.6046,-0.6588,-0.675,-0.8209,-0.8804,-0.8804,-0.8804,-0.8804,-0.9008,-1.0312,-1.0813,-1.1023,-1.2461,-1.291,-1.2949,-1.2949,-1.3037,-1.3479,-1.5114,-1.5612,-1.6051,-1.777,-1.8204,-1.8229,-1.8292,-1.8254,-1.8229,-1.8292,-1.8289,-1.8588,-1.9683,-1.9945,-2.0387,-2.1698,-2.1919,-2.1919,-2.1919,-2.1919,-2.2113,-2.2753,-2.378,-2.4681,-2.5269,-2.6322,-2.6911,-2.6826,-2.6234,-2.6245,-2.7158,-2.671,-2.6957,-2.828,-2.8749,-2.8994,-2.8994,-2.8994,-2.8994,-2.8994,-2.8994,-2.8994,-2.8994,-2.8994,-2.8994,0.0,0.0,0.0,0.0,0.0,0.0,-0.8804,0.0,-0.8804,0.0,0.0,0.0,0.0,0.0,0.0,0.0,0.0,0.0,0.0,0.0,0.0,0.0,0.0,0.0,0.0,0.0,0.0,0.0,-0.2228,-0.2233,-0.2279,-0.2648,-0.3065,-0.3511,-0.3846,-0.4015,-0.4015,-0.4349,-0.4519,-0.4519,-0.4519,-0.4519,-0.4519,-0.4519,-0.4736,-0.5058,-0.5058,-0.5332,-0.5769,-0.6799,-0.7235,-0.7343,-0.8374,-0.8804,-0.8804,-0.8804,-0.8804,-0.8956,-0.9865,-1.0466,-1.1023,-1.2461,-1.2881,-1.2881,-1.2881,-1.3382,-1.4114,-1.4815,-1.5522,-1.6275,-1.7028,-1.7225,-1.7313,-1.7652,-1.7476,-1.7402,-1.8035,-1.8184,-1.8378,-1.9192,-1.9552,-1.9934,-2.0437,-2.1171,-2.1695,-2.1695,-2.1695,-2.1799,-2.2069,-2.2732,-2.3391,-2.3914,-2.464,-2.5179,-2.5406,-2.5135,-2.5178,-2.5654,-2.5744,-2.6481,-2.7978,-2.7775,-2.7622,-2.7622,-2.7622,-2.7842,-2.8301,-2.8421,-2.8725,-2.9225,-2.9067,-2.8994,-0.8156,0.0,0.0,0.0,0.0,0.0,0.0,0.0,0.0,0.0,0.0,0.0,0.0,0.0,0.0,0.0,0.0,0.0,0.0,0.0,0.0,0.0,0.0,0.0,0.0,0.0,0.0,-0.3579,-0.315,-0.3056,-0.3123,-0.3523,-0.3959,-0.4463,-0.4519,-0.4519,-0.4519,-0.4519,-0.4519,-0.4519,-0.4519,-0.4519,-0.4519,-0.4519,-0.4842,-0.5487,-0.5487,-0.5923,-0.6642,-0.7396,-0.7723,-0.7777,-0.8533,-0.8804,-0.8804,-0.8804,-0.8804,-0.891,-0.9762,-1.0677,-1.1534,-1.2569,-1.2881,-1.2881,-1.2881,-1.361,-1.4468,-1.4652,-1.5466,-1.6281,-1.6479,-1.6522,-1.6622,-1.7049,-1.6823,-1.6751,-1.7751,-1.7907,-1.8066,-1.8765,-1.9207,-1.953,-1.969,-2.0498,-2.1141,-2.1141,-2.1141,-2.1216,-2.1395,-2.1963,-2.2508,-2.3051,-2.3686,-2.4193,-2.4475,-2.432,-2.4292,-2.4464,-2.5297,-2.6309,-2.7416,-2.6906,-2.6615,-2.668,-2.668,-2.7015,-2.765,-2.7773,-2.8185,-2.8801,-2.9087,-2.9185,0.0,0.0,0.0,-0.7937,0.0,0.0,0.0,0.0,-0.8804,0.0,0.0,0.0,0.0,0.0,0.0,0.0,0.0,0.0,0.0,0.0,0.0,0.0,0.0,0.0,0.0,0.0,-0.7121,-0.4569,-0.4779,-0.4502,-0.3332,-0.4012,-0.446,-0.4519,-0.4519,-0.4519,-0.4519,-0.4519,-0.4519,-0.4519,-0.4519,-0.4519,-0.4519,-0.4519,-0.4842,-0.5487,-0.5487,-0.5923,-0.6642,-0.7396,-0.7723,-0.7777,-0.8533,-0.8804,-0.8804,-0.8804,-0.8804,-0.9008,-1.0312,-1.1692,-1.2832,-1.2881,-1.2881,-1.2881,-1.2881,-1.3324,-1.3956,-1.4514,-1.5141,-1.5764,-1.6337,-1.6522,-1.6479,-1.6547,-1.6491,-1.6637,-1.7214,-1.7325,-1.7626,-1.8688,-1.8893,-1.9095,-1.9603,-1.972,-1.975,-1.975,-1.975,-1.9989,-2.0662,-2.1541,-2.2353,-2.3039,-2.3934,-2.4475,-2.4506,-2.3833,-2.3693,-2.436,-2.5774,-2.6591,-2.6649,-2.6612,-2.668,-2.6879,-2.6898,-2.699,-2.7217,-2.7234,-2.7234,-2.7309,-2.8944,-2.9678,0.0,0.0,-0.799,-0.7777,0.0,0.0,0.0,0.0,0.0,0.0,0.0,0.0,0.0,0.0,0.0,0.0,0.0,0.0,0.0,0.0,0.0,0.0,0.0,0.0,0.0,0.0,0.0,-0.5429,-0.5157,-0.4725,-0.3804,-0.4247,-0.4519,-0.4519,-0.4519,-0.4519,-0.4519,-0.4519,-0.4519,-0.4519,-0.4519,-0.4519,-0.4519,-0.4519,-0.5117,-0.6204,-0.6204,-0.6907,-0.8049,-0.8321,-0.8427,-0.848,-0.8699,-0.8804,-0.8857,-0.9309,-0.9465,-0.9666,-1.1015,-1.1774,-1.2236,-1.2725,-1.2881,-1.2881,-1.2881,-1.361,-1.4422,-1.4652,-1.5421,-1.6238,-1.6436,-1.6522,-1.6522,-1.6522,-1.6752,-1.7188,-1.7706,-1.8106,-1.8574,-1.9281,-1.9442,-1.9479,-1.969,-1.969,-1.969,-1.969,-1.969,-1.9858,-2.0391,-2.069,-2.1225,-2.2005,-2.2384,-2.2722,-2.3009,-2.2976,-2.3345,-2.4339,-2.4586,-2.5014,-2.5768,-2.5291,-2.5114,-2.5297,-2.5314,-2.5679,-2.6403,-2.6536,-2.7177,-2.8278,-2.8973,-2.9136,-0.7289,-0.7503,0.0,-0.7069,-0.7283,0.0,-0.8321,0.0,-0.8804,0.0,0.0,0.0,0.0,0.0,0.0,0.0,0.0,0.0,0.0,-1.1999,0.0,0.0,0.0,0.0,0.0,0.0,-0.8234,-0.6309,-0.5727,-0.5091,0.0,0.0,-0.4519,-0.4519,-0.4519,-0.4519,-0.4519,-0.4519,-0.4519,-0.4519,-0.4519,-0.4519,-0.4519,-0.4732,-0.5496,-0.6588,-0.6858,-0.767,-0.8804,-0.8804,-0.8804,-0.8804,-0.8804,-0.8804,-0.8857,-0.9562,-1.0115,-1.061,-1.1516,-1.1972,-1.2295,-1.2774,-1.3065,-1.3238,-1.3238,-1.4061,-1.5017,-1.5017,-1.5732,-1.6522,-1.6522,-1.6522,-1.6552,-1.6752,-1.7034,-1.7504,-1.8224,-1.865,-1.9043,-1.9603,-1.969,-1.969,-1.969,-1.969,-1.969,-1.969,-1.969,-1.9839,-2.0246,-2.0449,-2.0813,-2.1521,-2.1764,-2.2015,-2.2409,-2.273,-2.3232,-2.41,-2.3981,-2.4194,-2.4942,-2.4542,-2.454,-2.5019,-2.4801,-2.5181,-2.6222,-2.6034,-2.6496,-2.7574,-2.8019,-2.8044]}]]